     2.11           OBSERVATION DATA    G (GPS)             RINEX VERSION / TYPE
teqc 2010Oct21 OPUS Account 20111028 15:39:13UTC            PGM / RUN BY / DATE
K 1527                                                      MARKER NAME
3070                                                        MARKER NUMBER
CSMIDDLETON NGS                                             OBSERVER / AGENCY
4624K01615 TRIMBLE NETR5 4.41                               REC # / TYPE / VERS
12338145 TRM41249.00 NONE                                   ANT # / TYPE
  -726713.1779 -5589486.5541  2974961.3605                  APPROX POSITION XYZ
        2.0000        0.0000        0.0000                  ANTENNA: DELTA H/E/N
     1     1                                                WAVELENGTH FACT L1/2
     5    L1    L2    C1    P1    P2                        # / TYPES OF OBSERV
    15                                                      LEAP SECONDS
  2011     8    23    16    15    0.0000000     GPS         TIME OF FIRST OBS
                                                            END OF HEADER
 11  8 23 16 15  0.0000000  0 11G10G23G06G03G08G13G11G19G16G07G28
 126584810.61117  98637445.78154  24088262.953                    24088272.133
 109229826.22018  85114172.09556  20785744.844                    20785750.637
 122593170.84117  95527232.03754  23328718.781                    23328727.668
 112724295.69017  87837181.00055  21450731.242                    21450739.668
 124426030.33917  96955429.08554  23677500.227                    23677508.973
 105426628.42518  82150639.82656  20062020.148                    20062027.387
 127420150.02516  99288461.95153  24247248.305                    24247259.258
 109974382.28518  85694315.97656  20927429.172                    20927435.109
 125358902.02016  97682306.68554  23855008.766                    23855017.988
 114744273.72217  89411137.90717  21835109.367                    21835117.082
 127299931.60116                  24224371.305
 11  8 23 16 15 30.0000000  0 11G10G23G06G03G08G13G11G19G16G07G28
 126614366.773 7  98660476.54543  24093886.719                    24093896.980
 109298595.794 8  85167758.73046  20798831.391                    20798836.906
 122673676.808 7  95589963.88444  23344038.734                    23344048.168
 112787976.483 7  87886802.35245  21462849.508                    21462857.555
 124357182.794 7  96901781.70844  23664398.531                    23664408.000
 105441551.166 8  82162267.92046  20064860.336                    20064867.527
 127343136.318 6  99228451.37443  24232592.414                    24232604.383
 109965276.852 8  85687220.85346  20925696.055                    20925702.188
 125447981.220 6  97751718.99343  23871960.633                    23871968.414
 114689918.921 7  89368783.546 7  21824766.195                    21824773.523
 127234643.911 6                  24211946.625
 11  8 23 16 16  0.0000000  0 11G10G23G06G03G08G13G11G19G16G07G28
 126644297.922 6  98683799.55343  24099582.758                    24099592.711
 109367846.919 8  85221720.61346  20812008.992                    20812015.020
 122754529.226 7  95652965.70944  23359424.625                    23359433.613
 112852165.029 7  87936819.37845  21475064.211                    21475072.148
 124288269.435 7  96848083.05444  23651284.242                    23651293.852
 105457068.022 8  82174358.98046  20067813.031                    20067819.922
 127266047.964 6  99168382.59643  24217923.914                    24217934.078
 109956783.876 8  85680602.95746  20924080.391                    20924086.492
 125537016.887 6  97821097.38243  23888902.234                    23888911.445
 114635619.530 7  89326472.374 7  21814432.883                    21814441.051
 127169579.619 6                  24199565.914
 11  8 23 16 16 30.0000000  0 11G10G23G06G03G08G13G11G19G16G07G28
 126674602.064 6  98707413.17543  24105348.703                    24105359.656
 109437579.284 8  85276057.47146  20825279.102                    20825285.199
 122835725.444 6  95716235.45044  23374875.633                    23374885.191
 112916859.873 7  87987230.92145  21487375.469                    21487383.180
 124219290.633 7  96794333.40944  23638158.375                    23638166.895
 105473180.083 8  82186913.82646  20070879.070                    20070885.945
 127188889.820 6  99108259.45943  24203241.398                    24203251.090
 109948904.942 8  85674463.54646  20922580.984                    20922586.785
 125626008.065 7  97890441.07043  23905838.188                    23905845.805
 114581376.551 8  89284205.139 7  21804110.977                    21804118.551
 127104739.405 6                  24187227.000
 11  8 23 16 17  0.0000000  0 11G10G23G06G03G08G13G11G19G16G07G28
 126705277.249 6  98731315.91943  24111186.297                    24111196.969
 109507790.950 8  85330767.82246  20838640.039                    20838646.195
 122917263.811 6  95779771.79244  23390391.859                    23390401.063
 112982058.751 7  88038035.22545  21499782.148                    21499790.156
 124150247.123 6  96740533.34543  23625019.055                    23625028.898
 105489887.511 8  82199932.59346  20074058.320                    20074065.078
 127111663.942 6  99048083.47743  24188545.227                    24188555.867
 109941640.457 8  85668802.92246  20921198.641                    20921204.730
 125714953.528 6  97959749.18043  23922763.219                    23922772.324
 114527191.467 8  89241983.017 7  21793800.430                    21793807.801
 127040123.486 6                  24174931.273
 11  8 23 16 17 30.0000000  0 11G10G23G06G03G08G13G11G19G16G07G28
 126736321.556 6  98755506.27743  24117093.305                    24117104.340
 109578479.945 8  85385850.12446  20852091.539                    20852097.672
 122999141.801 6  95843572.80044  23405972.461                    23405982.090
 113047759.341 7  88089230.43645  21512284.477                    21512293.117
 124081139.459 6  96686683.33443  23611867.414                    23611878.020
 105507190.496 8  82213415.43246  20077350.953                    20077358.133
 127034373.265 6  98987857.03143  24173836.594                    24173848.434
 109934991.524 8  85663621.94746  20919933.086                    20919939.105
 125803852.759 6  98029021.20943  23939680.984                    23939688.824
 114473065.643 8  89199807.073 7  21783500.711                    21783508.324
 126975732.224 6                  24162677.945
 11  8 23 16 18  0.0000000  0 11G10G23G06G03G08G13G11G19G16G07G28
 126767732.631 6  98779982.43043  24123071.086                    24123080.934
 109649644.098 8  85441302.67146  20865633.883                    20865639.801
 123081357.197 6  95907636.70844  23421618.063                    23421627.855
 113113958.869 7  88140814.45745  21524882.141                    21524890.398
 124011967.661 6  96632783.24943  23598705.133                    23598713.777
 105525088.575 8  82227361.97446  20080756.906                    20080764.336
 126957019.859 6  98927581.69743  24159116.820                    24159128.098
 109928958.199 8  85658920.67346  20918785.414                    20918791.379
 125892703.778 6  98098255.70943  23956587.742                    23956597.145
 114418999.729 8  89157677.815 7  21773211.773                    21773219.441
 126911565.424 6                  24150467.680
 11  8 23 16 18 30.0000000  0 11G10G23G06G03G08G13G11G19G16G07G28
 126799508.804 6  98804743.08443  24129118.250                    24129128.395
 109721281.670 8  85497124.10946  20879266.055                    20879272.094
 123163907.662 6  95971961.68244  23437326.359                    23437336.469
 113180655.906 7  88192786.14845  21537573.461                    21537581.867
 123942732.420 6  96578833.79743  23585529.500                    23585540.547
 105543582.323 8  82241772.67846  20084276.117                    20084283.688
 126879606.912 6  98867259.98243  24144385.414                    24144395.578
 109923541.048 8  85654699.54446  20917754.313                    20917760.336
 125981505.389 6  98167451.70143  23973486.664                    23973495.797
 114364995.077 8  89115596.292 7  21762935.516                    21762942.961
 126847623.613 6  98842306.89053  24138299.117                    24138308.570
 11  8 23 16 19  0.0000000  0 11G10G23G06G03G08G13G11G19G16G07G28
 126831647.990 6  98829786.64643  24135233.820                    24135243.875
 109793390.781 8  85553312.99246  20892988.008                    20892994.023
 123246790.425 6  96036545.65144  23453099.359                    23453108.426
 113247848.107 7  88245143.67945  21550359.867                    21550368.523
 123873434.258 6  96524835.30543  23572342.914                    23572353.691
 105562671.477 8  82256647.33346  20087908.375                    20087915.555
 126802137.070 6  98806893.90643  24129644.023                    24129654.133
 109918740.834 8  85650959.12446  20916840.594                    20916847.008
 126070256.625 6  98236608.47043  23990375.336                    23990383.836
 114311053.119 8  89073563.610 7  21752670.586                    21752678.195
 126783906.654 6  98792657.38143  24126174.023                    24126183.980
 11  8 23 16 19 30.0000000  0 11G10G23G06G03G08G13G11G19G16G07G28
 126864147.646 6  98855111.02543  24141418.352                    24141428.258
 109865969.351 8  85609867.66746  20906798.969                    20906804.660
 123330003.516 6  96101387.00244  23468933.750                    23468943.438
 113315532.380 7  88297884.62245  21563240.742                    21563248.820
 123804073.741 7  96470788.17643  23559144.195                    23559153.434
 105582356.026 8  82271985.94346  20091654.477                    20091662.125
 126724612.781 6  98746485.39043  24114891.336                    24114902.074
 109914558.049 7  85647699.82346  20916044.789                    20916050.898
 126158956.289 6  98305725.01043  24007254.891                    24007262.914
 114257174.889 7  89031580.618 7  21742417.813                    21742425.469
 126720415.043 6  98743183.47343  24114091.570                    24114102.086
 11  8 23 16 20  0.0000000  0 11G10G23G06G03G08G13G11G19G16G07G28
 126897005.742 6  98880714.73643  24147671.148                    24147681.652
 109939015.814 8  85666786.94946  20920699.508                    20920705.418
 123413544.354 6  96166483.71944  23484830.953                    23484840.734
 113383706.847 7  88351007.54745  21576212.977                    21576221.523
 123734651.210 7  96416692.72443  23545933.492                    23545943.094
 105602636.238 8  82287788.69346  20095513.711                    20095520.859
 126647037.043 6  98686036.85242  24100128.211                    24100138.680
 109910993.100 8  85644921.95546  20915366.305                    20915372.156
 126247603.277 6  98374800.54643  24024123.742                    24024131.906
 114203361.458 8  88989648.115 7  21732177.516                    21732184.711
 126657148.750 6  98693885.13643  24102052.977                    24102062.980
 11  8 23 16 20 30.0000000  0 11G10G23G06G03G08G13G11G19G16G07G28
 126930219.903 7  98906595.94544  24153991.516                    24154002.418
 110012527.662 8  85724068.86846  20934687.984                    20934694.504
 123497410.618 6  96231834.02044  23500790.859                    23500799.945
 113452369.384 7  88404510.79545  21589279.805                    21589287.969
 123665167.039 7  96362549.30943  23532711.023                    23532720.602
 105623511.581 8  82304055.16946  20099486.227                    20099493.109
 126569412.457 5  98625550.23642  24085356.297                    24085367.223
 109908046.230 8  85642625.70346  20914805.930                    20914811.625
 126336196.291 6  98443833.97743  24040982.180                    24040991.445
 114149614.133 8  88947767.102 7  21721949.273                    21721956.906
 126594107.572 6  98644762.22543  24090056.789                    24090065.875
 11  8 23 16 21  0.0000000  0 11G10G23G06G03G08G13G11G19G16G07G28
 126963788.142 6  98932752.99443  24160378.992                    24160389.836
 110086502.930 8  85781711.89446  20948765.234                    20948771.504
 123581599.610 6  96297435.81144  23516810.680                    23516820.477
 113521517.173 7  88458392.15445  21602438.133                    21602445.965
 123595621.652 7  96308358.12444  23519477.453                    23519485.340
 105644981.586 8  82320785.04246  20103571.492                    20103578.418
 126491741.553 6  98565027.53743  24070577.539                    24070587.574
 109905717.804 8  85640811.35646  20914362.813                    20914368.445
 126424734.151 6  98512824.41843  24057830.688                    24057840.000
 114095933.780 7  88905938.299 7  21711734.258                    21711742.086
 126531291.541 6  98595814.77344  24078102.766                    24078112.789
 11  8 23 16 21 30.0000000  0 11G10G23G06G03G08G13G11G19G16G07G28
 126997708.398 6  98959184.36843  24166834.586                    24166844.434
 110160939.280 8  85839714.19946  20962930.320                    20962936.293
 123666109.125 7  96363287.35044  23532893.031                    23532901.980
 113591148.014 7  88512649.91445  21615688.141                    21615696.645
 123526015.299 7  96254119.46244  23506231.070                    23506240.719
 105667046.732 8  82337978.64946  20107770.422                    20107777.676
 126414027.133 6  98504470.89643  24055788.719                    24055800.141
 109904008.315 8  85639479.29646  20914037.289                    20914043.430
 126513215.713 6  98581771.09343  24074668.258                    24074677.195
 114042322.028 8  88864162.930 7  21701532.305                    21701540.148
 126468700.854 6  98547042.91243  24066192.305                    24066202.031
 11  8 23 16 22  0.0000000  0 11G10G23G06G03G08G13G11G19G16G07G28
 127031978.217 6  98985888.11143  24173355.242                    24173366.012
 110235835.259 8  85898074.66846  20977182.086                    20977188.473
 123750936.834 6  96429386.83744  23549035.125                    23549044.109
 113661259.401 7  88567282.10345  21629030.000                    21629038.930
 123456348.981 7  96199834.11944  23492974.094                    23492983.547
 105689706.989 8  82355635.97546  20112083.117                    20112089.852
 126336271.794 6  98443882.35743  24040991.844                    24041003.664
 109902918.197 8  85638629.85546  20913830.219                    20913836.094
 126601639.905 7  98650672.94843  24091494.984                    24091504.023
 113988779.861 8  88822441.803 7  21691343.656                    21691351.309
 126406335.852 6  98498446.89243  24054324.781                    24054334.766
 11  8 23 16 22 30.0000000  0 11G10G23G06G03G08G13G11G19G16G07G28
 127066594.995 6  99012862.21643  24179942.516                    24179953.320
 110311188.474 8  85956791.40346  20991521.734                    20991527.695
 123836080.021 7  96495732.13644  23565236.727                    23565246.934
 113731848.791 7  88622286.76845  21642462.422                    21642470.633
 123386622.777 7  96145502.05744  23479705.844                    23479715.559
 105712961.669 8  82373756.48446  20116507.766                    20116515.328
 126258478.467 7  98383264.22744  24026188.781                    24026200.016
 109902447.449 8  85638263.02846  20913740.078                    20913746.480
 126690005.405 6  98719529.16143  24108309.695                    24108317.473
 113935308.359 8  88780775.723 7  21681168.313                    21681175.918
 126344196.082 6  98450026.37443  24042500.070                    24042509.773
 11  8 23 16 23  0.0000000  0 11G10G23G06G03G08G13G11G19G16G07G28
 127101556.725 6  99040105.07743  24186595.227                    24186606.078
 110386996.914 8  86015862.85946  21005947.492                    21005953.965
 123921536.191 6  96562321.29744  23581499.547                    23581508.992
 113802913.774 7  88677662.06545  21655985.609                    21655994.066
 123316837.266 7  96091123.79244  23466425.914                    23466435.410
 105736810.461 8  82392339.95446  20121046.219                    20121053.262
 126180649.603 7  98322618.41244  24011378.477                    24011389.074
 109902596.285 8  85638378.99746  20913768.523                    20913774.590
 126778310.966 6  98788338.60543  24125114.305                    24125122.059
 113881908.606 8  88739165.558 7  21671006.664                    21671014.059
 126282281.717 6  98401781.46943  24030718.539                    24030726.754
 11  8 23 16 23 30.0000000  0 11G10G23G06G03G08G13G11G19G16G07G28
 127136861.141 6  99067614.98943  24193313.648                    24193324.676
 110463258.400 8  86075287.33946  21020459.578                    21020465.855
 124007302.870 6  96629152.46744  23597820.094                    23597829.332
 113874451.911 7  88733406.00745  21669599.266                    21669607.555
 123246992.981 7  96036699.71944  23453135.016                    23453144.766
 105761253.049 8  82411386.11746  20125697.328                    20125704.789
 126102787.898 7  98261947.01244  23996561.844                    23996572.922
 109903365.456 8  85638978.35546  20913915.117                    20913921.039
 126866555.480 6  98857100.46543  24141907.203                    24141915.449
 113828581.916 8  88697612.312 7  21660858.945                    21660866.102
 126220592.701 6  98353712.21743  24018979.289                    24018987.754
 11  8 23 16 24  0.0000000  0 11G10G23G06G03G08G13G11G19G16G07G28
 127172505.969 6  99095390.16843  24200096.828                    24200106.891
 110539970.331 8  86135062.81646  21035057.750                    21035063.910
 124093377.524 6  96696223.57444  23614199.273                    23614209.113
 113946460.490 7  88789516.55645  21683301.711                    21683310.645
 123177089.913 7  95982229.84544  23439833.266                    23439842.652
 105786288.797 8  82430894.47346  20130461.234                    20130468.809
 126024896.062 7  98201252.12943  23981739.102                    23981749.988
 109904753.991 7  85640060.33046  20914179.125                    20914185.270
 126954737.433 6  98925813.66543  24158687.125                    24158696.133
 113775329.170 8  88656116.694 7  21650724.750                    21650732.879
 126159128.800 6  98305818.34543  24007282.703                    24007291.918
 11  8 23 16 24 30.0000000  0 11G10G23G06G03G08G13G11G19G16G07G28
 127208488.702 6  99123428.63743  24206944.102                    24206954.375
 110617130.792 8  86195187.80046  21049740.898                    21049746.836
 124179757.918 6  96763532.93344  23630637.078                    23630647.063
 114018937.038 7  88845991.76045  21697093.508                    21697102.418
 123107129.357 7  95927715.20344  23426519.664                    23426530.129
 105811917.974 8  82450865.24446  20135338.906                    20135345.621
 125946976.884 6  98140535.91543  23966911.789                    23966921.887
 109906762.882 8  85641625.71646  20914561.688                    20914567.773
 127042856.457 6  98994477.77843  24175456.242                    24175464.594
 113722152.417 8  88614680.293 7  21640605.906                    21640613.273
 126097890.330 6  98258100.09643  23995629.117                    23995638.578
 11  8 23 16 25  0.0000000  0 11G10G23G06G03G08G13G11G19G16G07G28
 127244807.306 6  99151728.87443  24213855.094                    24213866.461
 110694737.956 8  86255660.86545  21064509.016                    21064515.219
 124266441.587 6  96831078.57844  23647132.594                    23647142.379
 114091879.145 7  88902829.73845  21710974.406                    21710982.914
 123037111.661 7  95873156.03344  23413195.477                    23413205.461
 105838140.466 8  82471298.33446  20140328.656                    20140336.090
 125869033.167 6  98079800.56942  23952078.789                    23952089.629
 109909392.218 8  85643674.56046  20915061.734                    20915067.762
 127130911.215 6  99063091.80843  24192211.703                    24192220.148
 113669052.427 8  88573303.692 7  21630501.164                    21630508.801
 126036877.187 6  98210557.46443  23984019.156                    23984027.867
 11  8 23 16 25 30.0000000  0 11G10G23G06G03G08G13G11G19G16G07G28
 127281459.227 6  99180288.76843  24220830.188                    24220840.395
 110772789.305 8  86316480.04246  21079361.859                    21079368.086
 124353425.776 6  96898858.45243  23663685.258                    23663695.008
 114165284.363 7  88960028.58545  21724942.875                    21724951.684
 122967036.931 7  95818552.41444  23399860.711                    23399870.340
 105864955.009 8  82492192.78346  20145431.023                    20145438.738
 125791067.289 6  98019047.96143  23937243.188                    23937253.301
 109912641.847 8  85646206.76346  20915680.234                    20915686.094
 127218900.368 6  99131654.75443  24208956.219                    24208963.656
 113616030.133 7  88531987.672 7  21620411.531                    21620419.535
 125976089.248 6  98163190.30343  23972450.961                    23972460.371
 11  8 23 16 26  0.0000000  0 11G10G23G06G03G08G13G11G19G16G07G28
 127318442.072 6  99209106.58043  24227868.406                    24227877.395
 110851282.602 8  86377643.60445  21094298.688                    21094304.684
 124440708.113 6  96966870.58243  23680294.609                    23680304.375
 114239150.409 7  89017586.52645  21738999.508                    21739007.340
 122896905.960 7  95763904.97444  23386515.125                    23386524.750
 105892361.697 8  82513548.63846  20150646.641                    20150653.813
 125713082.359 7  97958280.50543  23922403.078                    23922412.684
 109916511.919 8  85649222.41146  20916416.477                    20916422.438
 127306822.910 6  99200165.75343  24225686.945                    24225695.633
 113563087.029 7  88490733.335 7  21610336.586                    21610344.473
 125915526.302 6  98115998.46143  23960925.844                    23960935.598
 11  8 23 16 26 30.0000000  0 11G10G23G06G03G08G13G11G19G16G07G28
 127355753.413 6  99238180.34543  24234967.914                    24234977.688
 110930215.661 8  86439149.82446  21109318.898                    21109325.340
 124528286.148 6  97035113.17843  23696960.297                    23696968.801
 114313473.891 7  89075500.90445  21753142.078                    21753150.910
 122826719.303 7  95709214.12944  23373159.531                    23373168.102
 105920360.018 8  82535365.49546  20155974.820                    20155981.637
 125635081.114 7  97897500.38443  23907560.039                    23907570.434
 109921002.400 8  85652721.51046  20917271.102                    20917277.363
 127394677.669 6  99268623.95943  24242405.563                    24242413.516
 113510224.553 8  88449541.819 7  21600277.375                    21600284.316
 125855188.486 6  98068982.04443  23949444.305                    23949453.824
 11  8 23 16 27  0.0000000  0 11G10G23G06G03G08G13G11G19G16G07G28
 127393390.860 6  99267508.28043  24242130.078                    24242140.535
 111009586.348 8  86500997.06246  21124422.914                    21124429.477
 124616157.348 6  97103584.21343  23713680.844                    23713690.137
 114388252.598 7  89133770.02045  21767372.641                    21767380.234
 122756477.528 7  95654480.32344  23359792.625                    23359802.031
 105948949.356 8  82557642.87846  20161414.781                    20161421.883
 125557066.236 7  97836709.62543  23892714.242                    23892724.738
 109926113.423 8  85656704.14246  20918243.609                    20918249.723
 127482463.614 6  99337028.55143  24259110.148                    24259119.047
 113457443.831 8  88408414.011 7  21590233.219                    21590240.914
 125795075.486 6  98022140.82443  23938004.625                    23938015.070
 11  8 23 16 27 30.0000000  0 11G10G23G06G03G08G13G11G19G16G07G28
 127431352.339 6  99297088.61643  24249354.125                    24249363.969
 111089392.135 8  86563183.33145  21139609.336                    21139615.637
 124704319.000 6  97172281.54544  23730457.531                    23730468.082
 114463483.818 7  89192391.73745  21781688.055                    21781696.711
 122686180.972 7  95599703.88744  23346415.445                    23346424.824
 105978128.889 8  82580380.16946  20166967.641                    20166974.758
 125479040.327 7  97775910.28044  23877866.523                    23877876.914
 109931844.684 8  85661170.06946  20919334.359                    20919340.324
 127570179.713 6  99405378.62143  24275802.539                    24275810.895
 113404745.901 7  88367350.719 7  21580205.484                    21580212.762
 125735187.058 6  97975474.56143  23926608.484                    23926617.262
 11  8 23 16 28  0.0000000  0 11G10G23G06G03G08G13G11G19G16G07G28
 127469635.289 6  99326919.47543  24256639.070                    24256648.750
 111169630.817 8  86625706.93445  21154878.430                    21154884.660
 124792768.612 6  97241203.21543  23747289.570                    23747299.535
 114539164.561 7  89251363.72745  21796089.930                    21796098.430
 122615830.221 7  95544885.16744  23333028.406                    23333037.367
 106007898.235 8  82603577.05746  20172632.297                    20172639.977
 125401006.109 6  97715104.48043  23863016.422                    23863026.926
 109938196.199 8  85666119.33246  20920542.844                    20920548.598
 127657824.692 5  99473673.40743  24292479.945                    24292489.129
 113352132.013 8  88326352.909 7  21570193.336                    21570200.934
 125675523.109 6  97928983.25143  23915254.992                    23915264.016
 11  8 23 16 28 30.0000000  0 11G10G23G06G03G08G13G11G19G16G07G28
 127508237.065 6  99356998.74743  24263984.766                    24263995.277
 111250299.693 8  86688565.73446  21170229.664                    21170235.918
 124881503.592 6  97310347.36043  23764174.734                    23764184.941
 114615292.808 7  89310684.41145  21810576.469                    21810585.527
 122545425.635 7  95490024.51244  23319630.602                    23319640.145
 106038256.808 8  82627233.07046  20178409.727                    20178417.301
 125322966.292 6  97654294.28643  23848165.648                    23848176.441
 109945167.751 8  85671551.73446  20921869.539                    20921875.328
 127745397.658 6  99541911.92643  24309145.836                    24309154.484
 113299603.085 8  88285421.311 7  21560197.273                    21560205.398
 125616083.785 6  97882666.93343  23903943.664                    23903954.348
 11  8 23 16 29  0.0000000  0 11G10G23G06G03G08G13G11G19G16G07G28
 127547155.221 5  99387324.55043  24271389.359                    24271400.734
 111331396.856 8  86751758.28045  21185661.203                    21185667.684
 124970521.596 6  97379711.99043  23781114.445                    23781124.293
 114691866.141 7  89370351.92145  21825148.188                    21825156.180
 122474968.268 7  95435122.71444  23306222.898                    23306232.355
 106069204.318 8  82651348.00546  20184298.523                    20184305.531
 125244923.845 6  97593482.12142  23833314.547                    23833325.684
 109952759.161 8  85677467.13046  20923314.156                    20923320.031
 127832897.498 6  99610093.54843  24325796.883                    24325805.629
 113247161.245 8  88244557.564 7  21550217.891                    21550225.418
 125556868.899 6  97836525.54643  23892675.602                    23892685.191
 11  8 23 16 29 30.0000000  0 11G10G23G06G03G08G13G11G19G16G07G28
 127586387.464 6  99417895.10343  24278856.055                    24278866.469
 111412920.083 8  86815282.80846  21201175.039                    21201181.348
 125059819.978 6  97449295.10143  23798107.844                    23798117.074
 114768881.269 7  89430363.70845  21839803.531                    21839812.523
 122404458.782 7  95380180.31344  23292805.289                    23292814.723
 106100739.943 8  82675921.20446  20190299.578                    20190306.918
 125166881.457 6  97532669.92043  23818464.078                    23818474.004
 109960970.476 8  85683865.58546  20924876.445                    20924882.363
 127920323.182 6  99678217.43443  24342432.438                    24342441.559
 113194807.689 8  88203762.622 7  21540255.141                    21540262.945
 125497878.320 6  97790558.92244  23881449.930                    23881458.949
 11  8 23 16 30  0.0000000  0 11G10G23G06G03G08G13G11G19G16G07G28
 127625931.146 6  99448708.31743  24286380.523                    24286391.379
 111494866.697 8  86879137.24845  21216768.828                    21216775.371
 125149396.358 6  97519094.88343  23815153.797                    23815163.098
 114846336.091 7  89490718.06845  21854542.922                    21854551.457
 122333897.502 7  95325197.55044  23279377.813                    23279386.594
 106132862.978 8  82700952.12946  20196412.438                    20196419.813
 125088841.911 6  97471859.91443  23803613.000                    23803623.047
 109969801.485 8  85690746.90546  20926557.336                    20926562.941
 128007673.880 6  99746282.84043  24359055.617                    24359064.020
 113142543.393 7  88163037.239 7  21530309.570                    21530317.441
 125439111.732 6  97744766.82744  23870268.086                    23870277.016
 11  8 23 16 30 30.0000000  0 11G10G23G06G03G08G13G11G19G16G07G28
 127665783.787 6  99479762.31443  24293963.734                    24293975.297
 111577234.548 8  86943319.93745  21232442.938                    21232449.160
 125239248.013 6  97589109.08443  23832251.797                    23832260.797
 114924227.307 7  89551412.49244  21869365.102                    21869373.602
 122263284.746 7  95270174.67344  23265941.250                    23265950.504
 106165572.676 8  82726440.18346  20202637.023                    20202644.523
 125010807.974 7  97411054.28843  23788764.438                    23788774.195
 109979251.740 8  85698110.75446  20928355.133                    20928361.617
 128094948.169 6  99814288.74943  24375662.531                    24375671.289
 113090369.513 7  88122382.285 7  21520381.109                    21520388.582
 125380569.283 6  97699149.41043  23859126.539                    23859135.914
 11  8 23 16 31  0.0000000  0 11G10G23G06G03G08G13G11G19G16G07G28
 127705943.174 6  99511055.29443  24301606.617                    24301617.156
 111660021.002 8  87007828.81045  21248196.727                    21248203.074
 125329372.516 6  97659335.98243  23849401.203                    23849410.801
 115002552.467 7  89612445.04445  21884269.789                    21884278.148
 122192621.417 7  95215112.42644  23252494.414                    23252503.418
 106198868.273 8  82752384.79146  20208972.688                    20208980.102
 124932782.597 6  97350255.36343  23773916.445                    23773926.563
 109989321.138 8  85705957.04846  20930271.727                    20930277.887
 128182145.265 6  99882234.45043  24392256.422                    24392265.270
 113038287.531 8  88081798.954 7  21510470.219                    21510477.766
 125322250.300 6  97653706.11243  23848029.352                    23848038.156
 11  8 23 16 31 30.0000000  0 11G10G23G06G03G08G13G11G19G16G07G28
 127746406.950 6  99542585.45443  24309306.313                    24309317.063
 111743223.781 8  87072662.08945  21264029.813                    21264035.867
 125419767.508 7  97729773.59644  23866603.977                    23866613.133
 115081308.922 7  89673813.69544  21899256.672                    21899264.652
 122121908.380 7  95160011.41544  23239037.750                    23239046.973
 106232749.260 8  82778785.54646  20215420.883                    20215427.316
 124854768.433 6  97289465.15943  23759070.508                    23759080.898
 110000009.655 8  85714285.77446  20932305.594                    20932311.719
 128269264.357 6  99950119.42343  24408834.391                    24408842.766
 112986299.253 7  88041288.629 7  21500577.695                    21500584.754
 125264154.783 6  97608436.95543  23836973.656                    23836983.203
 11  8 23 16 32  0.0000000  0 11G10G23G06G03G08G13G11G19G16G07G28
 127787172.285 6  99574350.62843  24317063.813                    24317074.996
 111826840.802 8  87137818.15845  21279941.219                    21279947.910
 125510430.222 6  97800419.76243  23883855.898                    23883865.477
 115160494.109 7  89735516.41144  21914325.102                    21914334.113
 122051146.230 7  95104872.14244  23225572.055                    23225580.980
 106267214.702 8  82805641.70446  20221978.789                    20221986.379
 124776768.300 6  97228685.89943  23744227.695                    23744238.574
 110011316.459 8  85723096.28646  20934457.055                    20934462.852
 128356304.243 6 100017942.64143  24425397.266                    24425406.152
 112934405.584 7  88000852.031 7  21490702.375                    21490709.563
 125206282.485 6  97563341.72443  23825960.633                    23825970.426
 11  8 23 16 32 30.0000000  0 11G10G23G06G03G08G13G11G19G16G07G28
 127828236.638 6  99606348.79043  24324878.609                    24324889.441
 111910869.251 8  87203294.81545  21295931.578                    21295938.031
 125601358.040 7  97871272.62344  23901159.211                    23901168.398
 115240105.655 7  89797551.34144  21929474.781                    21929483.727
 121980335.416 7  95049694.96144  23212097.086                    23212106.246
 106302263.785 8  82832952.65946  20228648.438                    20228656.121
 124698784.928 6  97167919.74243  23729388.375                    23729398.992
 110023241.573 8  85732388.58946  20936726.156                    20936732.129
 128443263.934 6 100085703.36143  24441944.578                    24441953.875
 112882607.707 7  87960490.093 7  21480845.180                    21480853.363
 125148633.282 6  97518420.36643  23814990.211                    23814999.473
 11  8 23 16 33  0.0000000  0 11G10G23G06G03G08G13G11G19G16G07G28
 127869597.462 6  99638577.96943  24332749.055                    24332760.082
 111995306.679 8  87269090.14745  21311999.648                    21312005.930
 125692548.222 7  97942329.83044  23918512.242                    23918521.996
 115320140.059 7  89859915.77045  21944704.797                    21944713.395
 121909476.610 7  94994480.39844  23198612.820                    23198622.340
 106337895.109 8  82860717.30646  20235429.070                    20235436.363
 124620821.092 6  97107168.80843  23714550.891                    23714562.523
 110035784.229 8  85742162.09946  20939113.547                    20939119.184
 128530142.378 6 100153400.80043  24458477.273                    24458486.359
 112830906.943 8  87920203.807 7  21471007.016                    21471014.707
 125091206.804 6  97473672.54443  23804062.539                    23804071.508
 11  8 23 16 33 30.0000000  0 11G10G23G06G03G08G13G11G19G16G07G28
 127911252.637 6  99671036.53943  24340675.563                    24340686.012
 112080150.731 8  87335202.34545  21328144.664                    21328151.348
 125783998.692 6  98013589.94343  23935913.602                    23935924.383
 115400595.250 7  89922608.09245  21960014.953                    21960023.602
 121838570.562 7  94939228.97544  23185120.438                    23185129.340
 106374108.921 8  82888935.84546  20242320.125                    20242327.727
 124542879.818 6  97046435.40443  23699720.156                    23699730.512
 110048944.129 8  85752416.58446  20941617.391                    20941623.629
 128616938.914 6 100221034.37943  24474994.531                    24475003.453
 112779305.094 8  87879994.590 7  21461187.766                    21461195.707
 125034002.776 6  97429098.06343  23793176.813                    23793185.605
 11  8 23 16 34  0.0000000  0 11G10G23G06G03G08G13G11G19G16G07G28
 127953199.262 6  99703722.22743  24348657.523                    24348668.188
 112165398.935 8  87401629.47245  21344367.156                    21344373.699
 125875706.732 6  98085050.66943  23953366.281                    23953376.109
 115481468.474 7  89985626.15345  21975404.961                    21975413.457
 121767617.933 7  94883941.30044  23171617.570                    23171627.133
 106410904.142 8  82917607.42346  20249322.102                    20249329.477
 124464963.968 7  96985721.76943  23684894.039                    23684903.109
 110062721.075 8  85763151.86846  20944239.008                    20944245.164
 128703652.514 6 100288603.35743  24491495.766                    24491504.480
 112727803.278 8  87839863.343 7  21451387.094                    21451395.020
 124977021.482 6  97384697.08743  23782334.453                    23782343.156
 11  8 23 16 34 30.0000000  0 11G10G23G06G03G08G13G11G19G16G07G28
 127995434.997 6  99736633.13643  24356695.664                    24356705.797
 112251048.323 8  87468369.19045  21360665.695                    21360672.402
 125967669.749 6  98156710.12143  23970865.164                    23970876.047
 115562756.353 7  90048967.31044  21990873.078                    21990881.926
 121696619.419 7  94828617.84844  23158107.500                    23158116.758
 106448279.480 8  82946731.03946  20256434.891                    20256441.996
 124387076.465 7  96925030.23643  23670071.930                    23670081.582
 110077114.736 8  85774367.71046  20946978.008                    20946984.133
 128790282.217 6 100356106.94743  24507980.688                    24507990.418
 112676402.719 8  87799810.979 7  21441606.258                    21441613.273
 124920262.024 6  97340468.98243  23771533.047                    23771541.969
 11  8 23 16 35  0.0000000  0 11G10G23G06G03G08G13G11G19G16G07G28
 128037957.218 5  99769767.29742  24364786.914                    24364798.250
 112337097.143 8  87535420.15945  21377040.586                    21377047.234
 126059884.923 6  98228566.00743  23988413.797                    23988424.574
 115644456.823 7  90112629.98844  22006420.297                    22006428.461
 121625575.194 7  94773258.76444  23144588.352                    23144597.176
 106486233.838 8  82976305.84246  20263656.703                    20263664.320
 124309220.074 6  96864362.94943  23655256.313                    23655266.234
 110092124.120 8  85786063.32246  20949834.359                    20949840.168
 128876827.033 6 100423544.35542  24524449.711                    24524458.547
 112625104.962 8  87759838.737 7  21431844.234                    21431852.477
 124863724.094 7  97296413.51743  23760773.563                    23760782.555
 11  8 23 16 35 30.0000000  0 11G10G23G06G03G08G13G11G19G16G07G28
 128080763.488 6  99803122.81342  24372932.906                    24372943.742
 112423542.884 8  87602780.42545  21393490.250                    21393497.660
 126152350.259 6  98300616.86243  24006009.594                    24006019.469
 115726567.005 7  90176611.89244  22022045.680                    22022054.492
 121554486.838 7  94717865.32444  23131060.648                    23131069.840
 106524766.667 8  83006331.40746  20270989.367                    20270996.602
 124231397.270 6  96803721.86643  23640446.906                    23640457.008
 110107749.286 8  85798238.77546  20952807.453                    20952813.414
 128963286.163 6 100490915.11842  24540902.094                    24540911.641
 112573911.775 8  87719947.981 7  21422102.289                    21422109.793
 124807407.932 7  97252530.82844  23750058.047                    23750066.781
 11  8 23 16 36  0.0000000  0 11G10G23G06G03G08G13G11G19G16G07G28
 128123850.993 6  99836697.40843  24381131.992                    24381142.305
 112510382.706 8  87670447.75245  21410015.516                    21410022.133
 126245062.770 6  98372860.32043  24023651.828                    24023662.887
 115809083.674 7  90240910.55244  22037748.133                    22037756.660
 121483354.878 7  94662437.84844  23117524.867                    23117533.355
 106563876.920 8  83036806.91046  20278432.234                    20278439.523
 124153611.016 6  96743109.27444  23625644.172                    23625654.520
 110123989.315 8  85810893.33646  20955898.125                    20955903.953
 129049658.854 6 100558218.39142  24557338.328                    24557348.039
 112522824.054 8  87680139.390 7  21412380.469                    21412388.219
 124751313.036 7  97208820.56344  23739382.930                    23739392.441
 11  8 23 16 36 30.0000000  0 11G10G23G06G03G08G13G11G19G16G07G28
 128167217.395 6  99870489.41143  24389384.820                    24389395.617
 112597613.876 8  87738420.03245  21426615.305                    21426622.008
 126338020.067 7  98445294.51943  24041341.977                    24041351.418
 115892004.247 7  90305523.94744  22053527.570                    22053536.281
 121412179.735 7  94606976.76344  23103980.172                    23103988.938
 106603563.540 8  83067731.52246  20285984.031                    20285991.547
 124075864.443 7  96682527.60544  23610850.094                    23610859.895
 110140843.644 8  85824026.58546  20959105.422                    20959111.367
 129135943.720 5 100625453.31342  24573758.570                    24573767.305
 112471843.333 8  87640414.182 7  21402679.359                    21402686.758
 124695439.168 6  97165282.52543  23728750.203                    23728758.992
 11  8 23 16 37  0.0000000  0 11G10G23G06G03G08G13G11G19G16G07G28
 128210859.673 6  99904496.35643  24397690.008                    24397699.781
 112685234.223 8  87806695.56545  21443289.063                    21443295.277
 126431219.492 6  98517917.42243  24059076.305                    24059086.082
 115975325.679 7  90370449.70144  22069382.734                    22069391.395
 121340962.241 7  94551482.64644  23090428.070                    23090437.000
 106643825.453 8  83099104.41846  20293645.805                    20293653.266
 123998160.346 6  96621979.03444  23596063.648                    23596073.215
 110158311.659 8  85837638.01846  20962429.547                    20962435.559
 129222140.129 6 100692619.24143  24590161.125                    24590169.258
 112420971.064 8  87600773.479 7  21392998.438                    21393006.066
 124639785.799 7  97121916.36844  23718159.820                    23718168.648
 11  8 23 16 37 30.0000000  0 11G10G23G06G03G08G13G11G19G16G07G28
 128254775.455 6  99938716.35943  24406046.977                    24406057.184
 112773241.243 8  87875272.40845  21460036.086                    21460042.547
 126524658.586 7  98590727.01143  24076858.195                    24076867.922
 116059045.585 7  90435685.97244  22085314.203                    22085322.043
 121269703.000 7  94495956.02044  23076867.797                    23076876.551
 106684661.697 8  83130924.85046  20301416.492                    20301424.098
 123920501.563 6  96561465.75443  23581284.875                    23581295.664
 110176392.658 8  85851727.11646  20965870.172                    20965876.094
 129308247.046 6 100759715.44243  24606546.969                    24606554.715
 112370208.569 8  87561218.308 7  21383339.000                    21383346.910
 124584352.743 6  97078721.85143  23707610.109                    23707620.816
 11  8 23 16 38  0.0000000  0 11G10G23G06G03G08G13G11G19G16G07G28
 128298962.010 6  99973147.39943  24414455.086                    24414465.648
 112861631.695 8  87944148.01645  21476856.461                    21476862.766
 126618334.409 6  98663721.13243  24094683.539                    24094693.164
 116143161.010 7  90501230.42944  22101320.781                    22101329.238
 121198403.141 7  94440397.71444  23063299.938                    23063308.797
 106726070.705 8  83163191.58246  20309296.563                    20309303.621
 123842890.742 6  96500989.85043  23566515.781                    23566526.242
 110195085.903 8  85866293.29346  20969427.180                    20969433.203
 129394263.954 6 100826741.50243  24622915.477                    24622924.180
 112319557.292 8  87521749.815 7  21373700.305                    21373707.816
 124529139.594 6  97035698.66843  23697104.383                    23697114.082
 11  8 23 16 38 30.0000000  0 11G10G23G06G03G08G13G11G19G16G07G28
 128343416.812 6 100007787.44743  24422914.828                    24422925.449
 112950403.467 8  88013320.75745  21493749.211                    21493755.613
 126712244.822 7  98736897.98443  24112554.055                    24112564.031
 116227669.579 7  90567081.22544  22117402.625                    22117410.941
 121127063.722 7  94384808.58944  23049724.398                    23049732.969
 106768051.760 8  83195904.07946  20317285.234                    20317292.594
 123765331.029 7  96440553.80043  23551756.484                    23551766.926
 110214391.101 8  85881336.32646  20973101.234                    20973107.066
 129480189.880 7 100893696.72043  24639266.406                    24639275.891
 112269018.920 7  87482369.288 7  21364083.320                    21364090.703
 124474146.059 7  96992846.63744  23686639.070                    23686648.637
 11  8 23 16 39  0.0000000  0 11G10G23G06G03G08G13G11G19G16G07G28
 128388137.514 6 100042634.70843  24431424.914                    24431434.859
 113039554.478 8  88082789.01745  21510714.531                    21510720.691
 126806387.237 7  98810255.67243  24130469.219                    24130478.254
 116312568.130 7  90633235.89644  22133557.883                    22133567.035
 121055685.170 7  94329188.99744  23036141.414                    23036150.828
 106810604.080 8  83229061.71046  20325382.758                    20325389.852
 123687825.522 6  96380159.97043  23537007.961                    23537017.426
 110234307.655 8  85896855.72846  20976891.016                    20976897.133
 129566023.900 7 100960580.26943  24655599.875                    24655609.547
 112218594.750 8  87443077.757 7  21354487.820                    21354495.582
 124419371.883 7  96950165.53544  23676216.641                    23676225.430
 11  8 23 16 39 30.0000000  0 11G10G23G06G03G08G13G11G19G16G07G28
 128433121.064 6 100077686.77243  24439985.156                    24439995.457
 113129081.431 8  88152550.20245  21527750.664                    21527757.109
 126900759.028 7  98883792.09243  24148428.055                    24148437.551
 116397854.149 7  90699692.49644  22149787.375                    22149796.051
 120984268.314 7  94273539.54344  23022551.250                    23022559.871
 106853726.031 8  83262663.20646  20333588.648                    20333595.438
 123610376.686 7  96319810.28243  23522270.133                    23522280.234
 110254834.230 8  85912850.48146  20980796.875                    20980803.109
 129651765.368 6 101027391.68243  24671916.250                    24671926.316
 112168286.249 8  87403876.348 7  21344914.391                    21344921.910
 124364816.865 7  96907655.15943  23665834.734                    23665844.098
 11  8 23 16 40  0.0000000  0 11G10G23G06G03G08G13G11G19G16G07G28
 128478365.300 6 100112941.96143  24448594.234                    24448605.254
 113218982.036 7  88222602.55245  21544857.992                    21544865.008
 126995357.685 7  98957505.29143  24166429.203                    24166438.949
 116483524.172 7  90766448.33444  22166089.602                    22166098.512
 120912813.898 7  94217860.82644  23008953.672                    23008963.152
 106897416.686 8  83296707.85446  20341902.555                    20341909.504
 123532987.558 7  96259507.12943  23507543.305                    23507553.625
 110275970.145 8  85929320.04346  20984818.750                    20984825.477
 129737413.370 6 101094130.31744  24688214.836                    24688224.781
 112118094.918 8  87364766.252 7  21335363.063                    21335370.797
 124310480.448 7  96865315.17543  23655494.523                    23655503.223
 11  8 23 16 40 30.0000000  0 11G10G23G06G03G08G13G11G19G16G07G28
 128523867.299 5 100148398.06743  24457252.859                    24457263.777
 113309253.650 6  88292943.99544  21562036.055                    21562043.016
 127090180.610 5  99031393.28243  24184474.008                    24184483.469
 116569575.934 6  90833501.62043  22182464.336                    22182473.688
 120841322.675 5  94162153.45443  22995350.102                    22995358.559
 106941674.641 6  83331194.54545  20350324.758                    20350332.145
 123455661.223 5  96199252.93843  23492828.516                    23492838.762
 110297715.046 6  85946264.13345  20988956.688                    20988962.793
 129822967.269 5 101160795.62543  24704494.508                    24704504.633
 112068022.413 6  87325748.751 7  21325835.094                    21325842.250
 124256362.283 5  96823145.22743  23645196.758                    23645204.895
 11  8 23 16 41  0.0000000  0 11G10G23G06G03G08G13G11G19G16G07G28
 128569624.822 6 100184053.19943  24465960.750                    24465971.074
 113399893.506 8  88363572.38945  21579284.516                    21579291.359
 127185225.422 6  99105454.08043  24202560.102                    24202570.324
 116656006.481 7  90900850.08044  22198911.836                    22198920.590
 120769795.860 7  94106418.29144  22981738.820                    22981747.352
 106986498.914 8  83366122.52746  20358854.359                    20358861.582
 123378400.487 6  96139049.79243  23478126.734                    23478136.227
 110320067.878 8  85963681.94746  20993210.711                    20993216.227
 129908425.980 6 101227386.74143  24720757.227                    24720765.996
 112018070.080 8  87286824.876 7  21316328.914                    21316336.242
 124202461.978 7  96781145.03743  23634939.883                    23634948.230
 11  8 23 16 41 30.0000000  0 11G10G23G06G03G08G13G11G19G16G07G28
 128615634.941 6 100219905.19543  24474715.859                    24474726.719
 113490898.981 8  88434485.67745  21596602.500                    21596608.895
 127280489.581 6  99179685.91043  24220687.852                    24220698.270
 116742813.171 7  90968491.63444  22215430.672                    22215439.375
 120698233.919 7  94050655.80244  22968120.703                    22968130.039
 107031888.158 8  83401490.74846  20367491.680                    20367499.301
 123301208.305 6  96078900.11143  23463436.969                    23463446.602
 110343028.080 8  85981573.04346  20997579.922                    20997585.410
 129993789.077 6 101293903.35443  24737001.102                    24737010.219
 111968239.544 8  87247995.892 7  21306846.711                    21306853.746
 124148779.377 7  96739314.49143  23624723.156                    23624732.938
 11  8 23 16 42  0.0000000  0 11G10G23G06G03G08G13G11G19G16G07G28
 128661894.838 6 100255951.82043  24483519.273                    24483530.094
 113582267.456 8  88505681.81445  21613989.258                    21613996.012
 127375970.301 6  99254086.37143  24238857.438                    24238867.516
 116829992.310 7  91036423.37544  22232020.430                    22232029.262
 120626637.842 7  93994866.69744  22954496.172                    22954506.156
 107077840.659 8  83437297.86146  20376236.414                    20376243.320
 123224087.646 6  96018806.13343  23448761.273                    23448771.539
 110366594.286 8  85999936.32746  21002064.078                    21002069.992
 130079055.590 6 101360344.70642  24753226.836                    24753236.715
 111918531.884 8  87209262.684 7  21297387.211                    21297394.582
 124095313.794 6  96697653.02644  23614549.695                    23614558.363
 11  8 23 16 42 30.0000000  0 11G10G23G06G03G08G13G11G19G16G07G28
 128708402.204 6 100292191.26543  24492368.992                    24492379.922
 113673996.698 7  88577159.06545  21631444.883                    21631451.293
 127471665.243 6  99328653.80643  24257067.117                    24257077.992
 116917542.162 7  91104643.99844  22248680.336                    22248689.867
 120555009.049 7  93939052.10244  22940865.922                    22940875.234
 107124355.846 8  83473543.43146  20385087.898                    20385094.789
 123147041.527 6  95958770.25843  23434099.539                    23434109.680
 110390766.152 8  86018771.55346  21006663.875                    21006669.441
 130164224.801 5 101426710.20343  24769433.859                    24769443.914
 111868949.389 8  87170626.983 7  21287952.438                    21287959.734
 124042065.099 7  96656160.62543  23604417.047                    23604425.945
 11  8 23 16 43  0.0000000  0 11G10G23G06G03G08G13G11G19G16G07G28
 128755154.073 6 100328621.23243  24501265.680                    24501276.348
 113766083.782 7  88648915.15045  21648968.672                    21648975.254
 127567571.782 6  99403386.06643  24275318.359                    24275328.609
 117005459.367 7  91173150.86344  22265411.242                    22265420.434
 120483347.847 7  93883212.24444  22927229.453                    22927238.109
 107171432.005 8  83510226.12746  20394045.906                    20394053.871
 123070072.153 7  95898794.19443  23419452.930                    23419463.375
 110415542.099 8  86038077.49946  21011378.477                    21011384.727
 130249296.096 6 101492999.43443  24785622.852                    24785632.230
 111819493.067 8  87132089.615 7  21278541.211                    21278548.379
 123989032.620 6  96614836.66944  23594324.797                    23594333.957
 11  8 23 16 43 30.0000000  0 11G10G23G06G03G08G13G11G19G16G07G28
 128802147.681 6 100365239.58543  24510208.602                    24510218.863
 113858525.695 8  88720947.73745  21666559.422                    21666565.969
 127663686.951 6  99478280.92443  24293608.094                    24293619.066
 117093740.701 7  91241941.48044  22282210.664                    22282219.258
 120411654.942 7  93827347.68144  22913586.820                    22913595.297
 107219067.616 8  83547344.76146  20403111.133                    20403118.586
 122993183.257 7  95838880.83243  23404821.383                    23404832.066
 110440921.332 8  86057853.53746  21016208.148                    21016214.098
 130334268.398 6 101559211.56042  24801792.961                    24801802.285
 111770164.216 8  87093651.584 7  21269154.156                    21269161.711
 123936216.003 7  96573680.91443  23584274.297                    23584283.086
 11  8 23 16 44  0.0000000  0 11G10G23G06G03G08G13G11G19G16G07G28
 128849380.754 6 100402044.51443  24519197.219                    24519207.063
 113951319.962 7  88793254.90145  21684217.617                    21684224.668
 127760008.509 6  99553336.60343  24311937.141                    24311947.566
 117182383.738 7  91311013.94644  22299079.008                    22299087.828
 120339931.310 7  93771459.18044  22899938.016                    22899946.652
 107267261.532 8  83584898.43946  20412282.063                    20412289.621
 122916377.557 7  95779032.29043  23390205.828                    23390216.473
 110466903.101 7  86078099.07646  21021151.930                    21021158.277
 130419140.954 6 101625345.94642  24817943.484                    24817953.078
 111720964.745 8  87055314.342 7  21259791.484                    21259798.945
 123883614.909 7  96532693.14543  23574264.648                    23574273.613
 11  8 23 16 44 30.0000000  0 11G10G23G06G03G08G13G11G19G16G07G28
 128896850.433 6 100439033.80643  24528229.875                    24528240.438
 114044463.698 7  88865834.35645  21701942.563                    21701949.000
 127856533.765 6  99628551.03244  24330306.445                    24330315.738
 117271385.601 7  91380365.99544  22316014.859                    22316024.266
 120268178.130 7  93715547.64944  22886284.047                    22886292.137
 107316012.183 8  83622885.93346  20421558.844                    20421566.027
 122839657.793 7  95719250.71044  23375606.773                    23375616.664
 110493485.716 8  86098812.81046  21026210.570                    21026216.508
 130503913.150 6 101691402.16342  24834074.695                    24834084.699
 111671895.935 8  87017078.924 7  21250454.250                    21250461.898
 123831228.473 7  96491872.59244  23564295.727                    23564304.855
 11  8 23 16 45  0.0000000  0 11G10G23G06G03G08G13G11G19G16G07G28
 128944554.110 6 100476205.45243  24537307.406                    24537317.879
 114137954.494 7  88938684.24145  21719733.156                    21719740.211
 127953260.559 6  99703922.44243  24348711.766                    24348723.063
 117360743.628 7  91449995.57344  22333019.664                    22333027.895
 120196396.396 7  93659613.87944  22872624.203                    22872632.926
 107365318.340 8  83661306.28646  20430941.656                    20430949.102
 122763027.284 7  95659538.69743  23361023.914                    23361034.195
 110520669.209 8  86119994.75046  21031383.336                    21031389.813
 130588584.574 5 101757379.76542  24850186.250                    24850197.289
 111622959.831 8  86978946.912 7  21241142.102                    21241149.188
 123779056.604 7  96451219.23144  23554367.969                    23554376.578
 11  8 23 16 45 30.0000000  0 11G10G23G06G03G08G13G11G19G16G07G28
 128992489.094 6 100513557.32643  24546428.875                    24546440.063
 114231789.702 8  89011802.48945  21737589.336                    21737596.488
 128050186.315 6  99779448.93543  24367156.938                    24367167.039
 117450454.795 7  91519900.35244  22350091.031                    22350099.152
 120124587.107 7  93603658.61744  22858959.234                    22858967.516
 107415178.806 8  83700158.56446  20440429.641                    20440436.898
 122686488.986 7  95599898.56344  23346459.695                    23346469.961
 110548452.081 7  86141643.73646  21036669.859                    21036676.363
 130673154.512 6 101823278.35542  24866281.531                    24866289.957
 111574158.370 8  86940919.825 7  21231855.336                    21231862.914
 123727099.034 7  96410732.86543  23544480.773                    23544489.215
 11  8 23 16 46  0.0000000  0 11G10G23G06G03G08G13G11G19G16G07G28
 129040652.149 5 100551086.97243  24555594.164                    24555604.852
 114325966.395 7  89085186.83745  21755510.406                    21755517.539
 128147308.249 6  99855128.29343  24385638.266                    24385648.750
 117540515.916 7  91590077.81444  22367228.953                    22367237.559
 120052750.988 7  93547682.46444  22845289.328                    22845297.555
 107465591.808 8  83739441.40246  20450022.984                    20450030.398
 122610045.670 7  95540332.43344  23331912.266                    23331923.227
 110576832.989 7  86163758.71646  21042070.969                    21042076.828
 130757622.225 6 101889097.22742  24882354.516                    24882363.816
 111525491.967 8  86902997.984 7  21222594.508                    21222601.824
 123675355.266 7  96370413.06144  23534634.336                    23534642.676
 11  8 23 16 46 30.0000000  0 10G10G23G06G03G08G13G11G19G07G28
 129089041.490 6 100588792.89043  24564802.867                    24564813.531
 114420481.971 8  89158835.25845  21773496.531                    21773503.426
 128244624.052 6  99930958.73343  24404156.969                    24404167.617
 117630924.308 7  91660525.86544  22384433.375                    22384442.086
 119980889.042 7  93491686.19144  22831614.258                    22831622.867
 107516555.881 8  83779153.63246  20459720.969                    20459728.855
 122533700.286 7  95480842.60844  23317384.563                    23317395.262
 110605811.177 8  86186339.11346  21047585.609                    21047591.352
 111476962.844 8  86865183.097 7  21213359.852                    21213367.383
 123623824.632 7  96330259.32944  23524828.117                    23524836.781
 11  8 23 16 47  0.0000000  0 10G10G23G06G03G08G13G11G19G07G28
 129137653.777 6 100626672.55443  24574053.023                    24574064.445
 114515333.062 7  89232745.11445  21791546.227                    21791553.293
 128342131.011 6 100006938.10643  24422711.617                    24422722.426
 117721677.183 7  91731242.36044  22401703.203                    22401712.270
 119909002.224 7  93435670.51544  22817934.773                    22817943.199
 107568069.198 8  83819293.84546  20469523.406                    20469531.121
 122457455.778 7  95421431.43844  23302875.672                    23302886.129
 110635385.057 8  86209383.68246  21053213.344                    21053219.594
 111428572.412 8  86827476.280 7  21204151.375                    21204158.797
 123572506.649 7  96290271.35444  23515062.633                    23515071.180
 11  8 23 16 47 30.0000000  0 10G10G23G06G03G08G13G11G19G07G28
 129186486.646 6 100664724.03343  24583345.641                    24583356.598
 114610517.793 8  89306914.94745  21809659.508                    21809666.496
 128439826.633 6 100083064.47743  24441303.258                    24441312.887
 117812771.359 7  91802224.78244  22419037.750                    22419046.340
 119837091.979 7  93379636.61244  22804250.477                    22804259.387
 107620130.578 8  83859861.12346  20479430.719                    20479437.988
 122381315.215 7  95362101.22944  23288386.438                    23288396.527
 110665553.893 8  86232891.85946  21058954.000                    21058959.941
 111380322.668 8  86789879.083 7  21194969.438                    21194976.750
 123521400.926 7  96250448.74344  23505337.344                    23505346.207
 11  8 23 16 48  0.0000000  0 10G10G23G06G03G08G13G11G19G07G28
 129235536.922 6 100702944.99343  24592680.086                    24592690.539
 114706033.084 7  89381342.35745  21827835.523                    21827842.785
 128537708.171 6 100159335.75543  24459929.766                    24459939.680
 117904204.135 7  91873471.04243  22436436.586                    22436445.340
 119765158.825 7  93323584.82744  22790561.938                    22790570.547
 107672738.160 8  83900854.01046  20489441.906                    20489449.301
 122305281.489 7  95302854.28444  23273917.289                    23273927.488
 110696316.199 8  86256862.48246  21064808.055                    21064813.703
 111332214.560 8  86752392.277 7  21185814.898                    21185822.258
 123470506.890 7  96210791.11444  23495652.523                    23495661.543
 11  8 23 16 48 30.0000000  0 10G10G23G06G03G08G13G11G19G07G28
 129284801.985 6 100741333.29843  24602055.078                    24602065.875
 114801876.102 8  89456025.15145  21846073.961                    21846080.652
 128635773.415 5 100235750.18143  24478590.586                    24478600.395
 117995972.958 7  91944979.17244  22453899.648                    22453908.926
 119693203.794 7  93267516.01044  22776869.313                    22776878.281
 107725890.696 8  83942271.53646  20499556.180                    20499564.207
 122229357.634 6  95243692.94444  23259469.930                    23259479.609
 110727670.986 8  86281294.77246  21070774.797                    21070780.707
 111284250.103 8  86715017.393 7  21176687.617                    21176694.691
 123419824.033 6  96171298.04244  23486007.484                    23486017.238
 11  8 23 16 49  0.0000000  0 10G10G23G06G03G08G13G11G19G07G28
 129334278.998 6 100779886.73943  24611470.375                    24611480.629
 114898044.186 8  89530961.23145  21864374.305                    21864381.176
 128734019.612 6 100312305.62443  24497286.406                    24497295.852
 118088074.615 7  92016746.66244  22471425.883                    22471434.484
 119621228.145 7  93211431.12944  22763172.969                    22763182.098
 107779586.237 8  83984112.18446  20509774.422                    20509782.285
 122153546.387 7  95184619.36144  23245043.461                    23245053.191
 110759616.692 8  86306187.52846  21076854.156                    21076859.703
 111236430.545 8  86677755.414 7  21167588.008                    21167594.879
 123369351.656 6  96131968.96943  23476403.375                    23476412.211
 11  8 23 16 49 30.0000000  0 10G10G23G06G03G08G13G11G19G07G28
 129383965.271 6 100818603.30843  24620924.773                    24620935.863
 114994535.122 8  89606148.87745  21882735.625                    21882742.320
 128832444.344 6 100389000.18342  24516015.430                    24516026.223
 118180506.378 6  92088771.38444  22489014.938                    22489024.418
 119549232.895 7  93155330.96445  22749472.516                    22749481.523
 107833823.653 8  84026375.07546  20520095.383                    20520102.898
 122077851.052 7  95125636.11744  23230638.992                    23230648.324
 110792152.346 8  86331539.98846  21083045.023                    21083050.820
 111188757.850 8  86640607.872 7  21158515.844                    21158523.113
 123319089.692 7  96092803.84844  23466839.039                    23466847.320
 11  8 23 16 50  0.0000000  0 10G10G23G06G03G08G13G11G19G07G28
 129433858.581 6 100857481.09743  24630419.469                    24630429.836
 115091345.069 7  89681585.10745  21901157.883                    21901164.348
 128931045.348 6 100465832.04242  24534779.703                    24534790.047
 118273265.261 6  92161050.98344  22506666.531                    22506675.852
 119477219.045 7  93099216.29844  22735769.117                    22735777.297
 107888600.862 8  84069058.59346  20530519.063                    20530526.766
 122002274.551 7  95066745.40844  23216256.898                    23216267.199
 110825276.609 7  86357351.09746  21089348.109                    21089354.410
 111141233.859 8  86603576.199 7  21149472.547                    21149479.805
 123269037.315 6  96053802.04143  23457313.688                    23457322.695
 11  8 23 16 50 30.0000000  0 10G10G23G06G03G08G13G11G19G07G28
 129483955.940 6 100896517.93843  24639952.836                    24639963.582
 115188471.715 7  89757268.10245  21919641.180                    21919647.125
 129029819.872 5 100542799.13543  24553575.406                    24553585.848
 118366348.406 6  92233583.26944  22524379.711                    22524388.910
 119405187.693 7  93043088.01945  22722061.875                    22722070.734
 107943916.648 8  84112161.76246  20541045.422                    20541052.988
 121926820.064 7  95007949.78044  23201898.648                    23201908.625
 110858988.340 7  86383619.97346  21095763.508                    21095769.406
 111093860.359 8  86566661.810 7  21140457.336                    21140464.684
 123219194.458 7  96014963.48944  23447829.195                    23447837.711
 11  8 23 16 51  0.0000000  0 10G10G23G06G03G08G13G11G19G07G28
 129534254.596 6 100935711.65243  24649523.836                    24649535.203
 115285911.988 7  89833195.51245  21938182.781                    21938189.617
 129128765.341 6 100619899.37642  24572404.555                    24572415.039
 118459752.615 7  92306365.71944  22542154.555                    22542163.191
 119333139.564 7  92986946.65345  22708351.609                    22708360.023
 107999768.721 8  84155682.81346  20551673.813                    20551681.648
 121851490.233 7  94949251.26244  23187563.750                    23187573.375
 110893285.800 8  86410345.26046  21102289.938                    21102296.094
 111046638.363 8  86529865.456 7  21131471.523                    21131479.031
 123169560.002 6  95976287.34044  23438384.000                    23438392.746
 11  8 23 16 51 30.0000000  0 10G10G23G06G03G08G13G11G19G07G28
 129584751.405 6 100975059.75142  24659133.781                    24659144.387
 115383663.375 8  89909365.33345  21956784.438                    21956791.281
 129227879.070 6 100697130.79043  24591264.844                    24591275.152
 118553475.485 7  92379396.49044  22559989.352                    22559997.980
 119261076.069 7  92930793.32044  22694638.813                    22694646.855
 108056155.433 8  84199620.47546  20562403.867                    20562411.434
 121776288.188 6  94890652.35343  23173253.398                    23173262.777
 110928167.624 8  86437525.89946  21108928.164                    21108934.375
 110999569.605 7  86493188.518 7  21122514.398                    21122521.703
 123120133.496 6  95937773.22744  23428978.555                    23428987.445
 11  8 23 16 52  0.0000000  0 10G10G23G06G03G08G13G11G19G07G28
 129635444.261 6 101014560.63843  24668780.133                    24668790.902
 115481723.018 7  89985775.34545  21975445.063                    21975451.531
 129327158.620 6 100774491.43443  24610157.453                    24610167.680
 118647513.524 7  92452672.86544  22577884.594                    22577893.336
 119188998.154 7  92874628.74045  22680922.336                    22680930.828
 108113074.946 8  84243973.32246  20573235.008                    20573242.785
 121701216.783 7  94832155.24344  23158967.383                    23158976.656
 110963632.661 8  86465160.99646  21115676.844                    21115682.871
 110952656.053 8  86456632.512 7  21113587.523                    21113594.664
 123070914.377 6  95899420.70843  23419611.891                    23419621.617
 11  8 23 16 52 30.0000000  0 10G10G23G06G03G08G13G11G19G07G28
 129686329.950 6 101054211.77943  24678463.734                    24678474.434
 115580088.071 7  90062423.34145  21994163.055                    21994170.285
 129426601.730 6 100851979.48443  24629080.867                    24629091.055
 118741864.076 7  92526192.72944  22595838.539                    22595847.680
 119116906.880 7  92818453.74945  22667203.781                    22667211.844
 108170525.756 8  84288740.16546  20584167.828                    20584175.457
 121626278.811 7  94773762.08944  23144707.461                    23144717.023
 110999679.302 8  86493249.28746  21122536.031                    21122541.996
 110905898.960 8  86420198.448 7  21104689.789                    21104697.008
 123021902.014 6  95861229.31444  23410285.547                    23410293.965
 11  8 23 16 53  0.0000000  0 10G10G23G06G03G08G13G11G19G07G28
 129737405.822 6 101094011.10542  24688182.469                    24688193.336
 115678755.955 7  90139307.30045  22012939.016                    22012946.578
 129526205.743 6 100929592.94944  24648035.383                    24648045.637
 118836524.559 7  92599954.12244  22613851.594                    22613860.574
 119044803.565 7  92762269.38144  22653482.930                    22653491.738
 108228506.360 8  84333919.81346  20595201.133                    20595208.316
 121551477.987 7  94715475.76844  23130472.844                    23130483.211
 111036306.405 8  86521789.89246  21129505.922                    21129511.859
 110859300.622 8  86383888.062 7  21095822.297                    21095829.871
 122973096.189 7  95823198.89244  23400997.820                    23401006.840
 11  8 23 16 53 30.0000000  0 10G10G23G06G03G08G13G11G19G07G28
 129788669.118 6 101133956.45143  24697938.055                    24697948.684
 115777723.672 7  90216424.91245  22031772.266                    22031778.535
 129625968.515 6 101007330.14343  24667019.234                    24667029.934
 118931492.048 7  92673954.69144  22631923.523                    22631932.738
 118972689.218 7  92706076.42544  22639759.852                    22639768.250
 108287014.929 8  84379510.86746  20606334.977                    20606342.391
 121476817.127 7  94657298.49644  23116265.219                    23116275.398
 111073512.559 8  86550781.69146  21136586.055                    21136592.477
 110812862.677 8  86347702.668 7  21086985.531                    21086992.625
 122924496.168 7  95785328.79644  23391749.828                    23391758.840
 11  8 23 16 54  0.0000000  0 10G10G23G06G03G08G13G11G19G07G28
 129840117.233 6 101174045.82243  24707728.930                    24707739.512
 115876988.315 7  90293773.90345  22050661.781                    22050668.328
 129725887.122 6 101085188.69643  24686032.766                    24686043.516
 119026763.578 6  92748192.16044  22650053.352                    22650063.320
 118900564.930 7  92649875.69444  22626035.141                    22626043.434
 108346049.481 8  84425511.78346  20617568.938                    20617576.547
 121402299.153 7  94599232.60343  23102084.688                    23102094.867
 111111296.028 7  86580223.34646  21143775.906                    21143781.973
 110766586.666 8  86311643.447 7  21078179.250                    21078186.707
 122876101.425 7  95747618.65544  23382540.727                    23382548.789
 11  8 23 16 54 30.0000000  0 10G10G23G06G03G08G13G11G19G07G28
 129891747.210 6 101214276.95843  24717553.141                    24717564.176
 115976547.035 7  90371352.03045  22069607.289                    22069613.934
 129825959.244 6 101163166.89543  24705076.539                    24705086.781
 119122335.981 7  92822664.13243  22668240.070                    22668248.508
 118828432.195 7  92593668.39044  22612308.016                    22612317.199
 108405607.927 8  84471920.93246  20628902.758                    20628910.176
 121327927.061 7  94541280.37844  23087932.313                    23087942.082
 111149655.218 8  86610113.62646  21151075.508                    21151081.320
 110720474.096 8  86275711.597 7  21069404.570                    21069411.719
 122827911.155 7  95710067.82744  23373370.078                    23373378.461
 11  8 23 16 55  0.0000000  0 10G10G23G06G03G08G13G11G19G07G28
 129943556.163 6 101254647.53042  24727412.297                    24727422.594
 116076396.963 7  90449157.05045  22088607.422                    22088614.906
 129926182.242 6 101241262.66443  24724148.195                    24724159.004
 119218206.350 6  92897368.27043  22686482.719                    22686491.973
 118756291.701 7  92537455.05744  22598580.406                    22598588.652
 108465688.322 8  84518736.78646  20640335.438                    20640343.047
 121253703.699 6  94483444.03943  23073808.391                    23073817.520
 111188588.303 8  86640451.09046  21158484.359                    21158490.633
 110674526.589 8  86239908.367 7  21060661.063                    21060667.773
 122779924.625 6  95672675.75344  23364238.992                    23364247.402
 11  8 23 16 55 30.0000000  0 10G10G23G06G03G08G13G11G19G07G28
 129995541.999 6 101295155.89843  24737305.070                    24737315.148
 116176535.226 7  90527186.76045  22107663.578                    22107670.988
 130026553.862 6 101319474.23743  24743248.891                    24743258.977
 119314371.842 7  92972302.36943  22704783.172                    22704792.379
 118684145.050 7  92481236.93244  22584851.703                    22584859.695
 108526289.196 8  84565958.21446  20651867.352                    20651874.543
 121179632.073 7  94425725.92144  23059712.992                    23059722.215
 111228094.447 8  86671235.08846  21166002.250                    21166008.129
 110628746.246 8  86204235.382 7  21051949.281                    21051956.211
 122732141.765 7  95635442.39344  23355146.141                    23355153.727
 11  8 23 16 56  0.0000000  0 10G10G23G06G03G08G13G11G19G07G28
 130047701.418 6 101335799.57742  24747230.531                    24747241.801
 116276959.303 8  90605439.19645  22126774.313                    22126781.379
 130127071.632 6 101397799.71043  24762376.313                    24762386.527
 119410829.567 7  93047464.16943  22723137.914                    22723147.883
 118611993.475 7  92425014.94444  22571121.539                    22571129.672
 108587408.610 8  84613583.69446  20663498.422                    20663505.371
 121105715.646 7  94368128.74744  23045646.844                    23045656.684
 111268172.000 8  86702464.33546  21173628.594                    21173634.305
 110583134.708 7  86168693.939 7  21043269.758                    21043276.809
 122684561.602 6  95598366.96543  23346091.133                    23346099.484
 11  8 23 16 56 30.0000000  0 11G10G23G06G03G01G08G13G11G19G07G28
 130100031.790 6 101376576.39143  24757188.875                    24757198.891
 116377665.834 7  90683911.73645  22145937.883                    22145945.355
 130227732.680 6 101476236.82942  24781531.688                    24781541.711
 119507576.724 6  93122851.47743  22741548.672                    22741558.141
 129723896.45515 101083675.20516  24685649.414                    24685663.945
 118539837.876 7  92368789.83045  22557390.953                    22557399.000
 108649044.270 8  84661611.44246  20675226.766                    20675234.684
 121031957.078 7  94310654.56944  23031611.211                    23031620.543
 111308818.878 8  86734137.21646  21181363.859                    21181369.336
 110537693.358 8  86133285.111 7  21034622.492                    21034629.516
 122637183.458 7  95561448.93144  23337075.844                    23337084.438
 11  8 23 16 57  0.0000000  0 11G10G23G06G03G01G08G13G11G19G07G28
 130152529.797 6 101417483.82943  24767178.484                    24767189.941
 116478652.039 7  90762602.18145  22165154.242                    22165162.363
 130328534.73315 101554783.80052  24800713.109                    24800724.938
 119604610.351 7  93198462.05944  22760013.297                    22760022.844
 129649593.479 6 101025776.918 6  24671509.516                    24671525.375
 118467679.397 7  92312562.50044  22543659.297                    22543668.578
 108711194.355 8  84710040.04246  20687053.563                    20687061.785
 120958359.442 7  94253305.81144  23017606.375                    23017615.395
 111350033.414 8  86766252.42746  21189206.828                    21189212.418
 110492423.983 8  86098010.281 7  21026008.000                    21026014.902
 122590006.589 7  95524687.77144  23328098.320                    23328106.637
 11  8 23 16 57 30.0000000  0 11G10G23G06G03G01G08G13G11G19G07G28
 130205193.250 6 101458520.26843  24777200.523                    24777211.980
 116579915.227 7  90841508.46145  22184424.656                    22184432.059
 130429475.604 5 101633438.90442  24819921.297                    24819932.797
 119701927.835 7  93274293.81344  22778532.938                    22778542.078
 129575174.000 5 100967787.807 6  24657346.648                    24657364.770
 118395519.881 7  92256334.32545  22529928.070                    22529936.098
 108773857.071 8  84758868.08746  20698978.156                    20698986.008
 120884925.849 7  94196084.89844  23003631.914                    23003642.227
 111391814.397 7  86798809.01946  21197156.773                    21197163.121
 110447328.687 8  86062871.099 7  21017426.758                    21017433.852
 122543030.946 7  95488083.40844  23319159.453                    23319167.906
 11  8 23 16 58  0.0000000  0 11G10G23G06G03G01G08G13G11G19G07G28
 130258019.136 6 101499683.22543  24787252.773                    24787263.832
 116681452.564 7  90920628.35245  22203746.781                    22203754.039
 130530552.51515 101712200.13052  24839155.516                    24839167.793
 119799526.073 7  93350344.33644  22797105.570                    22797114.113
 129500640.83815 100909709.74716  24643164.844                    24643181.906
 118323360.004 7  92200105.86844  22516196.680                    22516205.004
 108837030.534 8  84808094.11746  20710999.891                    20711006.898
 120811659.388 7  94138994.19344  22989690.594                    22989700.063
 111434159.966 7  86831805.54746  21205215.375                    21205221.477
 110402409.197 7  86027868.904 7  21008878.539                    21008885.848
 122496255.598 7  95451635.11644  23310258.289                    23310266.469
 11  8 23 16 58 30.0000000  0 11G10G23G06G03G01G08G13G11G19G07G28
 130311004.724 6 101540970.61543  24797335.938                    24797347.078
 116783261.127 7  90999959.59845  22223120.617                    22223127.492
 130631763.157 5 101791065.46242  24858415.984                    24858427.043
 119897402.047 7  93426611.27544  22815730.859                    22815739.336
 129425994.99615 100851544.74116  24628958.695                    24628977.230
 118251201.158 7  92143878.23845  22502464.789                    22502473.668
 108900712.376 8  84857716.29446  20723118.172                    20723125.758
 120738562.913 7  94082035.96544  22975780.211                    22975789.223
 111477068.481 8  86865240.74046  21213380.156                    21213386.191
 110357667.027 8  85993004.885 7  21000364.453                    21000371.676
 122449679.667 7  95415342.23544  23301394.859                    23301403.699
 11  8 23 16 59  0.0000000  0 10G10G23G03G01G08G13G11G19G07G28
 130364147.627 6 101582380.60443  24807448.203                    24807459.523
 116885338.250 7  91079500.11544  22242545.156                    22242552.484
 119995553.194 7  93503092.62044  22834408.211                    22834417.574
 129351240.87215 100793294.89115  24614733.984                    24614752.027
 118179044.472 7  92087652.28344  22488734.297                    22488742.113
 108964900.763 8  84907733.17646  20735332.555                    20735340.082
 120665639.539 7  94025212.61744  22961902.523                    22961911.570
 111520538.482 8  86899113.45846  21221652.672                    21221658.184
 110313104.227 8  85958280.636 7  20991884.547                    20991891.910
 122403302.730 7  95379204.41344  23292569.719                    23292578.051
 11  8 23 16 59 30.0000000  0 10G10G23G03G01G08G13G11G19G07G28
 130417444.945 6 101623910.88042  24817590.766                    24817602.211
 116987680.905 7  91159247.51045  22262020.109                    22262028.000
 120093976.311 7  93579785.92444  22853136.758                    22853146.625
 129276380.287 6 100734962.047 5  24600489.531                    24600505.195
 118106891.800 7  92031429.45244  22475003.734                    22475012.070
 109029593.872 8  84958143.34746  20747643.258                    20747651.449
 120592892.546 7  93968526.70144  22948059.711                    22948069.023
 111564568.078 7  86933422.22346  21230030.820                    21230036.965
 110268722.607 7  85923697.549 7  20983438.367                    20983446.215
 122357124.307 6  95343221.27044  23283781.664                    23283790.461
 11  8 23 17  0  0.0000000  0 10G10G23G03G01G08G13G11G19G07G28
 130470893.413 6 101665558.97843  24827761.797                    24827772.973
 117090285.973 7  91239199.40345  22281545.922                    22281553.102
 120192668.617 6  93656688.94844  22871918.359                    22871927.492
 129201415.646 5 100676548.181 5  24586223.891                    24586239.152
 118034743.806 7  91975210.25845  22461274.641                    22461282.672
 109094789.349 8  85008944.97646  20760050.008                    20760057.430
 120520324.664 7  93911980.35044  22934250.648                    22934260.098
 111609155.350 7  86968165.52746  21238515.875                    21238522.082
 110224523.594 8  85889256.760 7  20975028.266                    20975035.363
 122311143.352 6  95307391.97444  23275031.672                    23275039.980
 11  8 23 17  0 30.0000000  0 10G10G23G03G01G08G13G11G19G07G28
 130524490.436 6 101707322.83843  24837960.758                    24837972.211
 117193150.344 7  91319353.35344  22301120.063                    22301128.063
 120291626.949 7  93733799.28944  22890749.625                    22890758.820
 129126349.638 6 100618055.255 6  24571938.578                    24571955.188
 117962601.965 7  91918995.86345  22447546.188                    22447554.695
 109160484.988 8  85060136.33946  20772551.430                    20772558.855
 120447938.999 7  93855575.99544  22920476.070                    22920485.387
 111654298.625 8  87003342.09146  21247106.367                    21247112.293
 110180509.084 8  85854959.740 7  20966652.656                    20966659.813
 122265359.300 7  95271716.10744  23266320.344                    23266327.648
 11  8 23 17  1  0.0000000  0 11G10G23G24G03G01G08G13G11G19G07G28
 130578233.224 5 101749200.24943  24848187.820                    24848199.598
 117296271.597 7  91399707.46845  22320743.289                    22320751.227
 128097176.44616  99816062.02353  24376088.602                    24376103.492
 120390848.548 6  93811114.76444  22909631.016                    22909639.648
 129051184.608 6 100559485.130 5  24557635.914                    24557653.145
 117890467.455 7  91862787.18645  22433819.391                    22433827.887
 109226678.607 8  85111715.74246  20785147.664                    20785155.273
 120375738.475 7  93799315.93944  22906735.977                    22906745.930
 111699996.043 7  87038950.45346  21255801.891                    21255808.074
 110136681.030 8  85820808.012 7  20958311.969                    20958319.859
 122219771.569 7  95236193.20944  23257645.000                    23257652.664
 11  8 23 17  1 30.0000000  0 11G10G23G24G03G01G08G13G11G19G07G28
 130632118.605 6 101791188.80243  24858441.641                    24858453.371
 117399646.337 7  91480259.12245  22340414.734                    22340422.617
 128025760.239 6  99760413.11643  24362498.672                    24362513.699
 120490330.324 6  93888632.94044  22928561.047                    22928571.438
 128975922.867 6 100500839.740 6  24543313.914                    24543329.703
 117818341.312 7  91806585.00745  22420094.531                    22420102.613
 109293367.882 8  85163681.37246  20797837.898                    20797845.738
 120303725.577 7  93743202.03644  22893032.336                    22893042.715
 111746245.393 7  87074988.88846  21264603.164                    21264609.355
 110093040.502 8  85786802.401 7  20950007.555                    20950014.891
 122174378.839 7  95200822.28644  23249006.734                    23249015.270
 11  8 23 17  2  0.0000000  0 11G10G23G24G03G01G08G13G11G19G07G28
 130686144.175 5 101833286.48543  24868723.039                    24868733.836
 117503272.021 7  91561006.29545  22360134.469                    22360142.305
 127954267.398 5  99704704.55542  24348893.492                    24348908.359
 120590069.698 6  93966351.88244  22947540.977                    22947550.902
 128900568.204 6 100442121.911 6  24528973.930                    24528990.750
 117746225.381 7  91750390.78245  22406370.953                    22406379.523
 109360551.295 8  85216032.03146  20810622.555                    20810630.266
 120231904.056 7  93687237.27344  22879365.750                    22879374.977
 111793045.445 8  87111456.44546  21273509.000                    21273514.996
 110049589.950 8  85752944.841 7  20941739.516                    20941746.328
 122129180.969 7  95165603.20944  23240405.766                    23240414.234
 11  8 23 17  2 30.0000000  0 11G10G23G24G03G01G08G13G11G19G07G28
 130740307.252 6 101875491.45842  24879029.813                    24879041.109
 117607145.666 7  91641946.67445  22379901.086                    22379908.930
 127882700.79215  99648938.50352  24335274.328                    24335290.109
 120690063.706 6  94044269.23743  22966568.883                    22966578.262
 128825122.243 6 100383332.935 6  24514617.422                    24514635.211
 117674121.259 7  91694205.77545  22392650.734                    22392658.734
 109428226.668 8  85268766.03346  20823500.461                    20823508.211
 120160277.284 7  93631424.27944  22865735.266                    22865744.336
 111840394.149 8  87148351.52746  21282519.344                    21282524.711
 110006331.026 8  85719236.595 7  20933507.367                    20933514.469
 122084177.306 6  95130535.49344  23231841.609                    23231850.496
 11  8 23 17  3  0.0000000  0 11G10G23G24G03G01G08G13G11G19G07G28
 130794604.841 6 101917801.18843  24889361.531                    24889373.906
 117711264.198 7  91723077.89045  22399713.969                    22399722.133
 127811063.27015  99593116.76952  24321640.977                    24321658.430
 120790309.180 7  94122382.54144  22985646.063                    22985655.098
 128749587.917 6 100324475.123 7  24500243.711                    24500260.566
 117602029.891 7  91638030.70045  22378931.531                    22378939.602
 109496391.149 8  85321881.16946  20836472.148                    20836480.297
 120088847.826 7  93575765.02644  22852143.047                    22852152.102
 111888289.164 8  87185672.30346  21291633.367                    21291639.387
 109963265.533 8  85685679.066 7  20925312.414                    20925319.527
 122039366.974 6  95095618.42444  23223313.758                    23223323.484
 11  8 23 17  3 30.0000000  0 11G10G23G24G03G01G08G13G11G19G07G28
 130849034.294 6 101960213.68142  24899720.188                    24899730.551
 117815625.215 7  91804398.02745  22419573.633                    22419581.289
 127739356.26515                  24307997.398
 120890803.922 6  94200690.09244  23004769.109                    23004778.473
 128673968.156 6 100265550.758 7  24485853.703                    24485869.820
 117529952.664 7  91581866.63245  22365216.008                    22365223.949
 109565043.122 8  85375376.16946  20849536.078                    20849544.391
 120017618.721 7  93520261.87744  22838588.383                    22838597.840
 111936729.298 7  87223417.84446  21300850.875                    21300857.129
 109920395.480 8  85652273.831 7  20917154.352                    20917161.754
 121994749.334 6  95060851.49844  23214824.117                    23214833.004
 11  8 23 17  4  0.0000000  0 11G10G23G24G03G01G08G13G11G19G07G28
 130903592.714 6 102002726.67043  24910101.852                    24910113.352
 117920225.186 7  91885904.36245  22439478.656                    22439486.129
 127667583.99316                  24294339.313
 120991544.566 6  94279189.18943  23023938.078                    23023948.906
 128598265.176 6 100206561.524 7  24471448.203                    24471464.426
 117457891.008 7  91525714.72445  22351503.094                    22351511.195
 109634180.326 8  85429249.26446  20862692.734                    20862700.301
 119946592.766 7  93464917.05944  22825073.063                    22825082.199
 111985712.449 7  87261586.51846  21310172.266                    21310178.121
 109877722.454 8  85619022.138 7  20909034.180                    20909041.277
 121950324.072 7  95026234.45244  23206370.336                    23206378.820
 11  8 23 17  4 30.0000000  0 11G10G23G24G03G01G08G13G11G19G07G28
 130958277.408 6 102045338.04143  24920508.227                    24920519.949
 118025061.595 7  91967594.96744  22459428.125                    22459435.480
 127595748.572 6                  24280669.289
 121092528.416 6  94357877.84343  23043156.000                    23043165.508
 128522481.854 6 100147509.733 7  24457026.672                    24457043.813
 117385846.495 7  91469576.17345  22337793.867                    22337801.691
 109703800.401 8  85483498.62946  20875941.211                    20875948.563
 119875773.496 7  93409733.30544  22811596.102                    22811605.688
 112035236.532 7  87300176.69346  21319596.453                    21319602.602
 109835248.530 7  85585925.584 7  20900951.430                    20900958.613
 121906090.020 7  94991766.39844  23197952.781                    23197961.313
 11  8 23 17  5  0.0000000  0 10G23G24G03G01G08G13G11G19G07G28
 118130131.318 7  92049467.36245  22479422.977                    22479430.406
 127523853.114 6  99369317.21452  24266988.422                    24267002.707
 121193752.810 7  94436753.89843  23062418.398                    23062427.156
 128446621.050 6 100088397.516 7  24442589.289                    24442607.137
 117313820.850 7  91413452.31745  22324087.227                    22324095.441
 109773901.546 8  85538122.85046  20889280.734                    20889288.340
 119805163.939 7  93354712.92044  22798159.273                    22798169.617
 112085300.060 7  87339187.21846  21329123.539                    21329129.512
 109792975.557 7  85552985.606 7  20892907.406                    20892914.535
 121862046.587 7  94957446.84944  23189571.977                    23189580.141
 11  8 23 17  5 30.0000000  0 10G23G24G03G01G08G13G11G19G07G28
 118235431.507 7  92131519.34045  22499460.492                    22499468.199
 127451899.911 6  99313249.85943  24253296.219                    24253310.953
 121295214.366 6  94515814.77943  23081726.758                    23081735.371
 128370684.986 6 100029226.722 6  24428140.023                    24428156.730
 117241814.881 7  91357343.81045  22310385.461                    22310393.828
 109844480.798 8  85593119.61646  20902711.781                    20902719.477
 119734766.977 7  93299858.20344  22784762.680                    22784772.836
 112135900.282 7  87378615.95346  21338752.297                    21338758.102
 109750904.932 8  85520203.307 7  20884901.203                    20884908.520
 121818192.590 7  94923274.92144  23181226.453                    23181234.371
 11  8 23 17  6  0.0000000  0 10G23G24G03G01G08G13G11G19G07G28
 118340958.975 7  92213748.39344  22519540.820                    22519549.785
 127379891.577 6  99257139.60943  24239593.234                    24239608.188
 121396910.157 7  94595058.22243  23101077.969                    23101086.516
 128294676.027 5  99969999.124 7  24413675.914                    24413692.523
 117169829.687 7  91301251.47345  22296686.797                    22296695.496
 109915535.601 8  85648486.95046  20916232.914                    20916240.879
 119664585.125 6  93245171.08844  22771408.477                    22771417.313
 112187035.255 7  87418461.37546  21348482.766                    21348488.816
 109709038.285 8  85487579.965 7  20876934.656                    20876942.195
 121774527.446 7  94889250.16444  23172917.031                    23172925.184
 11  8 23 17  6 30.0000000  0 10G23G24G03G01G08G13G11G19G07G28
 118446711.006 7  92296152.40744  22539665.609                    22539674.273
 127307831.114 6  99200988.66143  24225880.523                    24225895.414
 121498837.594 7  94674482.15843  23120474.367                    23120483.402
 128218598.127 5  99910717.792 7  24399197.391                    24399215.793
 117097867.501 7  91245177.07345  22282992.758                    22283001.379
 109987064.428 8  85704223.64946  20929844.234                    20929852.074
 119594621.953 7  93190654.39744  22758094.555                    22758103.254
 112238703.424 7  87458722.27246  21358314.984                    21358321.336
 109667378.201 8  85455117.559 7  20869007.070                    20869013.984
 121731050.688 7  94855372.19044  23164643.797                    23164652.227
 11  8 23 17  7  0.0000000  0 10G23G24G03G01G08G13G11G19G07G28
 118552684.616 7  92378729.09844  22559831.734                    22559839.938
 127235721.621 6  99144799.58043  24212158.742                    24212173.180
 121600993.997 7  94754084.50343  23139913.906                    23139922.801
 128142453.429 6  99851384.377 6  24384708.945                    24384725.793
 117025929.397 7  91189121.43345  22269303.219                    22269311.902
 110059065.017 8  85760327.95346  20943545.922                    20943553.477
 119524880.471 7  93136310.46044  22744823.195                    22744832.000
 112290902.903 8  87499397.18146  21368248.219                    21368253.938
 109625926.474 8  85422817.518 7  20861118.875                    20861125.734
 121687761.702 7  94821640.54144  23156406.039                    23156415.109
 11  8 23 17  7 30.0000000  0 10G23G24G03G01G08G13G11G19G07G28
 118658876.854 7  92461476.18744  22580039.773                    22580047.512
 127163565.299 6  99088574.00243  24198427.188                    24198442.789
 121703376.281 7  94833862.83043  23159396.180                    23159406.320
 128066244.434 6  99792000.910 6  24370206.727                    24370222.527
 116954016.672 7  91133085.57345  22255618.883                    22255627.305
 110131534.562 8  85816797.66746  20957336.328                    20957343.613
 119455363.602 7  93082141.54244  22731594.727                    22731603.309
 112343631.104 8  87540484.07646  21378281.781                    21378288.352
 109584684.340 8  85390680.797 7  20853270.500                    20853277.309
 121644659.257 7  94788054.27544  23148203.781                    23148212.398
 11  8 23 17  8  0.0000000  0 10G23G24G03G01G08G13G11G19G07G28
 118765285.012 7  92544391.53544  22600288.922                    22600296.547
 127091365.319 5  99032314.44643  24184687.781                    24184703.043
 121805981.606 7  94913814.99043  23178922.305                    23178931.520
 127989974.104 6  99732569.607 6  24355692.289                    24355708.648
 116882131.159 7  91077070.89445  22241939.156                    22241947.875
 110204470.956 8  85873631.16546  20971215.508                    20971223.664
 119386074.301 7  93028149.95744  22718409.258                    22718418.180
 112396886.192 8  87581981.51946  21388416.078                    21388422.262
 109543654.350 8  85358709.386 7  20845463.102                    20845470.418
 121601742.835 7  94754612.94544  23140037.359                    23140045.953
 11  8 23 17  8 30.0000000  0 10G23G24G03G01G08G13G11G19G07G28
 118871906.071 7  92627472.77044  22620577.930                    22620585.906
 127019124.174 5  98976022.82042  24170940.453                    24170956.418
 121908807.250 6  94993938.75844  23198489.328                    23198499.074
 127913645.040 6  99673092.475 6  24341167.742                    24341185.188
 116810274.330 7  91021078.57045  22228265.430                    22228273.574
 110277871.954 8  85930826.69346  20985183.367                    20985191.410
 119317016.060 7  92974338.41344  22705267.773                    22705276.766
 112450666.221 8  87623888.01246  21398650.250                    21398656.625
 109502838.247 8  85326904.644 7  20837695.813                    20837702.887
 121559011.839 7  94721316.08445  23131906.563                    23131914.492
 11  8 23 17  9  0.0000000  0 10G23G24G03G01G08G13G11G19G07G28
 118978736.638 6  92710717.19344  22640907.352                    22640915.980
 126946844.784 6  98919701.40543  24157186.438                    24157201.668
 122011850.252 6  95074231.97443  23218097.445                    23218107.539
 127837259.628 6  99613571.498 6  24326632.195                    24326648.840
 116738447.613 7  90965109.72245  22214596.813                    22214605.984
 110351734.847 8  85988382.16346  20999239.297                    20999246.652
 119248191.385 7  92920708.86144  22692170.688                    22692180.070
 112504968.880 8  87666201.75846  21408983.750                    21408989.305
 109462237.396 8  85295267.619 7  20829969.930                    20829976.734
 121516465.170 7  94688162.88444  23123809.688                    23123818.109
 11  8 23 17  9 30.0000000  0 10G23G24G03G01G08G13G11G19G07G28
 119085774.130 7  92794122.85745  22661276.016                    22661284.117
 126874529.821 6  98863352.19043  24143425.641                    24143440.207
 122115107.566 6  95154692.10243  23237746.602                    23237756.832
 127760820.752 6  99554008.891 6  24312086.711                    24312101.359
 116666652.193 7  90909165.26045  22200934.578                    22200943.125
 110426057.097 8  86046295.54046  21013382.320                    21013390.152
 119179603.290 7  92867263.64144  22679119.367                    22679127.539
 112559791.991 8  87708921.03546  21419416.078                    21419421.969
 109421853.587 8  85263799.704 7  20822284.969                    20822292.008
 121474102.161 7  94655152.75644  23115748.367                    23115756.402
 11  8 23 17 10  0.0000000  0 10G23G24G03G01G08G13G11G19G07G28
 119193015.473 7  92877687.38045  22681683.758                    22681691.434
 126802182.068 6  98806977.44043  24129657.719                    24129671.668
 122218576.871 6  95235317.43543  23257436.836                    23257446.176
 127684331.188 6  99494406.751 6  24297531.281                    24297547.051
 116594889.829 7  90853246.54245  22187278.820                    22187287.219
 110500836.323 8  86104565.00345  21027612.375                    21027619.828
 119111254.835 7  92814005.17044  22666112.750                    22666121.305
 112615133.322 8  87752044.13946  21429947.102                    21429953.207
 109381689.134 8  85232502.736 7  20814642.164                    20814649.598
 121431921.708 7  94622284.89444  23107721.219                    23107729.281
 11  8 23 17 10 30.0000000  0 10G23G24G03G01G08G13G11G19G07G28
 119300457.920 7  92961408.63344  22702129.500                    22702137.355
 126729804.841 7  98750579.74043  24115885.547                    24115899.414
 122322254.775 6  95316105.32743  23277164.828                    23277175.777
 127607794.368 5  99434767.883 6  24282964.898                    24282981.945
 116523162.241 7  90797354.93945  22173629.367                    22173638.090
 110576070.651 8  86163189.09946  21041928.867                    21041936.883
 119043149.385 7  92760936.07344  22653152.797                    22653161.719
 112670991.067 8  87795569.63846  21440576.531                    21440582.711
 109341746.096 8  85201378.295 7  20807041.078                    20807048.320
 121389923.578 7  94589559.09844  23099729.430                    23099737.418
 11  8 23 17 11  0.0000000  0 10G23G24G03G01G08G13G11G19G07G28
 119408098.177 7  93045284.03644  22722612.617                    22722620.617
 126657400.493 6  98694160.85043  24102106.773                    24102121.387
 122426138.852 6  95397053.88144  23296934.633                    23296943.883
 127531211.976 5  99375093.582 6  24268390.734                    24268408.309
 116451470.756 7  90741491.46945  22159987.234                    22159995.895
 110651757.178 8  86222165.56845  21056331.641                    21056339.508
 118975289.920 7  92708058.61344  22640239.000                    22640247.848
 112727362.782 8  87839495.62346  21451303.719                    21451309.895
 109302026.018 7  85170427.578 7  20799482.633                    20799489.816
 121348106.540 6  94556974.40844  23091771.688                    23091779.754
 11  8 23 17 11 30.0000000  0 10G23G24G03G01G08G13G11G19G07G28
 119515933.317 7  93129311.29644  22743132.258                    22743141.313
 126584971.684 6  98637722.99343  24088323.617                    24088338.012
 122530226.036 6  95478160.61343  23316741.633                    23316751.715
 127454587.589 6  99315386.503 7  24253810.625                    24253827.453
 116379817.331 7  90685657.65445  22146351.898                    22146360.336
 110727893.535 8  86281492.53946  21070820.008                    21070828.188
 118907679.013 7  92655374.84644  22627372.984                    22627381.969
 112784246.379 7  87883820.47546  21462128.352                    21462134.539
 109262530.766 8  85139652.045 7  20791966.953                    20791973.832
 121306470.071 7  94524530.42344  23083848.625                    23083856.742
 11  8 23 17 12  0.0000000  0 10G23G24G03G01G08G13G11G19G07G28
 119623961.046 7  93213488.60444  22763689.828                    22763698.773
 126512521.582 6  98581268.56743  24074536.422                    24074551.129
 122634513.549 6  95559423.61043  23336586.430                    23336596.523
 127377923.645 6  99255648.486 7  24239222.859                    24239239.199
 116308203.233 7  90629854.46945  22132724.219                    22132732.281
 110804477.495 8  86341168.29346  21085393.570                    21085401.723
 118840319.901 7  92602887.30444  22614555.250                    22614563.836
 112841639.789 8  87928542.59946  21473050.148                    21473055.680
 109223262.503 8  85109053.403 7  20784494.750                    20784501.688
 121265013.486 7  94492226.62044  23075959.781                    23075967.805
 11  8 23 17 12 30.0000000  0 10G23G24G03G01G08G13G11G19G07G28
 119732177.681 7  93297813.09644  22784283.305                    22784292.367
 126440052.920 6  98524799.69143  24060746.672                    24060761.551
 122738998.744 7  95640840.52443  23356469.406                    23356479.695
 127301223.004 6  99195881.922 6  24224626.516                    24224643.168
 116236629.978 7  90574083.13245  22119104.328                    22119112.523
 110881506.364 8  86401190.73246  21100051.453                    21100059.684
 118773215.653 7  92550598.34344  22601785.938                    22601794.387
 112899540.449 7  87973659.99046  21484068.219                    21484073.879
 109184222.801 7  85078632.845 7  20777065.438                    20777072.707
 121223735.552 7  94460062.00144  23068104.875                    23068113.129
 11  8 23 17 13  0.0000000  0 10G23G24G03G01G08G13G11G19G07G28
 119840580.340 7  93382282.53445  22804912.242                    22804920.594
 126367568.430 6  98468318.49843  24046952.094                    24046967.395
 122843678.439 6  95722409.06043  23376389.969                    23376399.746
 127224488.482 7  99136088.985 6  24210025.180                    24210040.469
 116165099.006 7  90518344.72345  22105492.430                    22105501.234
 110958977.228 7  86461557.58145  21114793.930                    21114801.797
 118706368.935 7  92498510.02944  22589064.781                    22589073.820
 112957946.023 8  88019170.81546  21495183.055                    21495188.438
 109145413.320 7  85048391.692 7  20769680.172                    20769687.395
 121182635.493 7  94428036.00244  23060284.445                    23060292.750
 11  8 23 17 13 30.0000000  0 10G23G24G03G01G08G13G11G19G07G28
 119949166.431 7  93466894.90644  22825575.578                    22825583.586
 126295071.250 6  98411827.35443  24033156.680                    24033171.598
 122948550.211 6  95804127.21943  23396346.625                    23396356.492
 127147722.924 6  99076271.808 6  24195416.133                    24195432.047
 116093612.404 7  90462640.90045  22091889.117                    22091897.480
 111036888.022 8  86522267.22246  21129619.922                    21129627.363
 118639783.029 7  92446624.94844  22576393.914                    22576403.695
 113016855.021 8  88065073.89946  21506392.594                    21506398.559
 109106836.465 8  85018331.781 7  20762339.250                    20762346.250
 121141712.458 7  94396147.96544  23052496.281                    23052504.703
 11  8 23 17 14  0.0000000  0 10G23G24G03G01G08G13G11G19G07G28
 120057933.030 7  93551647.93644  22846272.711                    22846281.332
 126222564.264 6  98355328.61843  24019359.688                    24019373.508
 123053611.301 6  95885992.95743  23416339.398                    23416348.395
 127070929.153 6  99016432.558 6  24180803.258                    24180817.922
 116022171.246 7  90406972.48345  22078294.109                    22078303.156
 111115236.331 8  86583317.79046  21144529.188                    21144537.109
 118573461.204 7  92394945.66144  22563773.602                    22563782.941
 113076264.669 8  88111367.12246  21517697.750                    21517703.699
 109068494.134 8  84988454.620 7  20755043.094                    20755050.367
 121100965.962 7  94364397.51544  23044742.094                    23044750.246
 11  8 23 17 14 30.0000000  0 10G23G24G03G01G08G13G11G19G07G28
 120166876.826 7  93636539.05644  22867003.117                    22867012.363
 126150050.052 6  98298824.26343  24005560.109                    24005574.359
 123158858.571 7  95968003.74543  23436367.688                    23436376.910
 126994109.436 6  98956573.199 6  24166184.617                    24166199.895
 115950777.325 7  90351340.87945  22064708.617                    22064716.875
 111194019.285 8  86644707.05145  21159521.180                    21159529.207
 118507406.046 7  92343474.14644  22551203.570                    22551212.852
 113136172.750 7  88158048.71145  21529097.977                    21529103.855
 109030388.034 7  84958761.556 8  20747791.656                    20747799.059
 121060395.218 7  94332783.97144  23037022.352                    23037030.391
 11  8 23 17 15  0.0000000  0 10G23G24G03G01G08G13G11G19G07G28
 120275994.925 7  93721566.00544  22887768.586                    22887776.828
 126077531.732 6  98242316.65043  23991760.984                    23991774.758
 123264289.473 6  96050157.63543  23456429.773                    23456439.402
 126917267.387 6  98896696.465 6  24151562.102                    24151577.590
 115879432.751 7  90295747.70245  22051132.195                    22051140.625
 111273234.609 8  86706433.20946  21174595.289                    21174603.188
 118441620.824 7  92292212.96444  22538684.914                    22538694.063
 113196576.802 7  88205116.77846  21540592.297                    21540598.535
 108992520.305 7  84929254.229 7  20740585.695                    20740592.504
 121019999.268 7  94301306.60544  23029335.000                    23029342.516
 11  8 23 17 15 30.0000000  0 10G23G24G03G01G08G13G11G19G07G28
 120385284.588 7  93806726.64144  22908566.344                    22908574.230
 126005012.152 6  98185807.98843  23977959.773                    23977974.633
 123369901.403 6  96132452.56143  23476526.727                    23476537.047
 126840405.422 6  98836804.209 7  24136934.977                    24136951.371
 115808138.852 7  90240194.03445  22037564.992                    22037573.035
 111352879.779 8  86768494.32445  21189751.328                    21189758.930
 118376108.540 7  92241164.49744  22526218.297                    22526226.781
 113257474.861 7  88252569.78346  21552181.039                    21552187.215
 108954892.955 8  84899934.213 7  20733425.102                    20733432.535
 120979777.245 7  94269964.77844  23021681.734                    23021688.953
 11  8 23 17 16  0.0000000  0 10G23G24G03G01G08G13G11G19G07G28
 120494742.750 7  93892018.56344  22929395.664                    22929403.965
 125932493.905 5  98129300.42142  23964159.594                    23964174.848
 123475691.130 6  96214886.07343  23496657.766                    23496667.887
 126763526.599 7  98776898.803 7  24122305.773                    24122321.496
 115736897.386 7  90184681.22145  22024008.289                    22024016.418
 111432952.021 7  86830888.20745  21204988.656                    21204996.203
 118310872.121 7  92190330.97744  22513804.086                    22513812.793
 113318864.573 8  88300405.90046  21563863.383                    21563869.512
 108917507.540 7  84870802.708 7  20726311.063                    20726318.406
 120939728.551 7  94238758.02444  23014059.641                    23014068.449
 11  8 23 17 16 30.0000000  0 10G23G24G03G01G08G13G11G19G07G28
 120604366.958 7  93977439.84544  22950256.320                    22950265.105
 125859980.135 5  98072796.46343  23950360.617                    23950375.367
 123581656.150 6  96297456.18843  23516822.227                    23516833.184
 126686633.740 6  98716982.457 6  24107674.156                    24107688.738
 115665710.037 7  90129210.56945  22010461.789                    22010469.910
 111513448.696 7  86893612.83645  21220306.414                    21220314.621
 118245914.747 7  92139714.89344  22501443.305                    22501452.273
 113380743.390 7  88348623.13846  21575638.008                    21575644.402
 108880366.133 7  84841861.365 8  20719243.266                    20719250.785
 120899851.873 6  94207685.31344  23006471.484                    23006480.199
 11  8 23 17 17  0.0000000  0 10G23G24G03G01G08G13G11G19G07G28
 120714153.232 7  94062987.40544  22971148.320                    22971156.539
 125787473.454 6  98016297.94443  23936563.383                    23936577.645
 123687793.699 6  96380160.63243  23537019.203                    23537030.223
 126609729.066 7  98657056.885 6  24093039.063                    24093054.148
 115594577.961 7  90073782.99645  21996925.797                    21996934.156
 111594366.848 7  86956665.87345  21235704.891                    21235713.238
 118181238.516 7  92089317.87044  22489135.492                    22489144.805
 113443108.651 7  88397219.41446  21587505.500                    21587511.820
 108843470.149 7  84813111.235 7  20712222.461                    20712229.625
 120860146.429 6  94176746.05244  22998915.938                    22998924.227
 11  8 23 17 17 30.0000000  0 10G23G24G03G01G08G13G11G19G07G28
 120824099.524 7  94148659.65844  22992069.914                    22992079.047
 125714977.357 7  97959807.64743  23922767.094                    23922781.652
 123794101.243 6  96462997.58643  23557248.430                    23557259.832
 126532816.798 6  98597125.394 6  24078402.508                    24078418.156
 115523503.453 7  90018400.27445  21983400.859                    21983409.211
 111675704.550 8  87020045.84145  21251182.680                    21251190.984
 118116847.246 7  92039142.90944  22476882.633                    22476891.539
 113505958.418 8  88446193.22046  21599466.305                    21599472.371
 108806822.292 7  84784554.454 7  20705248.477                    20705255.816
 120820611.473 7  94145939.64044  22991392.563                    22991401.117
 11  8 23 17 18  0.0000000  0 10G23G24G03G01G08G13G11G19G07G28
 120934202.267 7  94234453.81344  23013022.156                    23013030.664
 125642494.348 7  97903327.56143  23908974.477                    23908988.461
 123900575.828 6  96545964.70043  23577511.234                    23577521.566
 126455898.581 6  98537189.239 6  24063764.719                    24063781.500
 115452487.862 7  89963063.47145  21969887.156                    21969895.430
 111757458.794 8  87083750.37945  21266740.461                    21266748.699
 118052743.856 7  91989192.29144  22464684.188                    22464692.512
 113569290.075 7  88495542.53646  21611517.430                    21611523.410
 108770424.113 8  84756192.233 7  20698322.070                    20698329.539
 120781246.217 7  94115265.40644  22983901.750                    22983909.617
 11  8 23 17 18 30.0000000  0 10G23G24G03G01G08G13G11G19G07G28
 121044458.436 7  94320367.54844  23034003.039                    23034011.668
 125570027.226 6  97846859.81143  23895184.250                    23895197.980
 124007214.590 6  96629059.74443  23597803.898                    23597814.391
 126378977.555 6  98477250.933 6  24049126.625                    24049143.234
 115381532.991 7  89907773.97945  21956384.469                    21956392.875
 111839626.581 8  87147777.16745  21282376.117                    21282384.535
 117988930.783 7  91939467.86744  22452540.258                    22452549.500
 113633101.355 8  88545265.58445  21623660.539                    21623666.426
 108734277.384 8  84728025.943 7  20691443.742                    20691451.148
 120742049.455 7  94084722.47744  22976443.164                    22976450.398
 11  8 23 17 19  0.0000000  0 10G23G24G03G01G08G13G11G19G07G28
 121154865.226 7  94406398.66044  23055013.234                    23055021.574
 125497578.881 6  97790406.72342  23881397.453                    23881411.051
 124114014.506 7  96712280.36544  23618127.633                    23618137.281
 126302056.509 6  98417312.608 6  24034489.602                    24034505.359
 115310640.795 7  89852533.32545  21942894.305                    21942903.332
 111922205.462 7  87212124.27945  21298091.008                    21298099.168
 117925411.219 7  91889972.13144  22440453.305                    22440462.215
 113697389.556 8  88595360.25746  21635894.211                    21635900.219
 108698384.007 8  84700057.077 7  20684613.172                    20684620.328
 120703020.558 7  94054310.36044  22969016.516                    22969023.422
 11  8 23 17 19 30.0000000  0 10G23G24G03G01G08G13G11G19G07G28
 121265419.850 7  94492544.98844  23076051.273                    23076059.520
 125425152.397 6  97733970.63142  23867614.711                    23867627.941
 124220973.313 6  96795624.74844  23638481.313                    23638491.766
 126225138.557 6  98357376.660 7  24019852.758                    24019868.512
 115239812.598 7  89797342.51945  21929416.227                    21929424.664
 112005192.830 7  87276789.70645  21313882.891                    21313891.094
 117862188.101 7  91840707.42344  22428422.086                    22428431.000
 113762152.232 8  88645824.65046  21648218.383                    21648224.809
 108662745.963 8  84672287.157 7  20677831.836                    20677838.863
 120664158.375 7  94024028.14944  22961620.578                    22961628.578
 11  8 23 17 20  0.0000000  0 10G23G24G03G01G08G13G11G19G07G28
 121376119.366 6  94578804.18643  23097117.008                    23097125.621
 125352750.809 6  97677553.88843  23853837.844                    23853851.133
 124328087.909 7  96879090.59344  23658864.461                    23658874.676
 126148226.241 7  98297445.103 7  24005217.453                    24005232.641
 115169050.663 7  89742203.36845  21915950.602                    21915959.281
 112088586.095 7  87341771.40545  21329752.219                    21329760.129
 117799264.311 7  91791675.93944  22416448.719                    22416456.801
 113827387.183 7  88696657.03745  21660631.992                    21660637.914
 108627365.356 8  84644717.847 7  20671099.000                    20671106.051
 120625462.437 7  93993875.48344  22954257.109                    22954264.988
 11  8 23 17 20 30.0000000  0 10G23G24G03G01G08G13G11G19G07G28
 121486960.536 7  94665173.74544  23118208.969                    23118218.406
 125280376.838 7  97621158.72043  23840065.930                    23840079.137
 124435355.517 6  96962675.66743  23679277.031                    23679286.613
 126071322.935 6  98237520.554 7  23990582.406                    23990598.172
 115098356.275 7  89687116.85145  21902497.656                    21902506.020
 112172382.386 7  87407067.15945  21345698.055                    21345705.832
 117736642.848 7  91742880.06144  22404532.141                    22404539.738
 113893091.695 8  88747855.31946  21673135.477                    21673141.270
 108592243.683 8  84617350.308 7  20664415.609                    20664422.676
 120586931.692 7  93963851.56444  22946924.750                    22946932.902
 11  8 23 17 21  0.0000000  0 10G23G24G03G01G08G13G11G19G07G28
 121597940.813 7  94751651.68844  23139327.563                    23139337.375
 125208033.691 7  97564787.53343  23826298.992                    23826312.914
 124542773.704 6  97046378.06343  23699718.352                    23699727.762
 125994431.234 6  98177605.056 7  23975950.078                    23975965.531
 115027731.465 7  89632084.54145  21889058.344                    21889066.570
 112256579.276 8  87472675.05445  21361720.109                    21361728.297
 117674326.926 7  91694322.26544  22392673.117                    22392681.992
 113959263.925 8  88799418.06646  21685727.602                    21685733.367
 108557383.521 8  84590186.537 7  20657781.930                    20657788.738
 120548565.565 7  93933955.91844  22939624.055                    22939632.453
 11  8 23 17 21 30.0000000  0 10G23G24G03G01G08G13G11G19G07G28
 121709057.191 7  94838235.66544  23160472.453                    23160482.219
 125135724.462 7  97508442.80243  23812538.797                    23812552.215
 124650339.901 6  97130195.86443  23720187.203                    23720196.258
 125917554.018 6  98117700.865 6  23961320.516                    23961336.660
 114957178.125 7  89577107.93845  21875632.742                    21875640.828
 112341174.024 8  87538592.96645  21377817.977                    21377826.078
 117612319.495 7  91646004.83244  22380873.719                    22380882.453
 114025901.107 8  88851343.11646  21698408.094                    21698413.938
 108522786.831 8  84563228.062 7  20651198.539                    20651205.711
 120510362.983 7  93904187.70244  22932354.344                    22932362.660
 11  8 23 17 22  0.0000000  0 10G23G24G03G01G08G13G11G19G07G28
 121820306.625 7  94924923.32344  23181643.211                    23181652.547
 125063452.203 7  97452126.88443  23798786.008                    23798799.828
 124758051.403 6  97214126.78143  23740684.477                    23740694.211
 125840694.819 6  98057810.727 6  23946695.250                    23946710.703
 114886698.093 8  89522188.43945  21862220.875                    21862228.457
 112426164.045 8  87604818.88945  21393991.109                    21393999.461
 117550623.416 7  91597930.01344  22369133.266                    22369141.504
 114093000.919 8  88903628.64645  21711176.734                    21711182.898
 108488455.486 8  84536476.369 7  20644664.961                    20644672.215
 120472323.158 7  93874546.31744  22925115.625                    22925123.680
 11  8 23 17 22 30.0000000  0 10G23G24G03G01G08G13G11G19G07G28
 121931686.240 7  95011712.42744  23202838.234                    23202847.352
 124991219.540 6  97395841.80443  23785040.258                    23785053.309
 124865905.252 6  97298168.65043  23761207.438                    23761218.371
 125763855.997 6  97997936.415 6  23932073.719                    23932088.180
 114816293.024 7  89467327.35345  21848822.797                    21848830.930
 112511545.935 8  87671350.17245  21410239.109                    21410246.949
 117489241.337 7  91550099.86745  22357452.992                    22357461.379
 114160560.323 8  88956272.29545  21724032.344                    21724038.813
 108454390.929 8  84509932.548 7  20638183.273                    20638190.160
 120434444.739 7  93845030.67445  22917907.586                    22917915.484
 11  8 23 17 23  0.0000000  0 10G23G24G03G01G08G13G11G19G07G28
 122043193.133 7  95098600.74344  23224057.531                    23224066.934
 124919029.400 7  97339589.84443  23771302.359                    23771315.715
 124973899.140 6  97382319.59242  23781758.016                    23781768.535
 125687040.807 7  97938080.488 6  23917456.141                    23917470.379
 114745964.660 8  89412526.04545  21835440.164                    21835448.355
 112597317.685 7  87738185.23645  21426560.781                    21426568.629
 117428176.387 7  91502516.82144  22345832.570                    22345840.977
 114228577.096 7  89009272.34645  21736976.211                    21736982.094
 108420595.542 8  84483598.457 7  20631752.297                    20631758.746
 120396727.278 7  93815640.46144  22910729.930                    22910738.184
 11  8 23 17 23 30.0000000  0 10G23G24G03G01G08G13G11G19G07G28
 122154824.527 7  95185586.05944  23245300.680                    23245309.652
 124846885.037 7  97283373.53943  23757574.258                    23757587.285
 125082030.048 6  97466577.35342  23802335.109                    23802345.340
 125610252.038 7  97878245.160 6  23902843.500                    23902858.375
 114675715.201 8  89357786.22845  21822071.648                    21822080.266
 112683476.402 8  87805321.82945  21442956.227                    21442964.391
 117367431.433 7  91455183.13744  22334272.586                    22334281.754
 114297049.032 8  89062627.06245  21750006.164                    21750011.961
 108387071.348 8  84457475.711 7  20625372.805                    20625379.871
 120359169.906 7  93786374.97844  22903582.492                    22903590.863
 11  8 23 17 24  0.0000000  0 10G23G24G03G01G08G13G11G19G07G28
 122266576.524 7  95272665.38144  23266566.445                    23266574.570
 124774788.619 7  97227194.60343  23743854.383                    23743867.723
 125190295.281 6  97550939.77242  23822937.688                    23822947.434
 125533491.703 6  97818432.022 6  23888236.227                    23888251.313
 114605545.907 8  89303108.87745  21808719.086                    21808727.363
 112770018.247 8  87872756.95845  21459424.414                    21459433.016
 117307008.875 7  91408100.68544  22322774.469                    22322783.449
 114365972.646 8  89116333.72846  21763121.523                    21763127.895
 108353819.309 8  84431565.031 7  20619044.977                    20619051.957
 120321771.214 7  93757233.15744  22896466.203                    22896473.754
 11  8 23 17 24 30.0000000  0 10G23G24G03G01G08G13G11G19G07G28
 122378446.830 7  95359836.86244  23287854.289                    23287862.938
 124702743.560 7  97171055.70243  23730145.500                    23730157.824
 125298691.807 6  97635404.52743  23843564.422                    23843574.184
 125456763.461 6  97758643.911 7  23873635.281                    23873650.129
 114535458.687 7  89248495.47145  21795382.086                    21795390.363
 112856940.768 8  87940488.72645  21475965.750                    21475974.125
 117246911.723 7  91361271.77244  22311338.969                    22311346.910
 114435345.784 8  89170390.67645  21776322.742                    21776328.988
 108320841.611 7  84405868.103 7  20612769.656                    20612776.516
 120284530.446 7  93728214.41044  22889379.648                    22889388.031
 11  8 23 17 25  0.0000000  0 10G23G24G03G01G08G13G11G19G07G28
 122490432.741 7  95447098.40143  23309165.320                    23309173.188
 124630753.174 6  97114959.46343  23716444.531                    23716458.723
 125407217.444 6  97719969.83943  23864216.484                    23864226.988
 125380070.495 7  97698883.306 6  23859041.148                    23859056.180
 114465455.505 7  89193947.55145  21782060.773                    21782068.793
 112944241.851 7  88008515.47345  21492578.086                    21492586.828
 117187143.038 7  91314698.80644  22299965.367                    22299973.086
 114505165.979 7  89224795.98045  21789609.109                    21789614.918
 108288140.744 8  84380386.896 7  20606546.625                    20606554.125
 120247446.831 7  93699318.08945  22882323.086                    22882331.422
 11  8 23 17 25 30.0000000  0 10G23G24G03G01G08G13G11G19G07G28
 122602531.075 6  95534447.51944  23330496.430                    23330505.254
 124558820.287 6  97058907.98343  23702756.711                    23702770.398
 125515869.702 6  97804633.82943  23884892.227                    23884902.980
 125303415.402 7  97639152.147 6  23844454.141                    23844468.926
 114395538.375 7  89139466.68245  21768755.773                    21768764.414
 113031918.301 7  88076834.71145  21509262.648                    21509271.027
 117127705.871 7  91268384.19544  22288654.758                    22288663.324
 114575430.775 7  89279547.72645  21802980.180                    21802986.168
 108255718.483 8  84355122.787 7  20600377.180                    20600384.672
 120210519.547 7  93670543.60845  22875295.859                    22875303.895
 11  8 23 17 26  0.0000000  0 10G23G24G03G01G08G13G11G19G07G28
 122714739.386 6  95621882.33043  23351849.609                    23351858.090
 124486948.260 6  97002903.92143  23689078.664                    23689092.773
 125624645.606 6  97889394.22343  23905591.594                    23905601.902
 125226801.853 6  97579453.358 6  23829874.953                    23829889.570
 114325709.430 8  89085054.53545  21755468.250                    21755475.988
 113119967.860 8  88145444.67745  21526017.828                    21526026.391
 117068603.335 7  91222330.31644  22277407.352                    22277415.930
 114646138.029 8  89334644.25845  21816435.398                    21816441.508
 108223577.294 8  84330077.694 7  20594260.594                    20594267.672
 120173747.829 7  93641890.35544  22868298.063                    22868306.082
 11  8 23 17 26 30.0000000  0 10G23G24G03G01G08G13G11G19G07G28
 122827054.468 6  95709400.36443  23373222.391                    23373231.066
 124415140.217 6  96946949.69643  23675414.977                    23675428.086
 125733542.998 6  97974249.25743  23926314.773                    23926324.098
 125150232.805 6  97519789.282 6  23815303.773                    23815317.738
 114255970.646 7  89030712.63445  21742197.602                    21742205.387
 113208387.729 7  88214343.21345  21542843.813                    21542851.918
 117009838.399 7  91176539.47344  22266224.711                    22266233.465
 114717285.049 7  89390083.46045  21829974.188                    21829980.367
 108191719.052 8  84305253.067 8  20588198.469                    20588205.574
 120137130.579 7  93613357.45544  22861330.258                    22861338.563
 11  8 23 17 27  0.0000000  0 10G23G24G03G01G08G13G11G19G07G28
 122939473.178 7  95796999.14344  23394615.758                    23394623.879
 124343398.481 6  96891047.14443  23661763.016                    23661777.402
 125842558.615 7  98059196.41543  23947059.828                    23947069.449
 125073710.396 6  97460161.563 6  23800743.023                    23800757.355
 114186323.270 8  88976441.97145  21728943.594                    21728951.871
 113297174.262 7  88283527.44545  21559739.742                    21559747.969
 116951413.152 7  91131013.35944  22255106.609                    22255115.832
 114788868.471 7  89445862.70345  21843596.203                    21843602.676
 108160145.091 8  84280649.980 7  20582190.203                    20582197.445
 120100666.951 7  93584944.24445  22854391.344                    22854399.492
 11  8 23 17 27 30.0000000  0 10G23G24G03G01G08G13G11G19G07G28
 123051992.437 7  95884676.29544  23416027.031                    23416036.734
 124271725.947 6  96835198.55143  23648123.664                    23648138.344
 125951689.961 6  98144233.77743  23967826.922                    23967836.590
 124997237.805 6  97400572.673 6  23786190.406                    23786204.617
 114116769.167 7  88922243.96545  21715708.023                    21715716.035
 113386324.838 7  88352995.35845  21576704.023                    21576712.035
 116893330.717 7  91085754.36545  22244054.477                    22244063.398
 114860885.927 7  89501980.15845  21857300.438                    21857307.238
 108128857.117 8  84256269.734 7  20576236.234                    20576243.461
 120064355.807 7  93556649.85844  22847481.680                    22847489.477
 11  8 23 17 28  0.0000000  0 10G23G24G03G01G08G13G11G19G07G28
 123164609.534 7  95972429.66944  23437457.672                    23437467.344
 124200126.047 6  96779406.57043  23634498.320                    23634512.395
 126060934.638 6  98229359.39543  23988615.516                    23988625.824
 124920818.065 6  97341024.955 6  23771647.492                    23771662.031
 114047310.705 7  88868120.49745  21702490.414                    21702498.848
 113475836.797 7  88422744.87145  21593737.398                    21593746.289
 116835593.776 7  91040764.58744  22233067.203                    22233075.910
 114933335.092 7  89558433.99745  21871086.977                    21871093.668
 108097857.452 8  84232114.143 7  20570336.813                    20570344.133
 120028196.390 7  93528473.70945  22840600.859                    22840609.539
 11  8 23 17 28 30.0000000  0 10G23G24G03G01G08G13G11G19G07G28
 123277321.600 7  96060257.01144  23458906.117                    23458916.203
 124128601.810 6  96723673.51443  23620887.461                    23620901.184
 126170290.167 6  98314571.38143  24009425.492                    24009435.785
 124844454.074 6  97281520.685 6  23757115.516                    23757130.309
 113977949.613 7  88814072.91145  21689291.461                    21689300.055
 113565707.042 7  88492773.55545  21610839.453                    21610848.078
 116778205.482 7  90996046.45645  22222146.211                    22222155.086
 115006213.109 8  89615222.01045  21884955.484                    21884961.707
 108067147.953 8  84208184.654 8  20564493.172                    20564500.297
 119992187.678 7  93500414.98244  22833748.930                    22833756.781
 11  8 23 17 29  0.0000000  0 10G23G24G03G01G08G13G11G19G07G28
 123390125.860 6  96148156.17944  23480372.563                    23480382.262
 124057156.356 7  96668001.88343  23607292.648                    23607305.980
 126279753.914 6  98399867.73843  24030255.570                    24030265.777
 124768149.132 6  97222062.442 6  23742595.563                    23742610.422
 113908688.116 7  88760102.92545  21676111.570                    21676119.492
 113655932.921 7  88563079.33945  21628009.016                    21628017.797
 116721168.435 7  90951602.04545  22211292.891                    22211301.855
 115079517.403 8  89672342.19945  21898905.078                    21898910.918
 108036730.838 8  84184483.005 8  20558705.492                    20558712.242
 119956328.665 7  93472472.92244  22826924.547                    22826932.418
 11  8 23 17 29 30.0000000  0 10G23G24G03G01G08G13G11G19G07G28
 123503019.039 7  96236124.65743  23501855.266                    23501864.945
 123985792.407 7  96612393.72443  23593712.633                    23593725.664
 126389323.072 6  98485246.23043  24051105.844                    24051116.398
 124691905.774 6  97162652.182 6  23728086.500                    23728101.516
 113839527.869 8  88706211.83445  21662951.047                    21662958.449
 113746511.419 7  88633659.91345  21645245.852                    21645254.324
 116664485.498 7  90907433.56645  22200506.602                    22200514.965
 115153245.165 8  89729792.36545  21912934.727                    21912940.934
 108006607.611 8  84161010.351 7  20552973.016                    20552980.121
 119920618.607 7  93444646.92044  22820129.344                    22820137.133
 11  8 23 17 30  0.0000000  0 10G23G24G03G01G08G13G11G19G07G28
 123615998.582 7  96324160.44843  23523354.883                    23523364.598
 123914513.150 6  96556851.56743  23580148.469                    23580161.703
 126498995.200 6  98570704.96142  24071975.453                    24071986.352
 124615727.475 6  97103292.591 7  23713590.539                    23713605.328
 113770470.966 7  88652401.26645  21649809.883                    21649817.711
 113837439.685 7  88704513.04145  21662548.828                    21662557.504
 116608159.563 7  90863543.25545  22189787.953                    22189796.984
 115227394.063 8  89787570.69245  21927045.047                    21927051.383
 107976780.708 8  84137768.588 7  20547297.352                    20547304.277
 119885056.622 7  93416936.29144  22813361.883                    22813370.223
 11  8 23 17 30 30.0000000  0 10G23G24G03G01G08G13G11G19G07G28
 123729061.518 6  96412261.20943  23544869.594                    23544879.395
 123843321.624 6  96501377.75743  23566600.531                    23566614.305
 126608767.644 6  98656241.83742  24092864.609                    24092874.680
 124539617.848 6  97043986.547 7  23699106.883                    23699121.523
 113701519.498 7  88598672.85945  21636688.391                    21636696.988
 113928714.952 7  88775636.55145  21679918.047                    21679926.516
 116552193.385 7  90819933.30145  22179137.617                    22179146.078
 115301961.311 8  89845674.99345  21941234.484                    21941241.020
 107947251.919 8  84114759.145 7  20541678.203                    20541685.445
 119849641.813 7  93389340.33944  22806623.359                    22806631.211
 11  8 23 17 31  0.0000000  0 10G23G24G03G01G08G13G11G19G07G28
 123842204.758 6  96500424.52043  23566400.547                    23566409.746
 123772220.856 7  96445974.67643  23553070.609                    23553083.742
 126718637.989 5  98741854.98542  24113771.461                    24113783.086
 124463578.483 6  96984735.279 6  23684636.703                    23684651.008
 113632675.169 7  88545027.94845  21623587.953                    21623596.438
 114020334.242 7  88847028.12545  21697352.391                    21697361.164
 116496589.673 7  90776605.78445  22168557.273                    22168565.074
 115376944.114 7  89904103.10545  21955503.258                    21955509.656
 107918022.977 8  84091983.334 7  20536116.016                    20536123.141
 119814373.198 7  93361858.33344  22799911.320                    22799919.773
 11  8 23 17 31 30.0000000  0 10G23G24G03G01G08G13G11G19G07G28
 123955425.593 7  96588648.29743  23587946.164                    23587955.961
 123701214.162 7  96390644.94543  23539559.227                    23539570.852
 126828603.65115  98827542.40753  24134697.586                    24134708.758
 124387612.885 6  96925541.447 7  23670180.727                    23670195.887
 113563940.385 7  88491468.38445  21610507.797                    21610516.219
 114112294.514 7  88918685.39345  21714852.172                    21714860.832
 116441351.283 7  90733562.92545  22158045.000                    22158053.691
 115452339.782 7  89962852.94945  21969850.586                    21969857.078
 107889095.896 8  84069442.746 8  20530611.078                    20530618.223
 119779249.540 7  93334489.26044  22793227.953                    22793235.582
 11  8 23 17 32  0.0000000  0 10G23G24G03G01G08G13G11G19G07G28
 124068721.125 7  96676930.24844  23609506.289                    23609516.051
 123630304.427 7  96335390.73643  23526065.164                    23526078.000
 126938661.725 6  98913301.86843  24155642.336                    24155652.121
 124311724.293 6  96866407.595 7  23655739.820                    23655754.820
 113495316.985 7  88437995.62245  21597448.836                    21597458.043
 114204593.452 7  88990606.56045  21732416.352                    21732425.094
 116386481.010 7  90690806.92145  22147603.539                    22147612.492
 115528145.866 7  90021922.57245  21984276.109                    21984282.609
 107860472.573 8  84047138.853 7  20525164.563                    20525171.367
 119744270.117 7  93307232.59045  22786571.539                    22786579.172
 11  8 23 17 32 30.0000000  0  9G23G24G01G08G13G11G19G07G28
 124182088.491 7  96765268.18844  23631079.625                    23631089.184
 123559494.604 7  96280214.37043  23512589.797                    23512603.137
 124235915.468 7  96807335.913 7  23641313.836                    23641328.766
 113426806.942 7  88384611.18745  21584412.570                    21584420.484
 114297227.153 7  89062788.58245  21750043.852                    21750052.785
 116331981.733 7  90648339.99445  22137232.820                    22137241.242
 115604359.810 7  90081310.01745  21998779.094                    21998785.969
 107832155.188 8  84025073.354 8  20519775.422                    20519782.828
 119709433.926 7  93280087.52445  22779942.258                    22779949.918
 11  8 23 17 33  0.0000000  0  9G23G24G01G08G13G11G19G07G28
 124295525.055 6  96853660.05944  23652665.617                    23652675.340
 123488788.017 6  96225118.48243  23499134.961                    23499147.316
 124160189.969 6  96748329.179 7  23626903.945                    23626918.785
 113358412.398 8  88331316.74345  21571397.641                    21571405.609
 114390193.449 7  89135229.76945  21767734.508                    21767742.961
 116277856.211 7  90606164.30645  22126933.188                    22126941.578
 115680978.807 7  90141013.08145  22013359.289                    22013365.973
 107804145.798 8  84003247.850 8  20514445.758                    20514453.113
 119674740.372 7  93253053.59144  22773340.023                    22773348.016
 11  8 23 17 33 30.0000000  0  9G23G24G01G08G13G11G19G07G28
 124409027.475 6  96942103.24443  23674264.344                    23674273.973
 123418187.456 7  96170105.16143  23485700.023                    23485712.207
 124084550.496 6  96689389.474 6  23612510.117                    23612524.531
 113290135.480 8  88278113.96645  21558404.664                    21558412.758
 114483489.063 7  89207927.56345  21785488.117                    21785496.926
 116224106.993 7  90564281.84245  22116705.219                    22116713.328
 115757999.733 7  90201029.34445  22028015.859                    22028022.391
 107776445.892 8  83981663.500 8  20509174.359                    20509181.750
 119640188.213 7  93226129.83744  22766765.609                    22766773.066
 11  8 23 17 34  0.0000000  0  9G23G24G01G08G13G11G19G07G28
 124522592.785 6  97030595.41444  23695874.836                    23695886.133
 123347695.651 7  96115176.58743  23472285.727                    23472298.039
 124008999.438 7  96630518.637 6  23598132.961                    23598147.379
 113221977.810 8  88225004.10645  21545434.719                    21545442.438
 114577110.485 7  89280879.21645  21803303.984                    21803312.227
 116170736.190 7  90522694.24345  22106548.453                    22106557.719
 115835419.638 7  90261356.50545  22042748.625                    22042754.574
 107749056.982 8  83960321.482 8  20503962.500                    20503969.770
 119605776.151 7  93199315.25344  22760216.844                    22760224.297
 11  8 23 17 34 30.0000000  0  9G23G24G01G08G13G11G19G07G28
 124636218.343 6  97119134.50543  23717497.727                    23717508.625
 123277315.908 7  96060335.32643  23458893.047                    23458905.859
 123933540.491 7  96571719.566 7  23583773.117                    23583788.137
 113153941.867 8  88171989.09445  21532487.945                    21532496.039
 114671055.418 7  89354082.95245  21821181.391                    21821189.723
 116117747.142 7  90481404.11645  22096464.875                    22096473.863
 115913236.283 7  90321992.81245  22057556.500                    22057562.703
 107721981.532 8  83939223.718 7  20498810.703                    20498817.410
 119571503.840 7  93172609.57544  22753695.211                    22753701.910
 11  8 23 17 35  0.0000000  0  9G23G24G01G08G13G11G19G07G28
 124749901.452 6  97207718.47943  23739131.273                    23739142.207
 123207051.573 6  96005584.02343  23445521.656                    23445534.707
 123858176.622 7  96512994.591 6  23569432.250                    23569446.625
 113086029.452 8  88119070.32545  21519564.766                    21519572.496
 114765321.052 7  89427536.59245  21839119.406                    21839128.410
 116065142.700 7  90440413.68445  22086454.938                    22086463.535
 115991447.075 7  90382936.23945  22072439.797                    22072446.156
 107695221.553 8  83918371.774 7  20493718.211                    20493725.418
 119537370.156 7  93146011.91544  22747199.492                    22747207.469
 11  8 23 17 35 30.0000000  0  9G23G24G01G08G13G11G19G07G28
 124863639.220 6  97296345.03543  23760775.219                    23760785.965
 123136905.714 6  95950925.07643  23432173.383                    23432186.469
 123782911.029 7  96454346.184 6  23555109.516                    23555124.090
 113018243.010 8  88066249.73446  21506665.227                    21506673.746
 114859904.531 7  89501237.91345  21857118.250                    21857127.199
 116012925.616 7  90399725.08545  22076518.414                    22076526.754
 116070049.414 7  90444184.76445  22087397.156                    22087404.000
 107668779.131 8  83897767.282 8  20488686.266                    20488693.371
 119503374.268 7  93119521.62145  22740730.367                    22740738.563
 11  8 23 17 36  0.0000000  0  9G23G24G01G08G13G11G19G07G28
 124977428.538 6  97385011.76343  23782428.484                    23782439.477
 123066881.218 6  95896360.64143  23418848.188                    23418860.230
 123707746.350 7  96395776.410 7  23540806.180                    23540820.672
 112950584.212 7  88013528.60845  21493790.406                    21493798.641
 114954802.520 7  89575184.31045  21875177.125                    21875184.863
 115961097.947 7  90359339.91345  22066655.594                    22066664.141
 116149040.220 7  90505735.99145  22102428.703                    22102435.512
 107642655.728 8  83877411.362 7  20483715.328                    20483722.520
 119469514.822 7  93093137.64244  22734287.227                    22734294.707
 11  8 23 17 36 30.0000000  0 10G17G23G24G01G08G13G11G19G07G28
 129517109.45916 100922472.37516  24646294.867                    24646307.531
 125091266.373 7  97473716.31843  23804091.805                    23804102.594
 122996980.917 6  95841892.95743  23405546.211                    23405559.051
 123632685.708 7  96337287.695 6  23526522.602                    23526536.348
 112883055.136 8  87960908.55646  21480939.938                    21480947.770
 115050011.577 7  89649373.07245  21893294.859                    21893302.992
 115909662.411 7  90319260.29845  22056867.438                    22056876.129
 116228416.420 7  90567587.53145  22117533.406                    22117540.234
 107616852.999 8  83857305.328 7  20478805.086                    20478812.301
 119435790.912 7  93066859.28944  22727870.008                    22727877.055
 11  8 23 17 37  0.0000000  0 10G17G23G24G01G08G13G11G19G07G28
 129412604.884 6 100841040.385 6  24626407.742                    24626420.668
 125205150.312 6  97562456.77443  23825763.016                    23825774.570
 122927208.093 6  95787524.60143  23392268.383                    23392282.527
 123557732.145 7  96278882.414 6  23512259.242                    23512273.020
 112815658.059 8  87908391.36445  21468114.633                    21468122.926
 115145529.191 7  89723802.28045  21911471.023                    21911479.746
 115858621.958 7  90279488.54445  22047154.930                    22047163.676
 116308175.415 7  90629737.33545  22132711.305                    22132717.898
 107591373.016 8  83837450.783 8  20473956.414                    20473963.652
 119402201.913 7  93040686.04844  22721477.547                    22721485.344
 11  8 23 17 37 30.0000000  0 10G17G23G24G01G08G13G11G19G07G28
 129308201.779 6 100759687.481 6  24606540.500                    24606553.297
 125319078.203 7  97651231.47443  23847443.633                    23847454.930
 122857566.577 7  95733258.64543  23379016.805                    23379029.945
 123482889.654 7  96220563.659 6  23498017.203                    23498031.445
 112748395.696 8  87855979.13445  21455314.648                    21455322.914
 115241353.504 7  89798470.47045  21929705.742                    21929714.730
 115807980.063 7  90240027.35345  22037518.438                    22037526.859
 116388315.365 7  90692184.00145  22147961.344                    22147967.648
 107566218.894 8  83817850.146 7  20469169.859                    20469177.125
 119368747.496 7  93014617.66345  22715111.953                    22715120.199
 11  8 23 17 38  0.0000000  0 10G17G23G24G01G08G13G11G19G07G28
 129203902.083 6 100678415.196 6  24586692.438                    24586706.180
 125433046.237 7  97740037.47444  23869131.242                    23869142.219
 122788058.816 6  95679096.87143  23365789.273                    23365802.289
 123408160.284 6  96162333.058 7  23483795.961                    23483811.148
 112681269.611 8  87803673.10645  21442541.266                    21442549.031
 115337480.334 7  89873374.39145  21947998.258                    21948006.793
 115757738.595 7  90200878.17745  22027957.555                    22027966.102
 116468832.740 7  90754924.77445  22163283.703                    22163289.973
 107541391.822 8  83798504.367 7  20464445.156                    20464452.418
 119335426.015 7  92988652.90245  22708770.555                    22708779.352
 11  8 23 17 38 30.0000000  0 10G17G23G24G01G08G13G11G19G07G28
 129099707.052 6 100597224.442 6  24566864.375                    24566877.715
 125547051.653 6  97828872.57743  23890825.188                    23890836.484
 122718687.877 6  95625041.68043  23352588.313                    23352600.703
 123333547.553 6  96104193.383 7  23469597.273                    23469612.441
 112614281.948 7  87751474.93045  21429794.016                    21429801.957
 115433906.628 7  89948511.66445  21966347.266                    21966356.555
 115707900.070 7  90162042.99045  22018473.695                    22018481.957
 116549724.785 7  90817957.49645  22178676.891                    22178682.969
 107516893.321 8  83779414.618 8  20459783.508                    20459790.586
 119302236.383 7  92962790.86044  22702454.898                    22702463.246
 11  8 23 17 39  0.0000000  0 10G17G23G24G01G08G13G11G19G07G28
 128995619.047 6 100516117.081 6  24547057.664                    24547070.887
 125661091.657 6  97917734.59843  23912526.508                    23912537.469
 122649456.592 7  95571095.33643  23339413.805                    23339426.863
 123259053.847 7  96046146.427 6  23455422.781                    23455435.922
 112547434.332 8  87699385.90245  21417073.148                    21417081.703
 115530629.017 7  90023879.66545  21984753.453                    21984762.355
 115658466.669 7  90123523.48945  22009067.039                    22009075.594
 116630988.620 7  90881279.92145  22194140.367                    22194147.441
 107492725.191 8  83760582.303 7  20455184.453                    20455191.707
 119269177.292 7  92937030.53844  22696164.438                    22696171.746
 11  8 23 17 39 30.0000000  0 10G17G23G24G01G08G13G11G19G07G28
 128891639.819 6 100435094.503 6  24527270.938                    24527284.074
 125775163.337 6  98006621.30143  23934234.078                    23934244.051
 122580368.120 7  95517260.27244  23326267.070                    23326280.000
 123184682.667 7  95988194.947 6  23441269.727                    23441283.496
 112480729.415 8  87647408.05645  21404379.734                    21404388.043
 115627644.758 7  90099476.24945  22003214.727                    22003223.809
 115609441.505 7  90085322.09445  21999737.070                    21999746.043
 116712621.447 7  90944889.86645  22209674.586                    22209680.980
 107468889.287 8  83742008.857 8  20450648.883                    20450656.137
 119236248.105 7  92911371.44345  22689897.711                    22689905.773
 11  8 23 17 40  0.0000000  0 10G17G23G24G01G08G13G11G19G07G28
 128787771.998 6 100354158.746 6  24507505.688                    24507518.008
 125889264.077 6  98095530.60943  23955946.625                    23955958.055
 122511425.383 7  95463538.79043  23313146.930                    23313160.570
 123110436.877 7  95930341.188 6  23427141.336                    23427155.027
 112414169.100 8  87595542.88646  21391713.602                    21391722.320
 115724951.249 7  90175299.37245  22021731.898                    22021741.234
 115560827.104 7  90047440.75945  21990486.828                    21990495.383
 116794620.591 7  91008785.25745  22225279.203                    22225284.816
 107445387.571 8  83723695.833 8  20446176.523                    20446183.977
 119203448.001 7  92885812.93145  22683656.023                    22683664.332
 11  8 23 17 40 30.0000000  0 10G17G23G24G01G08G13G11G19G07G28
 128684017.575 6 100273311.342 6  24487760.953                    24487774.145
 126003390.579 6  98184459.99143  23977664.539                    23977675.836
 122442631.728 7  95409933.46044  23300056.758                    23300069.367
 123036319.758 6  95872587.706 6  23413036.695                    23413050.941
 112347756.134 8  87543792.53345  21379075.805                    21379084.020
 115822545.111 7  90251346.43045  22040303.148                    22040312.617
 115512625.906 8  90009881.40245  21981314.398                    21981322.969
 116876983.188 7  91072963.86845  22240952.164                    22240958.512
 107422222.057 8  83705644.767 8  20441767.961                    20441775.398
 119170775.954 7  92860354.20844  22677439.117                    22677446.977
 11  8 23 17 41  0.0000000  0 10G17G23G24G01G08G13G11G19G07G28
 128580378.785 6 100192554.027 6  24468039.688                    24468051.992
 126117540.572 6  98273407.68443  23999386.766                    23999398.371
 122373990.300 7  95356446.74444  23286994.781                    23287007.250
 122962334.260 7  95814936.746 7  23398957.859                    23398972.680
 112281492.401 8  87492158.45446  21366466.164                    21366474.328
 115920423.379 7  90327615.08345  22058929.172                    22058938.473
 115464840.844 8  89972646.32745  21972220.750                    21972229.387
 116959706.259 7  91137423.34445  22256694.133                    22256700.695
 107399394.684 8  83687857.189 8  20437424.266                    20437431.898
 119138231.272 7  92834994.74445  22671245.539                    22671253.707
 11  8 23 17 41 30.0000000  0 10G17G23G24G01G08G13G11G19G07G28
 128476857.276 6 100111888.083 6  24448340.766                    24448351.852
 126231710.831 6  98362371.20843  24021113.156                    24021124.918
 122305504.194 6  95303081.04844  23273962.188                    23273974.887
 122888482.988 7  95757390.392 7  23384904.484                    23384919.582
 112215380.059 7  87440642.36746  21353885.664                    21353893.863
 116018583.029 7  90404103.01845  22077608.719                    22077617.629
 115417473.958 7  89935737.09145  21963207.117                    21963215.406
 117042787.348 7  91202161.81745  22272503.289                    22272510.207
 107376907.225 8  83670334.486 8  20433145.461                    20433152.766
 119105812.596 7  92809733.44045  22665076.742                    22665084.594
 11  8 23 17 42  0.0000000  0 10G17G23G24G01G08G13G11G19G07G28
 128373455.561 7 100031315.492 6  24428663.531                    24428675.480
 126345899.028 6  98451348.68543  24042842.703                    24042853.645
 122237176.799 7  95249839.04844  23260960.172                    23260972.527
 122814769.819 7  95699951.670 7  23370877.281                    23370891.586
 112149421.094 8  87389245.77446  21341333.852                    21341341.961
 116117021.354 7  90480808.09145  22096340.984                    22096350.402
 115370528.321 7  89899156.11545  21954274.078                    21954282.344
 117126223.658 7  91267177.07145  22288381.148                    22288387.949
 107354761.703 8  83653078.217 8  20428931.016                    20428938.418
 119073519.165 7  92784569.72845  22658931.570                    22658939.148
 11  8 23 17 42 30.0000000  0 10G17G23G24G01G08G13G11G19G07G28
 128270175.436 6  99950837.608 6  24409009.508                    24409022.375
 126460101.888 6  98540337.59743  24064574.633                    24064586.484
 122169010.635 6  95196722.67044  23247988.313                    23248000.180
 122741197.282 7  95642622.524 7  23356877.195                    23356891.250
 112083617.883 7  87337970.56145  21328811.766                    21328820.016
 116215734.908 7  90557727.63645  22115125.336                    22115134.492
 115324005.709 8  89862904.75845  21945420.938                    21945429.379
 117210012.159 7  91332466.75945  22304325.930                    22304332.172
 107332959.680 8  83636089.614 7  20424782.000                    20424789.500
 119041349.879 7  92759502.78545  22652809.406                    22652818.027
 11  8 23 17 43  0.0000000  0 10G17G23G24G01G08G13G11G19G07G28
 128167019.364 6  99870456.396 6  24389379.523                    24389392.355
 126574316.819 6  98629335.91243  24086309.602                    24086320.215
 122101008.946 7  95143734.45343  23235047.234                    23235059.832
 122667768.638 7  95585405.504 7  23342903.547                    23342917.785
 112017972.701 8  87286818.47346  21316320.289                    21316328.637
 116314720.522 7  90634859.18045  22133961.719                    22133970.770
 115277908.837 7  89826985.15645  21936648.875                    21936656.809
 117294150.120 7  91398028.75845  22320336.602                    22320342.492
 107311503.294 8  83619370.329 8  20420699.188                    20420706.457
 119009303.899 7  92734531.91645  22646711.484                    22646719.574
 11  8 23 17 43 30.0000000  0 10G17G23G24G01G08G13G11G19G07G28
 128063989.198 6  99790173.305 6  24369773.063                    24369785.754
 126688541.482 7  98718341.81443  24108046.461                    24108057.316
 122033175.091 7  95090877.05044  23222139.320                    23222151.379
 122594487.117 7  95528303.121 7  23328958.641                    23328972.613
 111952487.788 8  87235791.29545  21303858.828                    21303867.387
 116413975.735 7  90712200.79344  22152849.336                    22152858.527
 115232240.554 7  89791399.52845  21927958.477                    21927966.762
 117378635.105 7  91463861.15845  22336412.992                    22336419.875
 107290394.833 8  83602922.158 8  20416682.563                    20416689.512
 118977380.556 7  92709656.58745  22640637.117                    22640645.086
 11  8 23 17 44  0.0000000  0 10G17G23G24G01G08G13G11G19G07G28
 127961086.982 6  99709989.926 6  24350191.336                    24350203.625
 126802772.530 7  98807352.70443  24129784.461                    24129795.414
 121965511.928 7  95038152.61644  23209263.266                    23209275.125
 122521355.660 6  95471317.677 7  23315042.438                    23315056.469
 111887164.968 8  87184890.40246  21291428.359                    21291436.238
 116513497.226 7  90789749.91245  22171787.336                    22171796.688
 115187003.323 7  89756149.78645  21919350.078                    21919358.547
 117463463.775 7  91529961.34345  22352555.852                    22352562.992
 107269635.252 8  83586745.842 8  20412731.930                    20412738.969
 118945578.665 7  92684875.88345  22634585.359                    22634593.387
 11  8 23 17 44 30.0000000  0 10G17G23G24G01G08G13G11G19G07G28
 127858314.425 6  99629907.564 6  24330634.875                    24330646.262
 126917006.903 6  98896366.14143  24151522.391                    24151533.750
 121898022.174 6  94985563.29644  23196420.586                    23196432.914
 122448376.774 7  95414451.099 7  23301155.297                    23301169.113
 111822006.942 8  87134117.92745  21279029.438                    21279037.234
 116613281.218 7  90867503.56445  22190776.188                    22190785.004
 115142199.001 7  89721237.34545  21910824.305                    21910833.004
 117548633.001 7  91596326.92345  22368762.992                    22368769.801
 107249226.125 8  83570842.611 8  20408848.266                    20408855.516
 118913896.674 7  92660188.61645  22628556.203                    22628564.207
 11  8 23 17 45  0.0000000  0 10G17G23G24G01G08G13G11G19G07G28
 127755673.979 6  99549928.148 6  24311102.742                    24311114.785
 127031242.526 6  98985380.57543  24173260.625                    24173272.375
 121830709.159 6  94933111.71643  23183610.813                    23183623.273
 122375554.489 6  95357706.556 7  23287296.750                    23287311.563
 111757015.974 8  87083475.61746  21266661.688                    21266669.762
 116713325.223 7  90945459.81345  22209813.352                    22209822.758
 115097830.540 7  89686664.55745  21902381.039                    21902389.688
 117634140.438 7  91662956.03645  22385035.172                    22385041.289
 107229169.971 8  83555214.429 8  20405032.164                    20405039.074
 118882334.155 7  92635594.45745  22622550.055                    22622558.152
 11  8 23 17 45 30.0000000  0 10G17G23G24G01G08G13G11G19G07G28
 127653167.878 6  99470053.401 6  24291596.461                    24291608.461
 127145476.567 6  99074393.70543  24194998.367                    24195010.770
 121763576.312 6  94880800.49043  23170836.047                    23170848.008
 122302891.612 7  95301086.243 7  23273470.039                    23273483.957
 111692194.115 7  87032965.09446  21254325.953                    21254334.852
 116813626.610 7  91023616.61244  22228900.172                    22228909.453
 115053900.473 8  89652433.36345  21894021.734                    21894029.914
 117719983.385 7  91729846.58245  22401370.172                    22401376.098
 107209468.773 8  83539862.828 8  20401282.633                    20401290.129
 118850890.376 7  92611092.83445  22616566.469                    22616574.934
 11  8 23 17 46  0.0000000  0 10G17G23G24G01G08G13G11G19G07G28
 127550798.213 6  99390284.980 6  24272115.531                    24272128.113
 127259706.270 5  99163403.49443  24216736.836                    24216748.422
 121696626.738 6  94828632.12843  23158095.297                    23158108.496
 122230391.352 7  95244592.621 7  23259673.430                    23259687.375
 111627543.772 7  86982588.21345  21242023.469                    21242031.988
 116914182.243 7  91101971.55744  22248036.242                    22248044.891
 115010411.083 8  89618545.56845  21885745.578                    21885753.613
 117806159.017 7  91796996.38545  22417768.883                    22417775.398
 107190124.509 8  83524789.359 8  20397601.570                    20397608.773
 118819564.627 7  92586683.15945  22610605.406                    22610613.645
 11  8 23 17 46 30.0000000  0 10G17G23G24G01G08G13G11G19G07G28
 127448566.825 6  99310624.336 6  24252661.086                    24252674.148
 127373928.54416  99252407.47853  24238473.125                    24238484.813
 121629863.351 7  94776608.80144  23145391.078                    23145403.543
 122158056.034 7  95188227.555 7  23245907.836                    23245922.473
 111563066.980 8  86932346.56646  21229754.055                    21229762.094
 117014988.469 7  91180521.75844  22267218.469                    22267227.453
 114967364.692 8  89585002.95945  21877554.516                    21877562.844
 117892664.313 7  91864403.02845  22434230.461                    22434236.969
 107171138.462 8  83509995.025 8  20393988.672                    20393996.223
 118788355.164 7  92562364.09945  22604666.578                    22604674.188
 11  8 23 17 47  0.0000000  0 10G17G23G24G01G08G13G11G19G07G28
 127346475.433 7  99231072.751 6  24233233.492                    24233246.129
 127488140.573 6  99341403.51543  24260206.273                    24260219.145
 121563288.946 6  94724732.72843  23132721.648                    23132734.238
 122085888.898 6  95131993.520 7  23232174.992                    23232189.496
 111498766.013 8  86882241.90946  21217519.117                    21217526.605
 117116041.996 7  91259264.63944  22286448.484                    22286458.426
 114924763.289 8  89551807.09445  21869447.438                    21869455.785
 117979496.093 7  91932064.10045  22450753.891                    22450760.559
 107152512.093 8  83495480.955 8  20390444.211                    20390451.625
 118757261.131 7  92538134.99545  22598749.313                    22598757.332
 11  8 23 17 47 30.0000000  0 10G17G23G24G01G08G13G11G19G07G28
 127244526.498 7  99151632.167 6  24213833.758                    24213845.945
 127602340.148 6  99430389.79943  24281938.281                    24281951.121
 121496907.060 7  94673006.71943  23120090.063                    23120101.863
 122013893.312 7  95075893.158 7  23218474.625                    23218488.652
 111434643.469 8  86832276.28746  21205315.961                    21205324.105
 117217340.463 7  91338198.38345  22305725.477                    22305734.895
 114882609.734 8  89518960.19145  21861425.859                    21861433.781
 118066652.184 7  91999977.88345  22467339.305                    22467345.777
 107134248.204 8  83481249.343 8  20386968.578                    20386976.277
 118726281.955 7  92513995.41245  22592854.664                    22592862.547
 11  8 23 17 48  0.0000000  0 10G17G23G24G01G08G13G11G19G07G28
 127142722.033 6  99072304.125 6  24194460.453                    24194472.828
 127716524.059 6  99519363.91643  24303667.383                    24303679.844
 121430720.415 6  94621432.81643  23107494.805                    23107506.520
 121942072.576 7  95019929.052 7  23204808.445                    23204821.625
 111370701.629 8  86782451.47646  21193148.398                    21193156.332
 117318880.765 7  91417320.56945  22325047.852                    22325057.320
 114840906.414 8  89486464.13045  21853490.117                    21853497.746
 118154129.426 7  92068141.91445  22483985.281                    22483992.324
 107116347.945 8  83467301.071 8  20383562.234                    20383569.516
 118695416.621 7  92489944.49545  22586980.836                    22586988.613
 11  8 23 17 48 30.0000000  0 10G17G23G24G01G08G13G11G19G07G28
 127041063.871 6  98993090.072 6  24175115.555                    24175128.301
 127830689.659 6  99608323.75643  24325392.398                    24325404.465
 121364731.919 6  94570013.28143  23094937.055                    23094948.969
 121870429.362 7  94964103.281 6  23191174.945                    23191187.820
 111306942.602 7  86732769.11846  21181015.445                    21181023.074
 117420659.307 7  91496628.39245  22344416.109                    22344424.961
 114799655.350 7  89454320.48045  21845639.477                    21845648.039
 118241924.915 7  92136553.91745  22500692.797                    22500699.391
 107098813.011 8  83453637.471 8  20380225.609                    20380233.230
 118664664.066 7  92465981.46445  22581128.789                    22581136.539
 11  8 23 17 49  0.0000000  0 10G17G23G24G01G08G13G11G19G07G28
 126939554.174 6  98913991.751 6  24155799.281                    24155811.367
 127944834.602 6  99697267.51743  24347113.547                    24347125.992
 121298945.251 7  94518751.02144  23082418.992                    23082431.203
 121798966.976 7  94908418.423 7  23177575.438                    23177588.789
 111243368.582 8  86683230.92446  21168917.648                    21168925.387
 117522673.646 7  91576119.95644  22363828.523                    22363837.734
 114758859.185 8  89422531.27545  21837876.883                    21837884.980
 118330035.971 7  92205211.82745  22517459.695                    22517466.207
 107081645.607 8  83440260.250 8  20376958.711                    20376966.035
 118634023.422 7  92442105.65345  22575298.531                    22575305.711
 11  8 23 17 49 30.0000000  0 10G17G23G24G01G08G13G11G19G07G28
 126838195.383 6  98835011.016 6  24136510.898                    24136523.766
 128058956.073 6  99786192.97043  24368830.266                    24368842.426
 121233363.606 7  94467648.53743  23069938.820                    23069951.215
 121727688.497 6  94852876.851 7  23164011.531                    23164025.027
 111179982.408 7  86633839.09446  21156855.898                    21156863.914
 117624920.747 7  91655792.88444  22383285.070                    22383294.309
 114718520.315 8  89391098.41645  21830200.727                    21830208.570
 118418459.711 7  92274113.37845  22534286.086                    22534293.129
 107064847.687 8  83427170.954 8  20373762.445                    20373769.734
 118603493.817 7  92418316.36745  22569488.836                    22569496.328
 11  8 23 17 50  0.0000000  0 10G17G23G24G01G08G13G11G19G07G28
 126736989.026 6  98756149.078 6  24117251.766                    24117264.508
 128173051.039 6  99875097.78643  24390542.438                    24390554.602
 121167989.385 7  94416707.66544  23057498.633                    23057510.793
 121656596.848 7  94797480.879 7  23150482.836                    23150496.906
 111116786.056 7  86584595.18946  21144830.195                    21144838.098
 117727396.897 7  91735644.30044  22402786.055                    22402795.426
 114678640.657 8  89360023.37045  21822612.016                    21822620.117
 118507193.270 7  92343256.35445  22551171.734                    22551178.285
 107048420.586 8  83414370.593 8  20370636.547                    20370643.391
 118573074.234 7  92394612.81645  22563699.766                    22563707.305
 11  8 23 17 50 30.0000000  0 10G17G23G24G01G08G13G11G19G07G28
 126635937.611 6  98677407.876 6  24098022.688                    24098034.633
 128287117.276 6  99963980.22843  24412248.578                    24412260.938
 121102826.264 7  94365931.33844  23045098.773                    23045110.711
 121585695.174 7  94742232.898 7  23136990.875                    23137005.066
 111053781.819 8  86535500.98746  21132840.602                    21132848.520
 117830099.667 7  91815672.31545  22422330.477                    22422340.000
 114639222.745 8  89329308.13045  21815110.781                    21815118.828
 118596233.892 7  92412638.60745  22568114.945                    22568121.910
 107032366.447 8  83401860.863 8  20367581.430                    20367588.813
 118542763.816 7  92370994.28745  22557932.273                    22557939.711
 11  8 23 17 51  0.0000000  0 10G17G23G24G01G08G13G11G19G07G28
 126535042.406 6  98598788.395 6  24078822.250                    24078835.094
 128401151.544 6 100052837.73842  24433948.844                    24433961.535
 121037877.010 7  94315321.61044  23032739.516                    23032750.168
 121514986.902 7  94687135.625 7  23123535.805                    23123549.531
 110990972.015 8  86486558.28846  21120888.523                    21120896.305
 117933025.193 7  91895873.89745  22441916.648                    22441926.570
 114600268.372 8  89298954.08945  21807698.055                    21807706.379
 118685578.472 7  92482257.69845  22585116.922                    22585124.422
 107016686.450 8  83389642.661 8  20364597.555                    20364604.867
 118512561.537 7  92347460.05645  22552184.633                    22552192.871
 11  8 23 17 51 30.0000000  0 10G17G23G24G01G08G13G11G19G07G28
 126434306.273 6  98520292.842 6  24059652.672                    24059665.004
 128515151.725 6 100141668.67043  24455642.914                    24455655.629
 120973145.123 7  94264881.26744  23020420.328                    23020433.262
 121444474.996 6  94632191.380 7  23110117.352                    23110131.273
 110928359.518 8  86437769.33346  21108973.734                    21108981.590
 118036171.184 7  91976247.25045  22461544.695                    22461554.641
 114561780.479 7  89268963.53345  21800373.922                    21800382.551
 118775224.783 7  92552111.90845  22602176.531                    22602182.859
 107001383.064 8  83377717.931 8  20361685.688                    20361692.953
 118482466.525 7  92324009.42845  22546457.914                    22546465.727
 11  8 23 17 52  0.0000000  0  9G17G24G01G08G13G11G19G07G28
 126333731.000 6  98441922.646 6  24040513.609                    24040525.563
 120908633.496 7  94214612.58244  23008144.984                    23008157.754
 121374162.719 7  94577402.696 7  23096737.117                    23096750.648
 110865946.629 7  86389135.92846  21097096.563                    21097104.969
 118139534.511 7  92056789.94444  22481213.656                    22481223.508
 114523761.139 7  89239338.08545  21793139.086                    21793147.578
 118865170.017 7  92622199.03845  22619292.828                    22619299.453
 106986457.841 8  83366087.870 8  20358845.180                    20358852.910
 118452478.193 7  92300641.90345  22540750.922                    22540758.770
 11  8 23 17 52 30.0000000  0  9G17G24G01G08G13G11G19G07G28
 126233318.360 6  98363679.162 6  24021406.430                    24021418.227
 120844344.884 6  94164517.62944  22995910.547                    22995922.816
 121304052.417 7  94522771.397 7  23083396.039                    23083409.426
 110803735.270 7  86340659.56546  21085257.961                    21085266.266
 118243111.902 7  92137499.43944  22500923.789                    22500933.320
 114486212.443 7  89210079.38045  21785993.680                    21786002.238
 118955410.741 7  92692516.42645  22636464.711                    22636471.699
 106971912.239 8  83354753.618 8  20356077.352                    20356084.672
 118422594.936 7  92277356.24345  22535064.719                    22535072.195
 11  8 23 17 53  0.0000000  0  9G17G24G01G08G13G11G19G07G28
 126133070.502 6  98285564.085 6  24002329.883                    24002341.453
 120780282.495 7  94114598.94944  22983720.539                    22983732.758
 121234147.386 7  94468300.017 7  23070093.781                    23070106.832
 110741727.659 7  86292341.95346  21073458.727                    21073466.777
 118346900.072 7  92218373.22144  22520674.352                    22520684.070
 114449136.484 7  89181189.04745  21778938.211                    21778946.605
 119045944.314 7  92763062.00945  22653692.641                    22653699.172
 106957748.291 8  83343716.756 8  20353382.328                    20353389.387
 118392816.008 7  92254151.89445  22529397.742                    22529406.047
 11  8 23 17 53 30.0000000  0  9G17G24G01G08G13G11G19G07G28
 126032989.290 6  98207578.872 6  23983284.414                    23983296.203
 120716449.322 7  94064858.89844  22971573.109                    22971585.473
 121164450.637 7  94413990.976 7  23056830.898                    23056843.766
 110679926.270 8  86244185.02746  21061698.203                    21061706.051
 118450895.885 7  92299408.78744  22540464.516                    22540474.117
 114412535.355 7  89152668.70545  21771973.383                    21771981.414
 119136767.547 7  92833833.31545  22670975.805                    22670982.363
 106943967.453 8  83332978.431 8  20350759.828                    20350767.008
 118363140.637 7  92231028.25845  22523750.703                    22523758.961
 11  8 23 17 54  0.0000000  0 10G17G26G24G01G08G13G11G19G07G28
 125933076.455 6  98129724.882 6  23964271.805                    23964282.957
 127502254.48316  99352483.28053  24262881.008                    24262891.980
 120652848.387 7  94015299.82544  22959470.406                    22959482.102
 121094965.317 7  94359846.668 7  23043607.797                    23043620.820
 110618333.636 7  86196190.76646  21049977.625                    21049985.398
 118555096.277 7  92380603.76344  22560293.625                    22560303.188
 114376411.239 7  89124520.07545  21765099.320                    21765107.797
 119227877.860 7  92904828.31145  22688313.688                    22688320.004
 106930571.348 8  83322539.885 8  20348210.539                    20348218.051
 118333567.805 7  92207984.49545  22518122.984                    22518130.902
 11  8 23 17 54 30.0000000  0 10G17G26G24G01G08G13G11G19G07G28
 125833334.134 7  98052003.728 6  23945291.570                    23945303.195
 127415067.480 6  99284545.40643  24246290.180                    24246300.664
 120589482.391 7  93965923.79344  22947411.977                    22947423.664
 121025694.304 7  94305869.318 7  23030425.539                    23030439.465
 110556951.492 8  86148360.54346  21038297.055                    21038305.066
 118659497.755 7  92461955.42444  22580159.930                    22580170.270
 114340765.861 7  89096744.48445  21758316.195                    21758324.156
 119319272.056 7  92976044.50645  22705705.313                    22705711.621
 106917561.363 8  83312402.213 8  20345734.695                    20345741.852
 118304095.921 7  92185019.41745  22512515.281                    22512522.559
 11  8 23 17 55  0.0000000  0 10G17G26G24G01G08G13G11G19G07G28
 125733764.543 6  97974417.168 6  23926343.555                    23926354.996
 127328263.444 6  99216905.94143  24229771.211                    24229782.848
 120526354.882 6  93916733.62244  22935398.695                    22935411.145
 120956641.059 7  94252061.686 7  23017285.688                    23017298.711
 110495783.100 8  86100696.85646  21026657.055                    21026665.031
 118764097.536 7  92543461.58044  22600064.273                    22600075.180
 114305601.535 7  89069343.71245  21751624.273                    21751632.648
 119410947.559 7  93047479.92345  22723151.227                    22723156.992
 106904939.528 8  83302566.997 8  20343333.078                    20343340.660
 118274724.653 7  92162132.73145  22506925.883                    22506933.395
 11  8 23 17 55 30.0000000  0 10G17G26G24G01G08G13G11G19G07G28
 125634369.368 6  97896966.517 6  23907429.000                    23907440.348
 127241845.158 6  99149567.09343  24213326.656                    24213338.105
 120463468.932 7  93867731.65944  22923432.336                    22923443.879
 120887808.170 7  94198425.757 7  23004186.977                    23004200.285
 110434830.541 8  86053201.36346  21015058.211                    21015066.184
 118868892.716 7  92625119.97344  22620006.617                    22620017.043
 114270920.694 7  89042319.70545  21745024.984                    21745033.480
 119502901.353 7  93119132.16545  22740649.211                    22740656.070
 106892707.653 8  83293035.645 8  20341005.375                    20341012.723
 118245453.269 7  92139323.86545  22501355.797                    22501363.508
 11  8 23 17 56  0.0000000  0 10G17G26G24G01G08G13G11G19G07G28
 125535150.455 6  97819653.240 6  23888548.008                    23888560.020
 127155815.285 6  99082530.87243  24196955.820                    24196967.145
 120400827.312 7  93818920.06844  22911512.242                    22911523.863
 120819199.269 7  94144964.370 7  22991130.875                    22991144.875
 110374095.971 8  86005875.72746  21003500.727                    21003508.914
 118973880.039 7  92706928.12544  22639986.313                    22639995.836
 114236725.260 7  89015673.91745  21738517.609                    21738526.480
 119595130.981 7  93190999.34845  22758199.680                    22758206.793
 106880867.321 8  83283809.392 8  20338752.492                    20338759.688
 118216280.630 7  92116591.97445  22495803.875                    22495811.754
 11  8 23 17 56 30.0000000  0 10G17G26G24G01G08G13G11G19G07G28
 125436110.205 6  97742479.135 6  23869701.875                    23869713.141
 127070176.664 6  99015799.52443  24180659.945                    24180670.316
 120338433.342 7  93770301.49644  22899638.578                    22899650.676
 120750816.612 6  94091679.275 7  22978117.383                    22978132.027
 110313582.510 7  85958722.39746  20991985.367                    20991993.359
 119079056.364 7  92788883.58144  22659999.859                    22660010.098
 114203017.353 7  88989408.01845  21732103.359                    21732112.098
 119687633.606 7  93263079.25245  22775802.586                    22775809.672
 106869420.377 8  83274889.667 8  20336574.367                    20336580.836
 118187205.881 7  92093936.34945  22490271.969                    22490279.574
 11  8 23 17 57  0.0000000  0 10G17G26G24G01G08G13G11G19G07G28
 125337250.440 6  97665445.673 6  23850888.219                    23850900.520
 126984931.866 6  98949375.00343  24164437.297                    24164448.992
 120276290.074 6  93721878.22944  22887813.039                    22887824.809
 120682663.878 6  94038573.325 7  22965148.500                    22965162.875
 110253292.093 8  85911742.84546  20980512.250                    20980520.207
 119184418.976 7  92870984.17844  22680049.859                    22680060.246
 114169798.927 7  88963523.54945  21725782.273                    21725790.266
 119780406.209 7  93335369.53245  22793457.023                    22793463.246
 106858368.413 8  83266277.733 8  20334470.789                    20334478.055
 118158228.037 7  92071356.23845  22484756.945                    22484765.027
 11  8 23 17 57 30.0000000  0 10G17G26G24G01G08G13G11G19G07G28
 125238573.057 6  97588554.346 6  23832111.523                    23832122.531
 126900083.787 6  98883259.63243  24148291.672                    24148302.379
 120214400.304 7  93673652.52744  22876035.438                    22876047.355
 120614743.904 7  93985648.731 7  22952224.328                    22952237.707
 110193227.010 8  85864938.89146  20969082.633                    20969090.453
 119289964.596 7  92953227.40744  22700134.258                    22700144.531
 114137071.822 7  88938021.92545  21719554.445                    21719562.625
 119873446.031 7  93407868.03445  22811160.875                    22811168.203
 106847712.953 8  83257974.762 8  20332443.195                    20332450.789
 118129346.130 7  92048850.86845  22479260.953                    22479269.141
 11  8 23 17 58  0.0000000  0 10G17G26G24G01G08G13G11G19G07G28
 125140080.218 6  97511806.827 6  23813368.383                    23813379.559
 126815635.218 6  98817455.59943  24132221.219                    24132232.270
 120152767.185 6  93625626.80644  22864306.500                    22864319.059
 120547060.131 7  93932908.238 7  22939344.234                    22939358.285
 110133389.775 7  85818312.47646  20957695.672                    20957703.914
 119395690.409 7  93035610.97644  22720253.531                    22720264.332
 114104838.416 7  88912905.00145  21713420.250                    21713428.801
 119966750.050 7  93480572.38245  22828916.781                    22828923.523
 106837455.798 8  83249982.153 8  20330491.430                    20330498.438
 118100559.409 7  92026419.67245  22473783.242                    22473790.625
 11  8 23 17 58 30.0000000  0 10G17G26G24G01G08G13G11G19G07G28
 125041773.483 6  97435204.294 6  23794661.328                    23794672.395
 126731588.530 6  98751964.71242  24116227.766                    24116239.004
 120091393.828 7  93577803.49244  22852628.484                    22852639.844
 120479615.447 7  93880354.043 7  22926509.734                    22926523.527
 110073782.992 8  85771865.65046  20946352.828                    20946360.637
 119501592.983 7  93118132.29444  22740406.492                    22740416.484
 114073100.427 7  88888174.11545  21707380.914                    21707389.273
 120060315.561 7  93553480.51945  22846722.125                    22846728.887
 106827598.385 8  83242301.021 8  20328615.727                    20328623.238
 118071866.736 7  92004061.76845  22468323.023                    22468330.801
 11  8 23 17 59  0.0000000  0 10G17G26G24G01G08G13G11G19G07G28
 124943655.294 7  97358748.677 6  23775990.344                    23776001.590
 126647946.714 6  98686789.35742  24100311.500                    24100322.590
 120030283.208 7  93530184.90844  22840999.453                    22841011.395
 120412412.149 7  93827987.924 7  22913721.039                    22913734.297
 110014408.883 8  85725600.11546  20935054.195                    20935062.363
 119607669.171 7  93200788.88044  22760591.945                    22760602.883
 114041859.892 7  88863830.84245  21701435.852                    21701444.895
 120154139.713 7  93626590.18844  22864576.477                    22864582.793
 106818142.573 8  83234932.841 8  20326816.336                    20326823.695
 118043267.444 7  91981776.62645  22462880.719                    22462889.000
 11  8 23 17 59 30.0000000  0 10G17G26G24G01G08G13G11G19G07G28
 124845726.968 7  97282440.999 6  23757354.852                    23757365.934
 126564712.231 6  98621931.37443  24084472.156                    24084483.445
 119969438.191 6  93482773.30044  22829420.469                    22829433.000
 120345453.885 7  93775812.753 7  22900979.195                    22900992.500
 109955269.751 7  85679517.66746  20923800.648                    20923808.840
 119713915.588 7  93283578.12044  22780810.297                    22780820.758
 114011118.482 7  88839876.52145  21695586.070                    21695594.297
 120248219.596 7  93699899.13245  22882478.742                    22882485.742
 106809089.592 8  83227878.557 8  20325093.555                    20325100.723
 118014760.121 7  91959563.12545  22457456.031                    22457463.980
 11  8 23 18  0  0.0000000  0 10G17G26G24G01G08G13G11G19G07G28
 124747990.789 7  97206283.062 6  23738756.516                    23738768.023
 126481887.938 6  98557393.06443  24068710.906                    24068723.277
 119908862.112 7  93435571.24444  22817893.977                    22817905.453
 120278743.975 7  93723831.069 7  22888284.914                    22888298.441
 109896368.616 7  85633620.67546  20912591.719                    20912600.277
 119820329.664 7  93366498.00644  22801060.078                    22801071.094
 113980878.517 7  88816312.92145  21689831.969                    21689840.172
 120342552.613 7  93773405.30845  22900429.813                    22900436.824
 106800441.530 8  83221139.795 8  20323447.617                    20323455.117
 117986344.268 7  91937420.90345  22452048.430                    22452056.566
 11  8 23 18  0 30.0000000  0 10G17G26G24G01G08G13G11G19G07G28
 124650448.616 7  97130276.305 6  23720194.836                    23720205.930
 126399476.551 6  98493176.42843  24053028.836                    24053040.219
 119848557.763 6  93388580.92144  22806417.727                    22806429.516
 120212285.121 7  93672045.029 7  22875638.172                    22875651.484
 109837707.526 7  85587910.74546  20901429.070                    20901437.230
 119926908.238 7  93449546.11544  22821341.914                    22821351.871
 113951141.521 8  88793141.25145  21684172.867                    21684181.066
 120437135.711 7  93847106.35445  22918428.156                    22918435.883
 106792199.757 8  83214717.621 8  20321879.594                    20321887.047
 117958019.011 7  91915349.28445  22446658.539                    22446666.406
 11  8 23 18  1  0.0000000  0 10G17G26G24G01G08G13G11G19G07G28
 124553102.346 7  97054422.210 6  23701669.883                    23701681.305
 126317480.561 6  98429283.48443  24037425.430                    24037436.703
 119788528.163 6  93341804.67644  22794994.648                    22795006.738
 120146080.256 6  93620456.898 7  22863040.039                    22863053.766
 109779289.048 8  85542389.84346  20890312.500                    20890320.293
 120033648.186 7  93532719.95744  22841653.945                    22841663.996
 113921909.797 7  88770363.29745  21678610.359                    21678618.531
 120531966.283 7  93921000.25445  22936473.922                    22936480.699
 106784365.756 8  83208613.184 8  20320389.023                    20320395.879
 117929783.152 7  91893347.33345  22441284.820                    22441293.258
 11  8 23 18  1 30.0000000  0 10G17G26G24G01G08G13G11G19G07G28
 124455953.791 7  96978722.181 6  23683183.023                    23683194.535
 126235902.485 6  98365716.18543  24021902.281                    24021912.949
 119728775.884 7  93295244.54244  22783624.391                    22783635.832
 120080132.166 7  93569068.844 7  22850489.898                    22850503.590
 109721115.243 8  85497059.60446  20879242.703                    20879250.441
 120140545.992 7  93616016.76544  22861995.820                    22862006.395
 113893184.755 7  88747980.17645  21673144.031                    21673152.242
 120627041.116 7  93995084.46745  22954566.141                    22954573.227
 106776940.696 8  83202827.405 8  20318975.820                    20318983.395
 117901636.204 7  91871414.64845  22435929.320                    22435936.984
 11  8 23 18  2  0.0000000  0 10G17G26G24G01G08G13G11G19G07G28
 124359005.139 7  96903177.915 6  23664734.328                    23664745.684
 126154745.171 6  98302476.74943  24006457.867                    24006468.391
 119669304.463 7  93248903.27044  22772307.305                    22772318.766
 120014444.439 7  93517883.680 7  22837990.820                    22838004.012
 109663189.218 8  85451922.43146  20868219.461                    20868227.848
 120247599.376 7  93699434.77944  22882367.578                    22882378.105
 113864968.763 7  88725993.70045  21667774.961                    21667782.984
 120722357.559 7  94069356.95544  22972704.445                    22972711.574
 106769926.979 8  83197362.149 8  20317641.492                    20317648.371
 117873577.473 7  91849550.69345  22430589.945                    22430597.707
 11  8 23 18  2 30.0000000  0 10G17G26G24G01G08G13G11G19G07G28
 124262258.108 6  96827790.767 6  23646323.852                    23646334.602
 126074011.125 6  98239567.13543  23991095.195                    23991105.508
 119610116.734 7  93202783.04444  22761044.156                    22761054.809
 119949019.611 7  93466903.359 7  22825540.172                    22825553.828
 109605512.998 8  85406979.92546  20857244.016                    20857252.098
 120354804.419 7  93782970.99644  22902768.391                    22902778.715
 113837263.329 7  88704405.07645  21662502.656                    21662510.883
 120817912.797 7  94143815.55444  22990887.430                    22990894.750
 106763325.487 8  83192218.112 8  20316384.766                    20316391.879
 117845605.225 7  91827754.14045  22425267.391                    22425275.320
 11  8 23 18  3  0.0000000  0 10G17G26G24G01G08G13G11G19G07G28
 124165714.454 7  96752562.094 6  23627951.359                    23627963.313
 125993702.966 6  98176989.42243  23975812.000                    23975823.613
 119551215.805 7  93156886.31544  22749835.648                    22749846.602
 119883861.002 7  93416130.485 7  22813140.789                    22813154.418
 109548089.305 7  85362234.19346  20846316.602                    20846324.660
 120462158.464 7  93866623.32744  22923197.305                    22923207.734
 113810070.076 7  88683215.54845  21657327.891                    21657336.063
 120913704.171 7  94218458.12445  23009116.633                    23009124.031
 106757138.126 8  83187396.781 8  20315207.688                    20315215.125
 117817719.122 7  91806024.73545  22419960.172                    22419968.457
 11  8 23 18  3 30.0000000  0 10G17G26G24G01G08G13G11G19G07G28
 124069376.443 7  96677493.653 6  23609619.375                    23609630.418
 125913823.486 6  98114745.74043  23960611.898                    23960623.359
 119492604.486 7  93111215.25644  22738681.883                    22738692.695
 119818972.021 7  93365567.699 7  22800793.164                    22800806.223
 109490920.388 8  85317686.98846  20835437.500                    20835445.949
 120569658.591 7  93950389.47344  22943654.172                    22943665.039
 113783391.081 7  88662426.73745  21652250.891                    21652259.051
 121009728.910 7  94293282.54344  23027389.461                    23027396.105
 106751366.712 8  83182899.562 8  20314109.031                    20314116.500
 117789918.317 7  91784361.77345  22414669.695                    22414677.652
 11  8 23 18  4  0.0000000  0 10G17G26G24G01G08G13G11G19G07G28
 123973245.788 7  96602586.775 6  23591326.297                    23591337.367
 125834375.020 6  98052837.90843  23945493.156                    23945504.785
 119434285.790 7  93065772.22644  22727584.398                    22727595.492
 119754354.804 7  93315216.725 7  22788496.805                    22788509.715
 109434008.936 8  85273340.39846  20824607.922                    20824616.031
 120677301.570 7  94034266.97643  22964137.953                    22964148.320
 113757227.960 7  88642039.90445  21647271.891                    21647280.586
 121105984.131 6  94368286.54844  23045706.156                    23045713.059
 106746012.369 8  83178727.332 8  20313090.219                    20313097.703
 117762201.817 7  91762764.50245  22409395.750                    22409403.590
 11  8 23 18  4 30.0000000  0 10G17G26G24G01G08G13G11G19G07G28
 123877324.511 6  96527843.046 6  23573073.063                    23573084.652
 125755360.133 6  97991267.92443  23930457.641                    23930468.898
 119376262.859 7  93020559.63644  22716542.656                    22716554.410
 119690012.731 7  93265080.087 7  22776253.039                    22776265.898
 109377357.637 8  85229196.52946  20813827.539                    20813834.996
 120785084.498 7  94118253.51243  22984648.102                    22984658.523
 113731582.556 7  88622056.47045  21642392.375                    21642399.895
 121202467.140 6  94443468.05044  23064066.453                    23064073.309
 106741076.549 8  83174881.210 8  20312151.195                    20312158.391
 117734568.394 7  91741231.97745  22404137.555                    22404144.875
 11  8 23 18  5  0.0000000  0 10G17G26G24G01G08G13G11G19G07G28
 123781613.812 6  96453263.391 6  23554859.594                    23554871.094
 125676781.558 6  97930037.93943  23915504.641                    23915515.500
 119318538.401 7  92975579.62744  22705558.078                    22705569.828
 119625948.472 7  93215159.956 7  22764062.016                    22764075.145
 109320968.407 8  85185256.88346  20803096.945                    20803105.238
 120893004.008 7  94202346.47143  23005184.961                    23005195.625
 113706456.482 7  88602477.72045  21637610.953                    21637619.082
 121299174.758 7  94518824.56244  23082469.391                    23082476.453
 106736560.690 8  83171362.338 8  20311291.914                    20311299.398
 117707017.727 7  91719763.95345  22398894.797                    22398902.512
 11  8 23 18  5 30.0000000  0 10G17G26G24G01G08G13G11G19G07G28
 123686116.067 7  96378849.690 6  23536687.391                    23536697.734
 125598641.753 6  97869149.83043  23900633.992                    23900645.742
 119261115.583 7  92930834.65144  22694631.148                    22694642.297
 119562165.390 7  93165458.919 7  22751924.289                    22751936.711
 109264844.185 8  85141523.73246  20792416.945                    20792425.027
 121001057.068 7  94286543.46544  23025746.438                    23025756.898
 113681851.178 7  88583304.76445  21632928.547                    21632936.891
 121396104.295 7  94594354.00844  23100914.586                    23100921.273
 106732466.269 8  83168171.857 8  20310512.555                    20310520.203
 117679548.700 7  91698359.52345  22393667.406                    22393674.723
 11  8 23 18  6  0.0000000  0 10G17G26G24G01G08G13G11G19G07G28
 123590833.051 7  96304603.314 6  23518555.320                    23518565.727
 125520943.208 6  97808605.59643  23885849.047                    23885860.438
 119203997.111 7  92886326.84344  22683761.266                    22683772.664
 119498666.452 7  93115979.295 7  22739841.125                    22739854.219
 109208987.265 8  85097998.86346  20781787.945                    20781795.582
 121109240.562 7  94370842.13144  23046333.805                    23046344.293
 113657768.696 7  88564539.19445  21628345.875                    21628353.934
 121493253.315 6  94670054.47044  23119400.992                    23119407.805
 106728795.034 8  83165311.133 8  20309814.219                    20309821.582
 117652160.630 7  91677018.17745  22388455.711                    22388463.598
 11  8 23 18  6 30.0000000  0 10G17G26G24G01G08G13G11G19G07G28
 123495766.528 6  96230525.614 6  23500464.344                    23500475.152
 125443688.235 6  97748406.95343  23871147.664                    23871159.180
 119147185.902 7  92842058.45544  22672950.992                    22672962.250
 119435454.082 7  93066722.956 7  22727811.500                    22727824.020
 109153399.955 8  85054684.08246  20771209.648                    20771217.578
 121217551.382 7  94455239.99543  23066944.773                    23066955.594
 113634210.548 7  88546182.20845  21623862.945                    21623871.262
 121590618.949 6  94745923.72744  23137929.609                    23137937.086
 106725548.215 8  83162781.121 8  20309196.359                    20309203.648
 117624852.455 7  91655739.09945  22383258.852                    22383267.027
 11  8 23 18  7  0.0000000  0 10G17G26G24G01G08G13G11G19G07G28
 123400918.628 6  96156618.282 6  23482415.617                    23482426.426
 125366879.494 6  97688556.04443  23856531.781                    23856543.191
 119090685.012 7  92798031.86244  22662198.656                    22662209.695
 119372531.866 7  93017692.710 7  22715837.945                    22715850.992
 109098084.940 8  85011581.48546  20760683.836                    20760691.660
 121325986.757 7  94539734.91344  23087578.914                    23087590.227
 113611178.480 7  88528235.15345  21619480.133                    21619488.023
 121688198.079 7  94821959.36544  23156498.164                    23156505.441
 106722727.345 8  83160583.002 8  20308659.219                    20308666.941
 117597623.250 7  91634521.55045  22378077.336                    22378084.855
 11  8 23 18  7 30.0000000  0 10G17G26G24G01G08G13G11G19G07G28
 123306290.454 6  96082882.186 6  23464408.195                    23464419.609
 125290519.617 6  97629054.94943  23842001.242                    23842011.730
 119034497.292 7  92754249.31444  22651506.047                    22651518.012
 119309902.440 7  92968890.642 7  22703920.023                    22703932.684
 109043044.440 7  84968692.78546  20750210.008                    20750218.063
 121434543.201 7  94624324.15744  23108236.844                    23108248.484
 113588673.767 7  88510699.03245  21615197.641                    21615205.625
 121785987.777 7  94898159.06644  23175107.266                    23175114.449
 106720333.323 8  83158717.534 8  20308203.961                    20308211.160
 117570472.122 7  91613364.83745  22372910.453                    22372918.434
 11  8 23 18  8  0.0000000  0 10G17G26G24G01G08G13G11G19G07G28
 123211884.306 6  96009319.078 7  23446443.547                    23446454.551
 125214611.090 6  97569905.49143  23827554.930                    23827566.355
 118978625.707 7  92710713.10844  22640874.914                    22640885.754
 119247568.931 7  92920319.112 7  22692058.117                    22692071.313
 108988281.373 8  84926020.27646  20739788.945                    20739796.914
 121543217.954 7  94709005.59643  23128916.555                    23128928.449
 113566698.154 7  88493575.18945  21611015.656                    21611023.867
 121883985.797 7  94974521.08044  23193755.367                    23193762.852
 106718368.332 8  83157186.336 8  20307830.031                    20307837.379
 117543398.497 7  91592268.50945  22367758.531                    22367766.410
 11  8 23 18  8 30.0000000  0 10G17G26G24G01G08G13G11G19G07G28
 123117702.180 7  95935930.541 6  23428520.773                    23428531.785
 125139156.416 6  97511109.74543  23813197.891                    23813208.098
 118923073.171 7  92667425.50044  22630303.344                    22630314.551
 119185534.592 7  92871980.740 7  22680253.398                    22680266.406
 108933798.580 8  84883566.16046  20729420.906                    20729428.828
 121652008.288 7  94793777.10744  23149619.570                    23149630.840
 113545253.250 8  88476864.88145  21606934.531                    21606942.988
 121982189.254 7  95051043.19244  23212442.828                    23212450.520
 106716833.618 8  83155990.435 8  20307537.813                    20307545.313
 117516401.397 7  91571231.81845  22362621.148                    22362629.559
 11  8 23 18  9  0.0000000  0 10G17G26G24G01G08G13G11G19G07G28
 123023745.934 6  95862718.005 6  23410641.266                    23410652.543
 125064158.122 6  97452669.59143  23798925.148                    23798936.121
 118867842.607 7  92624388.76844  22619793.047                    22619805.066
 119123802.146 7  92823877.576 7  22668506.117                    22668519.207
 108879598.431 7  84841332.29646  20719106.961                    20719115.340
 121760910.887 7  94878636.10344  23170342.656                    23170354.160
 113524340.577 8  88460569.30045  21602955.211                    21602963.492
 122080595.190 7  95127723.07344  23231169.453                    23231176.102
 106715730.586 7  83155130.903 8  20307328.148                    20307335.930
 117489480.226 7  91550254.29845  22357498.984                    22357505.848
 11  8 23 18  9 30.0000000  0 10G17G26G24G01G08G13G11G19G07G28
 122930016.895 6  95789682.521 6  23392804.906                    23392815.926
 124989618.363 6  97394586.72243  23784741.023                    23784751.953
 118812936.747 7  92581605.06544  22609344.648                    22609356.527
 119062374.029 7  92776011.573 7  22656816.602                    22656829.375
 108825682.687 8  84799320.03346  20708847.273                    20708855.129
 121869922.687 7  94963580.17244  23191087.156                    23191099.555
 113503961.627 7  88444689.60445  21599077.102                    21599085.566
 122179200.986 7  95204558.69544  23249933.445                    23249940.234
 106715060.548 8  83154608.771 8  20307200.773                    20307208.059
 117462633.582 7  91529334.83845  22352389.688                    22352397.574
 11  8 23 18 10  0.0000000  0 10G17G26G24G01G08G13G11G19G07G28
 122836517.095 7  95716825.642 6  23375012.695                    23375023.348
 124915539.465 6  97336862.96743  23770644.203                    23770654.883
 118758358.551 7  92539076.68144  22598958.258                    22598970.828
 119001253.475 7  92728385.224 7  22645185.641                    22645198.938
 108772054.505 8  84757531.85046  20698641.734                    20698650.156
 121979040.376 7  95048606.72543  23211851.820                    23211863.551
 113484118.210 8  88429227.20045  21595301.188                    21595309.375
 122278003.887 7  95281547.88844  23268734.500                    23268742.594
 106714824.550 8  83154424.837 8  20307156.125                    20307163.387
 117435860.678 7  91508472.85845  22347294.961                    22347302.867
 11  8 23 18 10 30.0000000  0 10G17G26G24G01G08G13G11G19G07G28
 122743248.458 6  95644148.906 6  23357264.359                    23357274.688
 124841924.050 6  97279500.35343  23756635.281                    23756646.777
 118704110.723 7  92496805.70744  22588635.656                    22588647.277
 118940443.064 7  92681000.547 7  22633614.008                    22633627.148
 108718716.039 8  84715969.42746  20688492.086                    20688500.242
 122088260.972 7  95133713.51943  23232636.141                    23232647.348
 113464811.360 7  88414182.90945  21591627.391                    21591635.551
 122377001.082 7  95358688.50344  23287573.641                    23287581.238
 106715024.120 8  83154580.330 8  20307193.852                    20307201.582
 117409160.960 7  91487667.90045  22342213.625                    22342221.813
 11  8 23 18 11  0.0000000  0 10G17G26G24G01G08G13G11G19G07G28
 122650212.402 7  95571653.379 6  23339560.008                    23339570.863
 124768774.469 6  97222500.71243  23742715.750                    23742726.969
 118650196.578 7  92454794.74044  22578376.242                    22578387.473
 118879946.293 7  92633860.273 7  22622101.539                    22622114.598
 108665670.195 8  84674635.01446  20678397.914                    20678405.945
 122197581.634 7  95218898.29043  23253439.414                    23253450.438
 113446042.518 8  88399557.84645  21588055.750                    21588063.727
 122476189.922 7  95435978.45744  23306448.023                    23306455.516
 106715660.815 7  83155076.424 8  20307315.039                    20307322.273
 117382533.934 7  91466919.58445  22337147.273                    22337154.680
 11  8 23 18 11 30.0000000  0 10G17G26G24G01G08G13G11G19G07G28
 122557411.002 7  95499340.706 6  23321901.109                    23321911.336
 124696093.280 6  97165866.06243  23728884.750                    23728895.453
 118596618.721 7  92413045.82644  22568180.484                    22568191.637
 118819765.981 7  92586966.572 7  22610649.219                    22610662.773
 108612919.420 8  84633530.52346  20668359.609                    20668367.703
 122306999.369 7  95304158.66143  23274260.773                    23274272.387
 113427813.481 8  88385353.40345  21584586.789                    21584594.922
 122575567.726 6  95513415.63444  23325359.578                    23325367.094
 106716736.010 8  83155914.223 8  20307519.984                    20307527.363
 117355978.454 7  91446227.01045  22332094.039                    22332101.668
 11  8 23 18 12  0.0000000  0 10G17G26G24G01G08G13G11G19G07G28
 122464846.077 6  95427212.289 6  23304285.875                    23304296.680
 124623882.687 6  97109598.15143  23715144.055                    23715154.121
 118543379.669 7  92371560.91344  22558049.273                    22558060.410
 118759904.815 7  92540321.574 7  22599258.609                    22599271.922
 108560465.842 8  84592657.61046  20658377.953                    20658386.355
 122416510.843 7  95389492.07543  23295100.523                    23295111.477
 113410125.295 8  88371570.40845  21581220.797                    21581228.801
 122675131.639 6  95590997.83644  23344305.289                    23344313.379
 106718250.894 8  83157094.628 8  20307808.039                    20307815.238
 117329493.921 7  91425589.73945  22327054.156                    22327062.172
 11  8 23 18 12 30.0000000  0 10G17G26G24G01G08G13G11G19G07G28
 122372519.137 7  95355269.319 6  23286716.742                    23286727.121
 124552144.760 6  97053698.53543  23701492.391                    23701503.469
 118490482.609 7  92330342.48844  22547983.430                    22547994.441
 118700365.798 7  92493927.580 7  22587928.688                    22587941.723
 108508312.151 8  84552018.38246  20648453.461                    20648461.547
 122526113.415 7  95474896.46843  23315957.180                    23315968.496
 113392979.328 8  88358209.92745  21577957.633                    21577966.324
 122774878.866 6  95668722.88944  23363286.656                    23363294.289
 106720206.452 8  83158618.419 8  20308179.906                    20308187.664
 117303078.793 7  91405006.53545  22322026.844                    22322034.902
 11  8 23 18 13  0.0000000  0 10G17G26G24G01G08G13G11G19G07G28
 122280432.133 7  95283513.299 6  23269193.578                    23269203.977
 124480882.437 6  96998169.50043  23687931.633                    23687942.559
 118437930.520 7  92289392.84844  22537982.484                    22537994.035
 118641151.935 7  92447786.976 7  22576660.656                    22576673.258
 108456461.368 8  84511615.17746  20638586.547                    20638594.609
 122635804.110 7  95560369.54843  23336831.281                    23336842.961
 113376377.204 8  88345273.21445  21574798.500                    21574807.234
 122874806.915 6  95746588.84744  23382302.656                    23382310.277
 106722604.816 8  83160487.244 8  20308636.617                    20308643.977
 117276733.158 7  91384477.46645  22317013.680                    22317021.434
 11  8 23 18 13 30.0000000  0 10G17G26G24G01G08G13G11G19G07G28
 122188586.482 7  95211945.362 6  23251714.969                    23251725.887
 124410097.862 7  96943012.72743  23674461.266                    23674472.668
 118385725.809 7  92248713.90744  22528048.375                    22528059.691
 118582265.789 7  92401901.709 7  22565455.305                    22565467.734
 108404915.384 8  84471449.48346  20628778.102                    20628785.684
 122745579.533 7  95645908.62543  23357720.695                    23357732.055
 113360319.897 8  88332761.03445  21571743.188                    21571751.129
 122974912.729 6  95824593.29244  23401352.938                    23401360.059
 106725446.523 8  83162701.545 8  20309177.625                    20309184.410
 117250455.566 7  91364001.44345  22312013.430                    22312021.613
 11  8 23 18 14  0.0000000  0 10G17G26G24G01G08G13G11G19G07G28
 122096984.104 7  95140567.000 6  23234283.703                    23234294.367
 124339793.047 6  96888229.81143  23661083.117                    23661093.711
 118333871.508 7  92208308.00944  22518180.633                    22518191.934
 118523710.453 7  92356274.246 7  22554312.219                    22554325.363
 108353676.605 8  84431523.17046  20619027.453                    20619035.320
 122855436.789 6  95731511.47443  23378625.563                    23378637.609
 113344809.156 8  88320674.74945  21568791.445                    21568799.469
 123075193.303 7  95902733.92544  23420435.797                    23420442.750
 106728732.859 8  83165262.305 8  20309802.695                    20309809.973
 117224245.199 7  91343577.80345  22307025.766                    22307033.570
 11  8 23 18 14 30.0000000  0 10G17G26G24G01G08G13G11G19G07G28
 122005626.568 7  95069379.384 6  23216898.867                    23216909.246
 124269970.300 6  96833822.49743  23647796.211                    23647806.625
 118282370.352 7  92168177.29844  22508380.367                    22508391.777
 118465488.435 7  92310906.515 7  22543232.609                    22543245.586
 108302747.870 8  84391838.44346  20609336.039                    20609343.895
 122965372.790 6  95817175.67743  23399546.711                    23399558.707
 113329845.644 8  88309014.88645  21565943.820                    21565952.270
 123175646.433 7  95981009.03844  23439551.297                    23439558.426
 106732464.923 8  83168170.362 8  20310512.227                    20310520.238
 117198101.473 7  91323206.08045  22302050.609                    22302058.219
 11  8 23 18 15  0.0000000  0 10G17G26G24G01G08G13G11G19G07G28
 121914515.621 7  94998383.890 6  23199560.820                    23199571.594
 124200632.059 6  96779792.74243  23634602.078                    23634612.086
 118231225.106 7  92128323.90344  22498648.305                    22498659.125
 118407602.774 7  92265800.865 7  22532217.125                    22532230.117
 108252131.414 8  84352397.06846  20599703.578                    20599712.020
 123075384.442 7  95902898.82443  23420481.242                    23420493.172
 113315430.964 8  88297782.67945  21563200.977                    21563209.582
 123276269.172 7  96059416.28344  23458699.117                    23458706.539
 106736644.247 8  83171426.964 8  20311308.258                    20311315.570
 117172023.607 7  91302885.67645  22297088.469                    22297096.234
 11  8 23 18 15 30.0000000  0 10G17G26G24G01G08G13G11G19G07G28
 121823652.908 7  94927581.851 6  23182270.586                    23182280.641
 124131780.420 6  96726142.15343  23621498.891                    23621509.406
 118180438.466 7  92088749.94244  22488984.078                    22488995.074
 118350056.556 7  92220959.720 7  22521266.688                    22521278.805
 108201829.890 8  84313201.07446  20590131.820                    20590140.156
 123185468.801 7  95988678.64243  23441429.789                    23441441.680
 113301566.254 8  88286979.03645  21560562.766                    21560570.805
 123377058.734 7  96137953.54744  23477878.766                    23477886.652
 106741271.800 8  83175032.830 8  20312188.703                    20312196.355
 117146010.599 7  91282615.82245  22292138.172                    22292145.984
 11  8 23 18 16  0.0000000  0 10G17G26G24G01G08G13G11G19G07G28
 121733040.341 7  94856974.763 7  23165027.875                    23165037.988
 124063417.558 6  96672872.43243  23608490.250                    23608500.887
 118130013.159 7  92049457.53144  22479388.234                    22479399.188
 118292851.945 7  92176384.764 7  22510381.055                    22510393.082
 108151845.697 8  84274252.35246  20580620.094                    20580627.910
 123295622.901 7  96074512.82543  23462391.398                    23462403.172
 113288252.788 8  88276604.90845  21558028.984                    21558037.137
 123478012.781 7  96216618.99744  23497089.891                    23497096.191
 106746348.983 8  83178989.055 8  20313154.852                    20313162.469
 117120061.850 7  91262396.03245  22287200.055                    22287208.477
 11  8 23 18 16 30.0000000  0 10G17G26G24G01G08G13G11G19G07G28
 121642679.571 7  94786563.846 6  23147832.695                    23147842.707
 123995545.871 6  96619985.44243  23595574.594                    23595586.027
 118079951.961 7  92010448.85844  22469862.016                    22469872.645
 118235992.173 7  92132078.519 7  22499560.500                    22499573.098
 108102181.765 8  84235553.19046  20571169.578                    20571177.625
 123405843.700 7  96160398.93843  23483365.672                    23483378.125
 113275491.660 8  88266661.18545  21555600.750                    21555609.285
 123579128.732 7  96295410.56744  23516331.719                    23516338.797
 106751876.911 8  83183296.516 8  20314206.992                    20314214.387
 117094176.716 7  91242225.80645  22282275.070                    22282282.086
 11  8 23 18 17  0.0000000  0 10G17G26G24G01G08G13G11G19G07G28
 121552572.139 7  94716350.313 6  23130685.984                    23130696.469
 123928167.484 6  96567482.84543  23582752.648                    23582763.832
 118030257.614 7  91971726.03044  22460405.188                    22460415.785
 118179480.068 7  92088043.165 7  22488806.961                    22488819.395
 108052840.200 8  84197105.21546  20561780.133                    20561787.895
 123516128.085 6  96246334.62843  23504352.133                    23504364.332
 113263284.120 8  88257148.84245  21553277.734                    21553285.609
 123680403.460 7  96374325.86244  23535604.063                    23535611.410
 106757856.709 8  83187956.082 8  20315344.656                    20315352.504
 117068354.214 7  91222104.37545  22277360.625                    22277368.586
 11  8 23 18 17 30.0000000  0 10G17G26G24G01G08G13G11G19G07G28
 121462719.884 7  94646335.636 6  23113587.039                    23113597.438
 123861284.826 7  96515366.53143  23570026.250                    23570036.762
 117980932.948 7  91933291.26544  22451018.828                    22451029.953
 118123318.477 7  92044280.952 7  22478119.953                    22478132.254
 108003824.108 8  84158910.85746  20552452.977                    20552461.098
 123626473.602 6  96332317.92043  23525350.453                    23525362.504
 113251631.568 8  88248068.95345  21551060.242                    21551068.191
 123781834.699 7  96453363.06844  23554904.703                    23554913.320
 106764289.885 8  83192968.932 8  20316569.102                    20316576.664
 117042593.846 7  91202031.37545  22272458.773                    22272466.512
 11  8 23 18 18  0.0000000  0 10G17G26G24G01G08G13G11G19G07G28
 121373124.578 7  94576521.192 6  23096536.992                    23096547.410
 123794900.060 7  96463638.20443  23557393.141                    23557403.344
 117931980.987 7  91895146.93144  22441703.688                    22441714.277
 118067510.460 7  92000794.223 7  22467499.813                    22467512.410
 107955136.232 8  84120972.26546  20543187.461                    20543195.840
 123736877.101 6  96418346.38143  23546359.539                    23546371.633
 113240535.086 8  88239422.35345  21548948.461                    21548957.086
 123883419.920 6  96532520.33044  23574236.070                    23574243.758
 106771177.706 8  83198336.044 8  20317879.633                    20317887.039
 117016894.849 7  91182006.19045  22267568.438                    22267576.602
 11  8 23 18 18 30.0000000  0 10G17G26G24G01G08G13G11G19G07G28
 121283787.493 7  94506907.983 6  23079536.555                    23079546.559
 123729015.082 7  96412299.30343  23544855.445                    23544865.699
 117883403.795 7  91857294.62544  22432460.063                    22432470.129
 118012058.400 7  91957584.879 7  22456947.547                    22456960.059
 107906778.063 8  84083290.57046  20533985.719                    20533993.215
 123847335.354 6  96504417.48443  23567380.023                    23567391.316
 113229995.246 8  88231209.49945  21546943.078                    21546951.570
 123985155.737 7  96611794.93544  23593595.500                    23593602.793
 106778520.514 8  83204057.708 8  20319276.922                    20319284.398
 116991256.178 7  91162028.01645  22262689.258                    22262696.871
 11  8 23 18 19  0.0000000  0 10G17G26G24G01G08G13G11G19G07G28
 121194710.349 7  94437497.314 6  23062586.563                    23062596.582
 123663631.960 7  96361351.43443  23532413.680                    23532423.746
 117835204.544 7  91819736.81844  22423287.438                    22423298.504
 117956964.970 7  91914654.971 7  22446463.258                    22446476.516
 107858752.673 8  84045868.19346  20524846.602                    20524854.293
 123957845.564 7  96590529.10743  23588409.352                    23588420.867
 113220013.306 7  88223431.37045  21545043.352                    21545051.098
 124087040.214 7  96691185.31644  23612984.609                    23612992.555
 106786319.781 8  83210135.032 8  20320761.094                    20320768.590
 116965677.078 7  91142096.26245  22257821.781                    22257829.859
 11  8 23 18 19 30.0000000  0 10G17G26G24G01G08G13G11G19G07G28
 121105895.004 7  94368290.616 7  23045685.242                    23045695.938
 123598752.957 7  96310796.41343  23520067.195                    23520077.605
 117787385.843 7  91782475.55744  22414187.523                    22414198.605
 117902233.228 7  91872006.910 7  22436048.297                    22436061.172
 107811062.449 8  84008706.98146  20515771.289                    20515779.051
 124068404.544 7  96676678.71743  23609447.828                    23609459.578
 113210590.324 8  88216088.79545  21543250.680                    21543258.531
 124189070.150 6  96770689.13144  23632399.602                    23632406.934
 106794576.604 8  83216568.896 8  20322332.234                    20322339.871
 116940156.860 7  91122210.38845  22252965.875                    22252973.223
 11  8 23 18 20  0.0000000  0 10G17G26G24G01G08G13G11G19G07G28
 121017342.948 7  94299289.091 6  23028834.469                    23028845.508
 123534380.072 7  96260635.74643  23507817.852                    23507828.191
 117739950.214 7  91745512.78144  22405161.383                    22405172.172
 117847865.679 7  91829642.638 7  22425702.695                    22425715.328
 107763710.084 8  83971809.03546  20506760.578                    20506768.027
 124179009.706 7  96762864.32643  23630495.828                    23630507.688
 113201727.531 8  88209182.73945  21541564.008                    21541572.223
 124291243.204 6  96850304.39044  23651842.805                    23651850.762
 106803292.185 8  83223360.224 7  20323990.844                    20323998.398
 116914694.896 7  91102369.91945  22248120.406                    22248128.008
 11  8 23 18 20 30.0000000  0 10G17G26G24G01G08G13G11G19G07G28
 120929055.712 7  94230493.932 7  23012033.992                    23012044.473
 123470515.509 6  96210871.19344  23495664.594                    23495675.754
 117692900.270 7  91708850.55944  22396207.422                    22396218.836
 117793865.431 7  91787564.587 7  22415426.367                    22415439.027
 107716698.030 8  83935176.26646  20497814.297                    20497822.070
 124289657.690 7  96849083.29843  23651551.617                    23651563.445
 113193425.695 8  88202713.79245  21539984.141                    21539992.379
 124393556.717 6  96930029.14244  23671312.547                    23671320.102
 106812467.378 8  83230509.702 8  20325737.227                    20325744.727
 116889290.441 7  91082574.25145  22243286.102                    22243293.598
 11  8 23 18 21  0.0000000  0 10G17G26G24G01G08G13G11G19G07G28
 120841034.940 7  94161906.407 7  22995283.922                    22995294.242
 123407161.381 6  96161504.41043  23483607.695                    23483619.246
 117646238.788 7  91672490.99644  22387328.367                    22387339.617
 117740234.601 7  91745774.389 7  22405220.992                    22405233.641
 107670028.822 8  83898810.66446  20488933.602                    20488941.863
 124400345.632 6  96935333.43043  23672614.930                    23672626.766
 113185685.680 8  88196682.62845  21538511.438                    21538519.309
 124496007.961 6  97009861.17743  23690808.641                    23690815.398
 106822103.191 8  83238018.096 8  20327570.742                    20327578.227
 116863942.892 7  91062822.91545  22238462.008                    22238470.004
 11  8 23 18 21 30.0000000  0 10G17G26G24G01G08G13G11G19G07G28
 120753282.391 7  94093527.867 7  22978585.258                    22978595.609
 123344319.468 6  96112536.75143  23471649.469                    23471660.527
 117599968.358 7  91636436.16244  22378523.695                    22378534.492
 117686976.507 7  91704274.632 7  22395085.695                    22395098.809
 107623704.939 8  83862714.12746  20480118.633                    20480125.945
 124511070.667 6  97021612.45043  23693685.297                    23693697.215
 113178508.556 8  88191090.06845  21537145.289                    21537154.070
 124598594.403 6  97089798.61043  23710329.453                    23710337.121
 106832200.636 8  83245886.205 8  20329492.211                    20329499.867
 116838651.090 7  91043115.03645  22233649.664                    22233657.789
 11  8 23 18 22  0.0000000  0 10G17G26G24G01G08G13G11G19G07G28
 120665799.620 7  94025359.564 7  22961937.516                    22961948.113
 123281992.244 6  96063970.16944  23459788.430                    23459800.453
 117554091.748 7  91600688.21544  22369793.406                    22369804.059
 117634093.240 7  91663066.936 7  22385022.633                    22385035.320
 107577728.890 8  83826888.63346  20471369.469                    20471377.785
 124621829.965 6  97107918.13642  23714762.094                    23714773.945
 113171895.590 8  88185937.11645  21535887.031                    21535895.168
 124701313.559 6  97169839.50943  23729876.836                    23729883.285
 106842761.507 8  83254115.433 8  20331501.508                    20331509.395
 116813414.954 7  91023450.53045  22228847.133                    22228854.977
 11  8 23 18 22 30.0000000  0 10G17G26G24G01G08G13G11G19G07G28
 120578587.958 7  93957402.503 7  22945341.445                    22945352.168
 123220181.539 6  96015806.04144  23448027.055                    23448037.938
 117508611.565 7  91565249.16045  22361138.992                    22361149.105
 117581588.341 7  91622154.070 7  22375031.344                    22375043.512
 107532103.510 8  83791336.39946  20462687.305                    20462695.539
 124732620.767 6  97194248.40142  23735844.688                    23735857.063
 113165847.468 8  88181224.30045  21534736.070                    21534743.750
 124804162.881 6  97249981.73144  23749448.617                    23749456.438
 106853786.341 8  83262706.182 8  20333599.633                    20333607.020
 116788233.243 7  91003828.42645  22224055.547                    22224063.074
 11  8 23 18 23  0.0000000  0 10G17G26G24G01G08G13G11G19G07G28
 120491649.201 7  93889658.101 7  22928797.188                    22928807.656
 123158888.993 6  95968045.69143  23436363.758                    23436374.395
 117463530.097 7  91530120.80644  22352559.898                    22352571.395
 117529463.978 7  91581537.720 7  22365112.086                    22365124.813
 107486830.444 8  83756058.67446  20454071.938                    20454080.059
 124843439.851 6  97280600.66343  23756933.297                    23756945.660
 113160364.644 8  88176951.98145  21533692.750                    21533700.813
 124907139.152 6  97330222.92144  23769044.070                    23769051.570
 106865275.494 8  83271658.735 8  20335786.086                    20335793.832
 116763105.509 7  90984248.39345  22219273.875                    22219281.707
 11  8 23 18 23 30.0000000  0 10G17G26G24G01G08G13G11G19G07G28
 120404984.644 7  93822127.338 6  22912305.789                    22912315.637
 123098116.601 6  95920690.62744  23424798.984                    23424810.113
 117418849.893 7  91495305.11445  22344057.070                    22344068.602
 117477722.232 7  91541219.524 7  22355266.633                    22355278.973
 107441912.298 8  83721057.53346  20445524.617                    20445532.707
 124954284.033 6  97366972.49443  23778026.047                    23778038.773
 113155447.851 8  88173120.72545  21532757.320                    21532765.164
 125010240.139 6  97410561.25944  23788663.602                    23788672.000
 106877230.097 8  83280973.974 7  20338061.148                    20338068.793
 116738030.629 7  90964709.54545  22214501.898                    22214509.621
 11  8 23 18 24  0.0000000  0 10G17G26G24G01G08G13G11G19G07G28
 120318595.969 7  93754811.547 7  22895866.836                    22895876.926
 123037866.450 6  95873742.51343  23413333.633                    23413344.043
 117374573.537 7  91460804.13544  22335631.609                    22335642.988
 117426366.409 7  91501202.044 7  22345493.469                    22345506.047
 107397352.010 8  83686335.23446  20437044.906                    20437052.809
 125065150.591 7  97453361.77943  23799124.516                    23799136.551
 113151098.306 8  88169731.48545  21531929.570                    21531936.949
 125113463.514 7  97490995.00144  23808306.367                    23808313.684
 106889651.401 8  83290652.877 8  20340424.680                    20340432.305
 116713008.119 7  90945211.50645  22209740.430                    22209747.824
 11  8 23 18 24 30.0000000  0 10G17G26G24G01G08G13G11G19G07G28
 120232485.064 7  93687712.216 7  22879480.648                    22879490.355
 122978140.682 6  95827202.98843  23401968.297                    23401978.582
 117330704.019 7  91426620.13644  22327283.656                    22327294.648
 117375399.370 7  91461487.521 7  22335794.375                    22335807.070
 107353152.435 8  83651894.00246  20428634.250                    20428642.172
 125176036.770 7  97539766.35143  23820225.359                    23820238.137
 113147316.979 8  88166785.00645  21531210.125                    21531218.066
 125216806.489 6  97571521.88944  23827971.969                    23827980.180
 106902540.772 8  83300696.488 8  20342877.719                    20342884.984
 116688037.797 7  90925754.12245  22204988.750                    22204996.531
 11  8 23 18 25  0.0000000  0 10G17G26G24G01G08G13G11G19G07G28
 120146652.993 7  93620830.165 7  22863147.063                    22863157.375
 122918941.139 6  95781073.50043  23390703.477                    23390713.328
 117287243.337 7  91392754.72144  22319013.219                    22319024.555
 117324823.376 7  91422077.695 7  22326170.883                    22326183.094
 107309315.665 8  83617735.48746  20420291.672                    20420300.051
 125286939.675 7  97626183.93743  23841329.836                    23841341.977
 113144104.362 7  88164281.66745  21530598.516                    21530606.438
 125320266.516 6  97652140.08344  23847659.305                    23847667.277
 106915898.599 8  83311105.144 8  20345419.727                    20345427.375
 116663118.561 8  90906336.54345  22200246.914                    22200254.766
 11  8 23 18 25 30.0000000  0 10G17G26G24G01G08G13G11G19G07G28
 120061101.318 7  93554166.608 7  22846867.008                    22846876.883
 122860269.501 6  95735355.38943  23379538.203                    23379548.977
 117244194.202 7  91359209.97744  22310821.266                    22310832.301
 117274640.958 7  91382974.563 7  22316621.000                    22316633.730
 107265843.780 8  83583861.29346  20412019.953                    20412027.738
 125397856.080 7  97712612.03343  23862436.586                    23862449.051
 113141460.968 8  88162221.87645  21530095.695                    21530103.605
 125423841.028 6  97732847.35344  23867369.781                    23867377.793
 106929725.714 8  83321879.482 8  20348051.055                    20348058.691
 116638249.658 7  90886958.19845  22195514.477                    22195522.051
 11  8 23 18 26  0.0000000  0 10G17G26G24G01G08G13G11G19G07G28
 119975831.469 7  93487722.654 7  22830640.211                    22830650.887
 122802127.619 6  95690050.04043  23368473.984                    23368484.316
 117201558.980 7  91325987.77244  22302708.383                    22302719.051
 117224854.922 7  91344180.284 7  22307147.016                    22307159.465
 107222739.191 8  83550273.28946  20403817.234                    20403825.145
 125508783.137 6  97799048.38843  23883545.398                    23883558.289
 113139387.757 8  88160606.39145  21529700.984                    21529708.773
 125527527.370 6  97813641.87343  23887099.977                    23887108.738
 106944022.995 8  83333020.183 7  20350771.570                    20350779.188
 116613430.403 8  90867618.52745  22190791.234                    22190798.707
 11  8 23 18 26 30.0000000  0 10G17G26G24G01G08G13G11G19G07G28
 119890844.913 7  93421499.465 7  22814467.484                    22814478.598
 122744517.528 6  95645159.08643  23357511.406                    23357521.551
 117159340.462 7  91293090.27044  22294674.688                    22294685.652
 117175467.739 7  91305696.812 7  22297748.859                    22297761.621
 107180004.794 7  83516973.75346  20395684.750                    20395692.801
 125619718.060 6  97885490.88743  23904655.766                    23904668.824
 113137885.350 8  88159435.68045  21529415.219                    21529422.836
 125631323.097 6  97894521.53944  23906852.227                    23906860.766
 106958791.311 8  83344527.927 8  20353581.898                    20353589.609
 116588660.265 8  90848317.13545  22186077.797                    22186085.508
 11  8 23 18 27  0.0000000  0 10G17G26G24G01G08G13G11G19G07G28
 119806143.309 7  93355498.281 6  22798349.695                    22798359.723
 122687441.118 6  95600683.98443  23346649.992                    23346660.641
 117117541.281 7  91260519.53745  22286719.945                    22286731.688
 117126481.918 7  91267526.078 7  22288427.539                    22288440.164
 107137643.441 8  83483964.90046  20387623.992                    20387631.988
 125730658.258 6  97971937.46243  23925766.313                    23925780.004
 113136954.590 7  88158710.42045  21529238.063                    21529245.828
 125735225.936 6  97975484.71244  23926624.148                    23926631.703
 106974031.868 8  83356403.652 8  20356482.133                    20356490.219
 116563938.681 8  90829053.57745  22181373.172                    22181380.418
 11  8 23 18 27 30.0000000  0 10G17G26G24G01G08G13G11G19G07G28
 119721728.396 7  93289720.486 6  22782286.242                    22782295.531
 122630899.896 6  95556625.93143  23335891.016                    23335900.672
 117076163.516 7  91228277.17445  22278846.383                    22278857.020
 117077900.405 7  91229670.389 7  22279182.492                    22279195.441
 107095657.136 8  83451248.28846  20379634.133                    20379641.922
 125841600.505 6  98058385.66242  23946879.125                    23946892.258
 113136595.901 7  88158430.91545  21529169.609                    21529178.234
 125839233.095 6  98056529.11143  23946415.570                    23946424.473
 106989745.268 7  83368647.854 8  20359472.188                    20359479.715
 116539264.927 8  90809827.29445  22176677.906                    22176685.289
 11  8 23 18 28  0.0000000  0 10G17G26G24G01G08G13G11G19G07G28
 119637601.265 7  93224166.936 7  22766277.359                    22766286.938
 122574895.589 6  95512986.25843  23325232.906                    23325243.371
 117035209.642 7  91196365.13644  22271053.094                    22271063.629
 117029725.435 7  91192131.506 7  22270015.000                    22270027.414
 107054048.057 8  83418825.61846  20371716.258                    20371724.238
 125952541.993 6  98144833.20742  23967991.055                    23968004.098
 113136809.693 7  88158597.50645  21529210.227                    21529218.016
 125943341.909 6  98137652.82244  23966227.844                    23966235.207
 107005932.059 8  83381260.912 8  20362552.516                    20362560.012
 116514637.792 7  90790637.31645  22171991.875                    22171999.184
 11  8 23 18 28 30.0000000  0 10G17G26G24G01G08G13G11G19G07G28
 119553763.309 7  93158838.731 7  22750323.641                    22750332.855
 122519430.049 6  95469766.39243  23314678.383                    23314688.762
 116994682.148 7  91164785.32945  22263340.711                    22263351.711
 116981959.521 7  91154911.371 7  22260925.234                    22260937.680
 107012819.003 8  83386699.07446  20363870.586                    20363878.332
 126063479.829 6  98231278.03342  23989101.773                    23989114.613
 113137596.585 8  88159210.67845  21529359.641                    21529367.813
 126047549.691 6  98218853.54844  23986057.711                    23986066.199
 107022593.115 8  83394243.520 8  20365722.875                    20365730.438
 116490057.296 8  90771483.69745  22167314.063                    22167321.848
 11  8 23 18 29  0.0000000  0 10G17G26G24G01G08G13G11G19G07G28
 119470216.272 7  93093737.206 6  22734424.805                    22734434.242
 122464505.054 6  95426967.70943  23304226.398                    23304236.813
 116954583.562 7  91133539.73444  22255710.492                    22255721.566
 116934605.566 7  91118012.224 7  22251913.805                    22251927.113
 106971972.787 8  83354870.85446  20356098.281                    20356105.980
 126174411.171 6  98317717.75043  24010211.938                    24010224.613
 113138957.378 7  88160271.04645  21529619.148                    21529627.223
 126151854.399 7  98300129.91744  24005906.219                    24005913.711
 107039729.427 8  83407596.454 8  20368983.844                    20368991.566
 116465522.321 8  90752365.54745  22162645.430                    22162653.180
 11  8 23 18 29 30.0000000  0 10G17G26G24G01G08G13G11G19G07G28
 119386961.046 7  93028863.092 7  22718581.813                    22718591.539
 122410122.258 6  95384591.51343  23293877.883                    23293888.086
 116914915.965 7  91102629.98945  22248161.391                    22248172.742
 116887665.686 7  91081435.735 7  22242981.344                    22242994.328
 106931511.515 8  83323342.58746  20348398.367                    20348406.344
 126285333.075 6  98404150.08043  24031320.547                    24031333.176
 113140892.449 7  88161778.89645  21529986.969                    21529995.121
 126256253.594 7  98381479.85544  24025773.461                    24025779.938
 107057341.542 8  83421320.153 8  20372335.430                    20372343.141
 116441032.792 7  90733282.80345  22157985.172                    22157992.918
 11  8 23 18 30  0.0000000  0 10G17G26G24G01G08G13G11G19G07G28
 119303999.645 7  92964217.918 7  22702794.766                    22702804.844
 122356283.622 6  95342639.33543  23283632.406                    23283643.051
 116875681.994 7  91072058.12245  22240695.492                    22240706.641
 116841142.939 7  91045184.299 7  22234128.977                    22234141.090
 106891437.955 8  83292116.43046  20340772.656                    20340780.570
 126396243.168 6  98490573.29043  24052426.016                    24052438.715
 113143402.455 7  88163734.75145  21530464.859                    21530472.371
 126360744.728 6  98462901.48643  24045657.250                    24045664.000
 107075430.670 8  83435415.540 8  20375777.703                    20375785.379
 116416588.084 7  90714235.00045  22153333.430                    22153341.617
 11  8 23 18 30 30.0000000  0 10G17G26G24G01G08G13G11G19G07G28
 119221333.412 7  92899802.741 7  22687063.469                    22687073.762
 122302990.689 6  95301112.44543  23273490.555                    23273501.902
 116836884.122 7  91041826.06245  22233312.672                    22233323.863
 116795038.987 7  91009259.194 7  22225354.828                    22225368.348
 106851754.422 8  83261194.19546  20333221.242                    20333228.816
 126507138.252 6  98576984.74343  24073528.992                    24073541.270
 113146487.843 7  88166138.96645  21531052.133                    21531059.926
 126465325.224 7  98544392.70144  24065558.516                    24065565.406
 107093997.160 8  83449882.905 8  20379310.875                    20379318.535
 116392187.358 7  90695221.45045  22148690.188                    22148697.953
 11  8 23 18 31  0.0000000  0 10G17G26G24G01G08G13G11G19G07G28
 119138963.374 7  92835618.370 7  22671389.375                    22671399.473
 122250244.931 6  95260011.89343  23263454.227                    23263465.172
 116798524.445 7  91011935.46645  22226012.688                    22226024.180
 116749356.447 7  90973662.461 7  22216662.195                    22216674.578
 106812462.701 8  83230577.26746  20325744.227                    20325751.859
 126618015.484 6  98663382.25043  24094627.727                    24094640.984
 113150148.899 7  88168991.74445  21531748.688                    21531756.875
 126569992.404 7  98625951.42143  24085475.148                    24085482.992
 107113041.560 7  83464722.675 8  20382934.555                    20382942.891
 116367829.913 7  90676241.63445  22144055.227                    22144062.566
 11  8 23 18 31 30.0000000  0 10G17G26G24G01G08G13G11G19G07G28
 119056891.270 7  92771666.151 7  22655771.313                    22655780.992
 122198048.158 6  95219339.10744  23253521.227                    23253531.523
 116760605.476 7  90982388.25145  22218797.016                    22218807.797
 116704098.068 7  90938396.259 7  22208049.609                    22208062.262
 106773565.502 8  83200267.74946  20318342.148                    20318350.238
 126728871.953 6  98749763.61342  24115722.773                    24115735.844
 113154386.189 7  88172293.53645  21532554.969                    21532562.824
 126674744.131 7  98707576.18743  24105409.102                    24105416.031
 107132565.129 8  83479935.820 7  20386649.781                    20386657.980
 116343515.440 7  90657295.28845  22139428.102                    22139436.059
 11  8 23 18 32  0.0000000  0 10G17G26G24G01G08G13G11G19G07G28
 118975118.585 7  92707947.235 7  22640210.383                    22640220.219
 122146402.034 7  95179095.39744  23243693.703                    23243703.980
 116723129.587 7  90953186.31245  22211665.617                    22211676.430
 116659266.488 7  90903462.625 7  22199518.789                    22199530.805
 106735065.739 8  83170267.93646  20311015.711                    20311024.063
 126839705.237 6  98836126.87043  24136814.531                    24136827.020
 113159200.228 8  88176044.75845  21533471.438                    21533478.969
 126779577.557 6  98789264.44643  24125358.203                    24125366.281
 107152568.029 8  83495522.464 8  20390456.172                    20390464.418
 116319243.196 8  90638381.86945  22134809.586                    22134817.789
 11  8 23 18 32 30.0000000  0 10G17G26G24G01G08G13G11G19G07G28
 118893646.378 7  92644462.462 7  22624706.984                    22624716.504
 122095308.143 7  95139281.98544  23233970.352                    23233981.117
 116686098.950 7  90924331.32045  22204618.859                    22204629.297
 116614863.755 7  90868863.151 7  22191069.094                    22191081.109
 106696965.675 8  83140579.57546  20303765.555                    20303773.984
 126950512.064 6  98922469.57443  24157899.906                    24157913.246
 113164591.281 8  88180245.59945  21534496.945                    21534504.785
 126884490.720 6  98871014.97843  24145322.398                    24145329.832
 107173051.139 8  83511483.306 8  20394354.086                    20394362.121
 116295012.459 8  90619500.79545  22130198.219                    22130205.871
 11  8 23 18 33  0.0000000  0 10G17G26G24G01G08G13G11G19G07G28
 118812476.003 7  92581212.908 7  22609260.516                    22609270.180
 122044767.805 7  95099899.94744  23224352.688                    23224363.734
 116649515.831 7  90895825.03945  22197657.242                    22197667.914
 116570892.231 7  90834599.675 7  22182701.375                    22182714.035
 106659267.517 8  83111204.38246  20296592.094                    20296600.082
 127061289.944 6  99008789.67042  24178980.039                    24178994.469
 113170559.380 8  88184896.07945  21535632.367                    21535640.895
 126989481.015 6  98952825.48143  24165301.844                    24165310.008
 107194014.810 8  83527818.597 8  20398343.469                    20398351.484
 116270822.759 8  90600651.68845  22125595.391                    22125602.789
 11  8 23 18 33 30.0000000  0 10G17G26G24G01G08G13G11G19G07G28
 118731608.974 7  92518199.731 7  22593871.914                    22593881.672
 121994782.756 7  95060950.59944  23214841.313                    23214851.824
 116613382.663 7  90867669.36945  22190781.680                    22190791.750
 116527354.861 7  90800674.498 7  22174416.633                    22174428.797
 106621974.071 8  83082144.55246  20289495.313                    20289503.723
 127172036.060 6  99095084.98243  24200055.039                    24200069.352
 113177105.194 8  88189996.71445  21536878.258                    21536886.207
 127094546.089 6  99034694.28943  24185294.875                    24185302.914
 107215459.984 8  83544529.095 8  20402424.469                    20402432.508
 116246673.585 8  90581834.15945  22120999.750                    22121007.617
 11  8 23 18 34  0.0000000  0 10G17G26G24G01G08G13G11G19G07G28
 118651046.356 7  92455423.729 7  22578541.547                    22578550.602
 121945354.335 7  95022434.98144  23205434.852                    23205445.570
 116577701.435 7  90839865.85945  22183991.484                    22184002.133
 116484253.042 7  90767088.728 7  22166214.766                    22166226.914
 106585087.114 8  83053401.46646  20282476.242                    20282484.465
 127282747.397 6  99181353.19843  24221122.297                    24221137.711
 113184228.816 8  88195547.59745  21538234.141                    21538241.965
 127199683.353 6  99116619.33843  24205300.609                    24205310.203
 107237386.878 8  83561614.957 8  20406596.938                    20406604.453
 116222564.259 8  90563047.68245  22116412.078                    22116418.996
 11  8 23 18 34 30.0000000  0 10G17G26G24G01G08G13G11G19G07G28
 118570789.641 7  92392886.096 7  22563268.773                    22563278.426
 121896484.110 7  94984354.33444  23196135.391                    23196145.621
 116542474.492 7  90812416.31944  22177287.789                    22177298.355
 116441589.538 7  90733844.465 7  22158096.227                    22158108.648
 106548608.993 8  83024976.94346  20275534.680                    20275542.637
 127393421.126 6  99267592.11343  24242183.563                    24242198.297
 113191930.379 7  88201548.83045  21539699.609                    21539707.086
 127304890.301 6  99198598.67944  24225321.547                    24225330.672
 107259796.255 8  83579076.781 8  20410861.586                    20410869.543
 116198494.235 7  90544291.80545  22111831.547                    22111838.570
 11  8 23 18 35  0.0000000  0 10G17G26G24G01G08G13G11G19G07G28
 118490840.001 7  92330587.747 7  22548055.148                    22548064.684
 121848173.561 7  94946709.79744  23186942.016                    23186952.684
 116507704.048 7  90785322.48144  22170671.375                    22170682.066
 116399367.421 7  90700944.151 7  22150061.180                    22150073.742
 106512542.248 8  82996872.98746  20268671.016                    20268679.113
 127504054.622 6  99353799.69042  24263236.492                    24263251.324
 113200210.156 7  88208000.61945  21541274.828                    21541282.805
 127410164.767 7  99280630.66744  24245355.125                    24245363.223
 107282688.919 8  83596915.200 8  20415217.414                    20415225.801
 116174462.868 7  90525566.09145  22107258.438                    22107266.344
 11  8 23 18 35 30.0000000  0 10G17G26G24G01G08G13G11G19G07G28
 118411198.715 7  92268529.677 7  22532899.641                    22532909.730
 121800424.010 7  94909502.38644  23177855.867                    23177866.094
 116473391.850 7  90758585.75244  22164141.953                    22164152.574
 116357587.817 7  90668388.658 7  22142110.688                    22142123.215
 106476889.151 8  82969091.34246  20261886.766                    20261894.816
 127614644.767 6  99439973.48343  24284282.281                    24284296.941
 113209068.472 7  88214903.19645  21542960.922                    21542968.609
 127515503.965 6  99362713.07744  24265401.125                    24265408.855
 107306064.753 7  83615130.102 8  20419666.180                    20419674.281
 116150469.571 7  90506870.03245  22102692.852                    22102700.113
 11  8 23 18 36  0.0000000  0 10G17G26G24G01G08G13G11G19G07G28
 118331867.304 7  92206713.057 7  22517802.742                    22517813.746
 121753236.891 7  94872733.21844  23168876.516                    23168886.914
 116439540.740 7  90732208.30944  22157700.398                    22157710.438
 116316253.502 7  90636180.105 7  22134245.391                    22134257.363
 106441652.407 8  82941634.12746  20255181.273                    20255188.965
 127725189.010 6  99526111.49542  24305318.375                    24305333.520
 113218505.697 7  88222256.88645  21544756.547                    21544764.406
 127620905.874 6  99444844.32144  24285457.930                    24285466.152
 107329924.755 8  83633722.288 7  20424206.492                    20424214.117
 116126513.986 8  90488203.35145  22098134.289                    22098142.121
 11  8 23 18 36 30.0000000  0 10G17G26G24G01G08G13G11G19G07G28
 118252846.541 7  92145138.511 7  22502765.742                    22502776.141
 121706613.481 6  94836403.32744  23160004.281                    23160014.012
 116406152.833 7  90706191.79744  22151346.172                    22151357.289
 116275367.130 7  90604320.625 7  22126464.797                    22126477.016
 106406833.949 8  82914502.85746  20248555.484                    20248563.871
 127835684.717 6  99612211.63342  24326345.500                    24326359.742
 113228521.425 8  88230061.36445  21546662.555                    21546670.289
 127726367.778 6  99527022.38644  24305526.461                    24305535.012
 107354269.015 8  83652691.813 7  20428839.328                    20428846.820
 116102595.214 8  90469565.36345  22093582.656                    22093590.344
 11  8 23 18 37  0.0000000  0 10G17G26G24G01G08G13G11G19G07G28
 118174138.028 7  92083807.266 7  22487788.781                    22487798.375
 121660555.323 6  94800513.87943  23151239.359                    23151249.762
 116373230.048 7  90680537.70644  22145081.797                    22145092.457
 116234930.621 7  90572811.671 7  22118769.727                    22118782.688
 106372436.598 8  82887699.72546  20242010.109                    20242018.008
 127946129.187 6  99698271.92443  24347362.078                    24347376.832
 113239116.233 8  88238317.06145  21548678.289                    21548686.594
 127831887.755 6  99609245.64343  24325606.828                    24325614.770
 107379098.377 8  83672039.328 8  20433563.680                    20433571.953
 116078713.267 8  90450956.05545  22089038.359                    22089045.641
 11  8 23 18 37 30.0000000  0 10G17G26G24G01G08G13G11G19G07G28
 118095743.126 7  92022720.396 7  22472870.914                    22472880.215
 121615063.885 6  94765066.06243  23142582.297                    23142592.578
 116340774.473 7  90655247.68844  22138905.648                    22138915.770
 116194946.294 7  90541655.088 7  22111161.195                    22111173.793
 106338462.350 8  82861226.27446  20235544.828                    20235552.699
 128056519.502 6  99784289.98342  24368370.211                    24368383.363
 113250290.248 8  88247024.08345  21550804.602                    21550813.145
 127937463.237 6  99691512.17943  24345697.430                    24345705.426
 107404413.326 8  83691765.226 8  20438381.359                    20438389.215
 116054867.312 8  90432374.80045  22084500.484                    22084507.695
 11  8 23 18 38  0.0000000  0 10G17G26G24G01G08G13G11G19G07G28
 118017663.005 7  91961878.807 7  22458012.281                    22458021.324
 121570140.323 6  94730060.74743  23134033.523                    23134044.164
 116308788.299 7  90630323.44045  22132819.117                    22132829.008
 116155416.408 7  90510852.599 7  22103638.883                    22103650.566
 106304913.959 8  82835084.66946  20229160.945                    20229168.938
 128166853.267 6  99870263.99942  24389365.156                    24389379.863
 113262043.433 7  88256182.41045  21553041.234                    21553048.770
 128043092.095 6  99773820.33343  24365797.758                    24365805.504
 107430214.307 8  83711869.857 8  20443290.844                    20443298.797
 116031056.762 8  90413821.14045  22079969.047                    22079976.863
 11  8 23 18 38 30.0000000  0 10G17G26G24G01G08G13G11G19G07G28
 117939899.338 7  91901283.812 7  22443214.156                    22443223.477
 121525786.019 6  94695498.97743  23125593.570                    23125604.355
 116277273.602 7  90605766.58245  22126821.969                    22126832.516
 116116343.292 7  90480406.065 7  22096203.414                    22096215.582
 106271793.514 8  82809276.51846  20222858.469                    20222866.258
 128277127.645 6  99956191.76542  24410349.125                    24410364.355
 113274375.838 8  88265792.08645  21555387.828                    21555395.738
 128148771.446 6  99856167.82643  24385908.484                    24385915.848
 107456501.613 8  83732353.442 8  20448293.422                    20448301.184
 116007281.490 8  90395294.96845  22075444.852                    22075452.844
 11  8 23 18 39  0.0000000  0 10G17G26G24G01G08G13G11G19G07G28
 117862452.627 7  91840935.785 7  22428475.992                    22428486.410
 121482002.353 7  94661381.82843  23117261.633                    23117271.730
 116246232.626 7  90581578.83744  22120914.898                    22120925.176
 116077729.180 7  90450317.159 7  22088855.203                    22088867.602
 106239103.726 8  82783803.95146  20216637.766                    20216645.297
 128387340.199 6 100042071.32642  24431323.242                    24431336.820
 113287287.396 8  88275853.05445  21557844.969                    21557853.176
 128254499.843 6  99938553.52943  24406027.156                    24406035.109
 107483275.879 8  83753216.472 8  20453388.250                    20453396.598
 115983540.967 8  90376795.86045  22070927.156                    22070934.555
 11  8 23 18 39 30.0000000  0 10G17G26G24G01G08G13G11G19G07G28
 117785324.170 7  91780835.734 7  22413798.961                    22413809.270
 121438790.551 6  94627710.31043  23109038.148                    23109048.879
 116215667.441 7  90557761.85145  22115098.094                    22115108.684
 116039576.392 7  90420587.773 7  22081595.172                    22081607.340
 106206846.686 8  82758668.58846  20210499.680                    20210507.074
 128497487.708 6 100127900.24142  24452283.945                    24452298.008
 113300778.496 8  88286365.61345  21560412.352                    21560420.172
 128360274.558 6 100020975.31343  24426155.547                    24426163.766
 107510537.247 8  83774459.064 8  20458575.922                    20458584.305
 115959834.564 8  90358323.34945  22066416.164                    22066423.473
 11  8 23 18 40  0.0000000  0 10G17G26G24G01G08G13G11G19G07G28
 117708515.577 7  91720984.927 7  22399183.359                    22399193.285
 121396151.682 6  94594485.24843  23100924.609                    23100935.293
 116185579.798 7  90534316.98045  22109372.781                    22109383.016
 116001886.821 7  90391219.303 7  22074422.953                    22074435.258
 106175024.158 8  82733871.80446  20204444.102                    20204451.836
 128607567.221 6 100213676.07142  24473231.438                    24473245.828
 113314848.816 8  88297329.51545  21563089.977                    21563098.289
 128466093.123 6 100103431.24943  24446292.813                    24446301.043
 107538286.097 8  83796081.516 8  20463856.430                    20463864.551
 115936161.803 8  90339877.05745  22061911.391                    22061918.492
 11  8 23 18 40 30.0000000  0 10G17G26G24G01G08G13G11G19G07G28
 117632027.797 7  91661384.113 7  22384628.523                    22384637.473
 121354086.920 6  94561707.51943  23092920.023                    23092930.066
 116155971.646 7  90511245.73145  22103738.305                    22103748.836
 115964662.527 7  90362213.403 7  22067339.336                    22067352.160
 106143638.708 8  82709415.60546  20198471.125                    20198479.156
 128717576.559 6 100299397.22142  24494165.305                    24494180.555
 113329498.290 8  88308744.70445  21565877.734                    21565885.742
 128571953.343 6 100185919.66443  24466436.945                    24466445.844
 107566522.934 8  83818084.205 7  20469230.039                    20469237.598
 115912522.122 8  90321456.53345  22057412.867                    22057420.148
 11  8 23 18 41  0.0000000  0 10G17G26G24G01G08G13G11G19G07G28
 117555861.933 7  91602034.133 7  22370133.844                    22370143.824
 121312597.434 7  94529378.11043  23085025.125                    23085035.035
 116126845.291 7  90488549.91245  22098196.375                    22098206.391
 115927906.054 7  90333572.040 7  22060344.930                    22060357.457
 106112692.522 8  82685301.68346  20192582.711                    20192590.406
 128827512.797 6 100385061.49942  24515085.633                    24515101.129
 113344726.607 7  88320610.93945  21568774.969                    21568783.453
 128677852.861 6 100268438.63643  24486588.844                    24486597.945
 107595248.008 8  83840467.331 8  20474696.211                    20474703.973
 115888915.062 8  90303061.42045  22052920.398                    22052928.051
 11  8 23 18 41 30.0000000  0 10G17G26G24G01G08G13G11G19G07G28
 117480019.067 7  91542935.845 7  22355701.555                    22355711.559
 121271684.574 7  94497497.96643  23077239.469                    23077249.734
 116098202.532 7  90466230.92745  22092745.281                    22092755.270
 115891619.437 7  90305296.809 7  22053439.461                    22053452.406
 106082188.099 8  82661531.99446  20186777.797                    20186785.891
 128937373.517 6 100470666.84743  24535991.977                    24536006.609
 113360534.066 7  88332928.45545  21571783.148                    21571791.820
 128783789.605 6 100350986.67743  24506749.266                    24506756.715
 107624461.657 8  83863231.177 7  20480255.406                    20480263.098
 115865340.213 8  90284691.41845  22048434.305                    22048441.785
 11  8 23 18 42  0.0000000  0 10G17G26G24G01G08G13G11G19G07G28
 117404500.153 7  91484089.999 7  22341330.164                    22341340.254
 121231349.130 7  94466067.75444  23069564.320                    23069574.211
 116070045.012 7  90444290.04145  22087387.445                    22087397.707
 115855804.383 7  90277389.017 7  22046624.469                    22046636.875
 106052127.098 8  82638107.82646  20181057.656                    20181065.625
 129047155.656 6 100556210.94042  24556882.516                    24556897.922
 113376920.156 7  88345696.84645  21574901.469                    21574909.578
 128889761.014 6 100433561.74043  24526913.984                    24526922.293
 107654163.854 8  83886375.707 7  20485907.719                    20485915.797
 115841797.082 8  90266346.12845  22043954.375                    22043961.902
 11  8 23 18 42 30.0000000  0 10G17G26G24G01G08G13G11G19G07G28
 117329307.026 7  91425498.009 7  22327021.531                    22327031.191
 121191592.632 7  94435088.66644  23061998.828                    23062008.613
 116042375.341 7  90422729.29445  22082121.539                    22082131.984
 115820463.868 7  90249851.006 7  22039898.969                    22039911.441
 106022512.853 8  82615031.77746  20175422.195                    20175429.793
 129156857.165 6 100641692.23943  24577759.180                    24577775.070
 113393885.088 7  88358916.27545  21578130.086                    21578137.926
 128995765.026 6 100516162.19343  24547086.258                    24547094.445
 107684355.514 8  83909901.641 7  20491652.852                    20491661.016
 115818285.621 8  90248025.52145  22039480.188                    22039487.379
 11  8 23 18 43  0.0000000  0 10G17G26G24G01G08G13G11G19G07G28
 117254440.439 7  91367160.441 7  22312775.414                    22312784.496
 121152415.849 7  94404561.32044  23054543.930                    23054554.023
 116015194.961 7  90401549.81845  22076949.047                    22076959.113
 115785599.014 7  90222683.641 7  22033264.578                    22033277.039
 105993347.100 8  82592305.20346  20169871.297                    20169879.738
 129266474.812 6 100727108.20342  24598619.453                    24598635.203
 113411428.645 8  88372586.59745  21581468.148                    21581476.355
 129101799.401 6 100598786.28444  24567264.188                    24567272.301
 107715036.256 8  83933808.674 7  20497491.320                    20497499.355
 115794805.067 8  90229728.99945  22035012.320                    22035019.672
 11  8 23 18 43 30.0000000  0 10G17G26G24G01G08G13G11G19G07G28
 117179901.440 7  91309078.139 7  22298591.063                    22298600.848
 121113819.700 6  94374486.43644  23047199.227                    23047209.121
 115988505.889 7  90380753.17144  22071870.797                    22071881.266
 115751211.915 7  90195888.533 7  22026721.008                    22026733.203
 105964631.777 8  82569929.61446  20164407.500                    20164415.617
 129376006.297 6 100812457.01843  24619461.992                    24619478.652
 113429550.202 7  88386707.31145  21584916.859                    21584924.836
 129207861.687 6 100681432.15844  24587446.883                    24587454.871
 107746206.340 8  83958097.010 7  20503422.719                    20503430.852
 115771354.837 7  90211456.10245  22030549.289                    22030556.809
 11  8 23 18 44  0.0000000  0 10G17G26G24G01G08G13G11G19G07G28
 117105691.011 7  91251251.876 7  22284468.953                    22284478.969
 121075805.602 7  94344865.08644  23039964.859                    23039975.352
 115962309.823 7  90360340.67544  22066885.133                    22066896.246
 115717304.933 7  90169467.564 7  22020268.500                    22020280.742
 105936369.317 8  82547906.91646  20159029.195                    20159037.273
 129485448.655 6 100897736.34142  24640288.813                    24640305.363
 113448250.079 8  88401278.64945  21588474.961                    21588483.266
 129313950.025 6 100764098.30244  24607635.234                    24607642.707
 107777866.273 8  83982767.031 7  20509447.891                    20509455.668
 115747934.757 8  90193206.69945  22026092.703                    22026100.238
 11  8 23 18 44 30.0000000  0 10G17G26G24G01G08G13G11G19G07G28
 117031810.549 7  91193682.738 7  22270409.914                    22270419.355
 121038374.402 6  94315697.93344  23032842.172                    23032852.828
 115936609.000 7  90340314.08345  22061994.742                    22062005.840
 115683880.096 7  90143422.295 7  22013907.961                    22013920.227
 105908561.965 8  82526238.83646  20153737.703                    20153745.676
 129594799.586 6 100982944.49242  24661096.938                    24661113.906
 113467527.869 8  88416300.30645  21592143.906                    21592151.500
 129420061.860 6 100846782.74743  24627827.219                    24627835.484
 107810016.478 8  84007819.104 8  20515565.281                    20515573.227
 115724544.273 8  90174980.35745  22021641.469                    22021649.523
 11  8 23 18 45  0.0000000  0  9G17G26G24G01G08G11G19G07G28
 116958262.419 7  91136372.582 7  22256414.547                    22256424.148
 121001528.506 7  94286986.85744  23025830.391                    23025841.586
 115911406.557 7  90320675.84145  22057198.555                    22057209.875
 115650940.654 7  90117755.252 7  22007639.336                    22007651.695
 105881213.197 8  82504928.09446  20148533.148                    20148541.074
 113487384.593 8  88431773.08145  21595922.055                    21595930.313
 129526196.953 7 100929485.33944  24648024.297                    24648032.555
 107842658.103 8  84033254.099 7  20521777.258                    20521785.055
 115701184.820 7  90156778.20245  22017196.398                    22017204.160
 11  8 23 18 45 30.0000000  0  9G17G26G24G01G08G11G19G07G28
 116885046.385 7  91079321.190 7  22242481.633                    22242491.219
 120965267.659 7  94258731.64544  23018930.781                    23018940.980
 115886703.169 7  90301426.47845  22052498.273                    22052508.391
 115618487.306 7  90092466.974 7  22001463.969                    22001476.473
 105854324.269 8  82483975.66646  20143416.797                    20143424.500
 113507818.865 8  88447695.87945  21599810.492                    21599818.297
 129632351.537 6 101012203.16443  24668224.602                    24668233.250
 107875790.224 8  84059071.293 7  20528081.883                    20528089.930
 115677854.569 8  90138598.79845  22012756.750                    22012764.418
 11  8 23 18 46  0.0000000  0  9G17G26G24G01G08G11G19G07G28
 116812163.019 7  91022529.024 7  22228612.266                    22228622.598
 120929592.112 7  94230932.52144  23012141.984                    23012152.066
 115862499.840 7  90282566.76845  22047892.336                    22047903.102
 115586521.420 7  90067558.528 7  21995381.047                    21995393.617
 105827896.587 8  82463382.65646  20138388.016                    20138395.758
 113528829.623 8  88464067.88945  21603809.227                    21603816.645
 129738522.897 6 101094934.00043  24688428.328                    24688436.863
 107909412.171 8  84085270.169 7  20534479.648                    20534487.906
 115654552.123 7  90120441.05545  22008322.328                    22008329.414
 11  8 23 18 46 30.0000000  0  9G17G26G24G01G08G11G19G07G28
 116739613.380 7  90965996.883 7  22214806.758                    22214815.922
 120894503.080 7  94203590.43644  23005464.023                    23005474.602
 115838798.579 7  90264098.28645  22043382.250                    22043392.422
 115555045.364 7  90043031.764 7  21989391.461                    21989404.172
 105801932.442 8  82443150.84146  20133446.961                    20133454.695
 113550416.726 8  88480889.00245  21607917.016                    21607925.348
 129844708.905 6 101177676.29743  24708634.617                    24708643.422
 107943524.745 8  84111851.344 7  20540971.656                    20540979.102
 115631277.834 7  90102305.25545  22003893.750                    22003901.266
 11  8 23 18 47  0.0000000  0  9G17G26G24G01G08G11G19G07G28
 116667398.676 7  90909725.713 7  22201064.719                    22201073.965
 120860001.149 6  94176705.83944  22998898.688                    22998908.551
 115815601.216 7  90246022.45145  22038968.406                    22038978.660
 115524060.826 7  90018888.013 7  21983495.367                    21983508.234
 105776433.998 8  82423281.90646  20128594.625                    20128602.582
 113572579.860 7  88498158.96345  21612133.695                    21612142.203
 129950907.356 6 101260428.27043  24728843.984                    24728853.020
 107978127.772 8  84138814.691 7  20547555.961                    20547564.191
 115608031.262 8  90084191.06145  21999469.719                    21999477.430
 11  8 23 18 47 30.0000000  0  9G17G26G24G01G08G11G19G07G28
 116595519.717 8  90853716.178 7  22187386.500                    22187395.664
 120826087.225 6  94150279.44744  22992445.461                    22992455.211
 115792909.170 7  90228340.37345  22034649.766                    22034660.609
 115493569.892 7  89995128.857 7  21977692.625                    21977705.633
 105751403.209 8  82403777.38746  20123830.898                    20123839.504
 113595318.182 8  88515877.13245  21616460.969                    21616468.859
 130057116.267 6 101343188.40742  24749054.641                    24749063.570
 108013220.998 8  84166160.012 7  20554234.250                    20554242.309
 115584811.647 8  90066097.87345  21995051.289                    21995058.836
 11  8 23 18 48  0.0000000  0  9G17G26G24G01G08G11G19G07G28
 116523977.515 7  90797969.053 7  22173772.500                    22173781.738
 120792762.223 7  94124311.92844  22986103.328                    22986113.582
 115770724.252 7  90211053.47245  22030428.602                    22030438.344
 115463574.332 7  89971755.721 7  21971985.352                    21971997.305
 105726842.340 8  82384639.03946  20119157.906                    20119165.613
 113618631.501 8  88534043.35245  21620897.805                    21620905.801
 130163333.490 5 101425955.00042  24769266.672                    24769275.848
 108048804.854 8  84193887.636 7  20561006.023                    20561013.813
 115561618.753 8  90048025.50445  21990637.617                    21990645.281
 11  8 23 18 48 30.0000000  0  9G17G26G24G01G08G11G19G07G28
 116452773.215 7  90742485.255 7  22160222.445                    22160232.004
 120760026.964 6  94098803.94144  22979874.703                    22979884.488
 115749048.192 7  90194163.07545  22026303.211                    22026314.012
 115434075.865 7  89948769.921 7  21966372.156                    21966383.980
 105702753.425 8  82365868.43646  20114573.891                    20114581.711
 113642519.269 7  88552657.18245  21625443.391                    21625451.664
 130269556.909 6 101508726.37042  24789481.414                    24789489.559
 108084879.382 8  84221997.621 7  20567870.078                    20567878.574
 115538452.625 8  90029973.99045  21986229.383                    21986236.965
 11  8 23 18 49  0.0000000  0  9G17G26G24G01G08G11G19G07G28
 116381907.875 8  90687265.563 7  22146737.594                    22146747.172
 120727882.457 7  94073756.28644  22973757.359                    22973767.238
 115727882.936 7  90177670.71145  22022275.953                    22022286.363
 115405076.934 7  89926173.383 7  21960853.047                    21960864.836
 105679139.188 8  82347467.71746  20110080.039                    20110088.086
 113666981.739 7  88571718.84745  21630098.266                    21630106.242
 130375784.651 6 101591501.20342  24809695.820                    24809703.500
 108121444.969 8  84250490.239 7  20574828.094                    20574836.840
 115515313.035 8  90011943.15345  21981826.188                    21981833.645
 11  8 23 18 49 30.0000000  0  8G17G26G24G01G08G11G07G28
 116311382.065 7  90632310.451 7  22133316.391                    22133326.293
 120696328.899 7  94049169.12244  22967752.508                    22967763.406
 115707229.611 7  90161577.26945  22018345.344                    22018355.977
 115376578.589 7  89903966.911 7  21955430.383                    21955442.742
 105656000.753 8  82329437.75246  20105677.578                    20105685.133
 113692017.578 8  88591227.28945  21634862.547                    21634870.586
 108158500.605 8  84279364.726 7  20581880.070                    20581888.434
 115492199.019 7  89993932.24445  21977427.609                    21977435.215
 11  8 23 18 50  0.0000000  0  8G17G26G24G01G08G11G07G28
 116241197.083 8  90577620.893 7  22119961.141                    22119970.664
 120665367.442 6  94025043.32644  22961860.820                    22961871.383
 115687090.337 7  90145884.38345  22014512.820                    22014523.402
 115348582.995 7  89882152.190 7  21950103.055                    21950115.379
 105633340.858 8  82311780.67246  20101364.906                    20101373.254
 113717626.605 8  88611182.36345  21639736.141                    21639744.078
 108196046.817 8  84308621.470 7  20589024.914                    20589033.488
 115469110.476 7  89975941.18545  21973034.180                    21973041.863
 11  8 23 18 50 30.0000000  0  8G17G26G24G01G08G11G07G28
 116171353.337 8  90523197.221 7  22106670.172                    22106679.313
 120634998.206 7  94001379.03044  22956082.531                    22956091.910
 115667466.234 7  90130592.93045  22010778.734                    22010789.059
 115321091.623 7  89860730.377 7  21944871.164                    21944883.078
 105611160.758 8  82294497.45446  20097144.609                    20097152.836
 113743808.147 8  88631583.57245  21644718.102                    21644726.422
 108234083.307 8  84338260.248 7  20596263.188                    20596271.027
 115446047.119 8  89957969.75145  21968645.445                    21968652.773
 11  8 23 18 51  0.0000000  0  8G17G26G24G01G08G11G07G28
 116101852.385 8  90469040.677 7  22093444.695                    22093453.785
 120605222.558 7  93978177.22544  22950415.969                    22950425.973
 115648359.439 7  90115704.56645  22007142.547                    22007152.770
 115294106.708 7  89839703.204 7  21939736.141                    21939748.730
 105589463.411 8  82277590.42046  20093015.563                    20093023.523
 113770561.579 7  88652430.38245  21649808.898                    21649817.539
 108272610.373 8  84368281.288 7  20603594.680                    20603602.711
 115423009.100 7  89940018.05845  21964261.609                    21964269.031
 11  8 23 18 51 30.0000000  0  8G17G26G24G01G08G11G07G28
 116032694.946 7  90415151.810 7  22080283.883                    22080293.262
 120576040.652 7  93955438.07144  22944862.992                    22944873.113
 115629771.251 7  90101220.30245  22003605.273                    22003615.949
 115267629.896 7  89819071.976 7  21934697.453                    21934709.781
 105568250.565 8  82261060.91246  20088978.875                    20088986.965
 113797886.545 7  88673722.55945  21655008.570                    21655017.031
 108311627.878 8  84398684.483 7  20611019.766                    20611027.766
 115399995.721 7  89922085.55645  21959882.125                    21959889.973
 11  8 23 18 52  0.0000000  0  8G17G26G24G01G08G11G07G28
 115963881.838 7  90361531.266 7  22067188.805                    22067198.879
 120547453.236 7  93933162.18144  22939423.070                    22939433.043
 115611703.061 7  90087141.22845  22000167.133                    22000177.441
 115241662.748 7  89798837.870 7  21929756.484                    21929768.535
 105547524.053 8  82244910.36746  20085034.914                    20085042.852
 113825782.336 7  88695459.53045  21660317.031                    21660325.371
 108351135.784 8  84429469.821 7  20618537.211                    20618545.348
 115377006.841 8  89904172.15645  21955507.242                    21955514.457
 11  8 23 18 52 30.0000000  0  8G17G26G24G01G08G11G07G28
 115895413.992 7  90308179.735 7  22054160.375                    22054170.004
 120519460.934 6  93911350.02444  22934096.164                    22934106.730
 115594156.232 7  90073468.40045  21996828.086                    21996838.293
 115216206.569 7  89779001.931 7  21924911.969                    21924924.059
 105527285.768 8  82229140.25946  20081183.531                    20081191.375
 113854247.986 7  88717640.52845  21665734.359                    21665742.445
 108391133.756 7  84460637.025 7  20626148.695                    20626157.129
 115354042.071 7  89886277.53045  21951137.297                    21951144.742
 11  8 23 18 53  0.0000000  0  8G17G26G24G01G08G11G07G28
 115827292.590 8  90255098.172 7  22041197.445                    22041206.801
 120492064.438 7  93890002.07744  22928882.695                    22928892.910
 115577132.880 7  90060203.47645  21993588.352                    21993598.371
 115191263.820 7  89759566.048 7  21920165.492                    21920178.313
 105507538.414 8  82213752.68946  20077425.695                    20077433.789
 113883283.142 8  88740265.32345  21671259.133                    21671267.188
 108431622.129 8  84492186.365 7  20633853.328                    20633861.922
 115331101.698 8  89868401.92345  21946772.242                    21946779.648
 11  8 23 18 53 30.0000000  0  8G17G26G24G01G08G11G07G28
 115759518.114 8  90202286.930 7  22028300.625                    22028309.980
 120465264.062 7  93869118.65644  22923783.094                    22923792.641
 115560634.266 7  90047347.42945  21990449.227                    21990459.395
 115166836.106 7  89740531.489 7  21915517.383                    21915529.508
 105488283.510 8  82198748.84646  20073761.750                    20073769.992
 113912887.072 8  88763333.33045  21676892.922                    21676900.789
 108472600.383 8  84524117.429 7  20641651.625                    20641659.773
 115308185.062 8  89850544.81145  21942411.188                    21942418.551
 11  8 23 18 54  0.0000000  0  8G17G26G24G01G08G11G07G28
 115692091.157 8  90149746.495 7  22015469.484                    22015479.078
 120439060.402 6  93848700.22544  22918796.250                    22918806.586
 115544661.353 7  90034901.04645  21987409.734                    21987419.672
 115142924.185 7  89721898.836 7  21910967.023                    21910979.242
 105469522.881 8  82184130.15546  20070191.672                    20070199.773
 113943059.019 8  88786843.92445  21682634.164                    21682642.488
 108514068.088 8  84556429.863 7  20649542.477                    20649550.945
 115285291.769 8  89832705.89245  21938054.555                    21938061.973
 11  8 23 18 54 30.0000000  0  8G17G26G24G01G08G11G07G28
 115625013.346 7  90097478.110 7  22002704.703                    22002713.734
 120413454.124 7  93828747.30344  22913923.844                    22913933.855
 115529216.111 7  90022865.81345  21984470.414                    21984480.551
 115119530.479 7  89703669.994 7  21906515.422                    21906527.879
 105451259.077 8  82169898.60046  20066716.094                    20066724.289
 113973798.363 7  88810796.64645  21688484.000                    21688491.363
 108556025.600 8  84589123.974 7  20657526.602                    20657535.199
 115262421.869 8  89814885.19345  21933702.367                    21933710.156
 11  8 23 18 55  0.0000000  0  8G17G26G24G01G08G11G07G28
 115558284.904 8  90045481.962 7  21990006.875                    21990015.914
 120388444.843 7  93809259.55144  22909165.016                    22909174.977
 115514299.079 7  90011242.17545  21981631.414                    21981641.523
 115096655.799 7  89685845.575 7  21902162.359                    21902174.879
 105433492.973 8  82156054.87446  20063335.305                    20063343.926
 114005104.044 7  88835190.67945  21694441.289                    21694449.148
 108598471.886 8  84622198.953 7  20665604.141                    20665612.465
 115239574.321 8  89797081.91045  21929354.867                    21929362.070
 11  8 23 18 55 30.0000000  0  8G17G26G24G01G08G11G07G28
 115491906.760 8  89993758.774 7  21977375.391                    21977385.168
 120364033.680 7  93790237.88644  22904518.906                    22904529.652
 115499912.812 7  90000032.13845  21978894.227                    21978904.477
 115074302.181 7  89668427.172 7  21897908.742                    21897921.395
 105416227.377 8  82142601.14446  20060049.859                    20060057.758
 114036975.268 7  88860025.39445  21700506.219                    21700513.656
 108641407.377 8  84655655.122 7  20673774.703                    20673782.813
 115216750.046 8  89779296.76945  21925011.406                    21925018.738
 11  8 23 18 56  0.0000000  0  8G17G26G24G01G08G11G07G28
 115425878.910 8  89942308.548 7  21964810.398                    21964820.395
 120340220.762 6  93771682.36044  22899988.023                    22899998.000
 115486057.834 7  89989236.05845  21976257.344                    21976268.160
 115052470.943 7  89651415.825 7  21893754.414                    21893766.813
 105399463.175 8  82129538.10746  20056859.563                    20056867.680
 114069410.682 7  88885299.73245  21706678.211                    21706686.563
 108684831.258 8  84689491.856 7  20682038.281                    20682046.488
 115193947.738 7  89761528.74145  21920672.508                    21920679.551
 11  8 23 18 56 30.0000000  0  8G17G26G24G01G08G11G07G28
 115360203.344 8  89891132.820 7  21952313.102                    21952322.332
 120317006.503 7  93753593.32644  22895570.125                    22895580.121
 115472735.632 7  89978855.16145  21973722.133                    21973732.609
 115031163.972 7  89634812.987 7  21889699.703                    21889711.996
 105383203.061 8  82116867.86846  20053765.516                    20053773.840
 114102410.217 7  88911013.65545  21712957.680                    21712965.840
 108728743.611 8  84723709.224 7  20690393.977                    20690402.391
 115171168.271 8  89743778.50845  21916337.523                    21916345.160
 11  8 23 18 57  0.0000000  0  8G17G26G24G01G08G11G07G28
 115294880.164 8  89840231.674 7  21939882.500                    21939891.500
 120294391.103 7  93735970.93544  22891267.016                    22891276.934
 115459947.500 7  89968890.38345  21971289.070                    21971299.102
 115010382.435 7  89618619.596 7  21885745.102                    21885757.281
 105367448.436 8  82104591.52146  20050767.297                    20050775.598
 114135972.395 7  88937165.98645  21719344.906                    21719352.434
 108773143.989 8  84758306.862 7  20698843.383                    20698851.797
 115148410.788 8  89726045.40945  21912007.031                    21912014.641
 11  8 23 18 57 30.0000000  0  8G17G26G24G01G08G11G07G28
 115229910.117 8  89789605.711 7  21927518.867                    21927528.027
 120272374.909 6  93718815.46244  22887077.500                    22887087.449
 115447694.610 7  89959342.70945  21968956.789                    21968967.699
 114990127.886 7  89602836.839 7  21881890.930                    21881902.719
 105352201.295 8  82092710.60346  20047865.813                    20047874.145
 114170096.745 7  88963756.37445  21725838.469                    21725846.313
 108818032.328 8  84793284.735 7  20707385.656                    20707394.113
 115125674.952 7  89708329.17745  21907680.320                    21907687.648
 11  8 23 18 58  0.0000000  0  8G17G26G24G01G08G11G07G28
 115165294.077 8  89739255.592 7  21915223.078                    21915232.629
 120250958.245 7  93702127.15144  22883001.516                    22883012.398
 115435978.515 7  89950213.28545  21966727.406                    21966737.906
 114970401.847 7  89587465.917 7  21878137.148                    21878148.867
 105337463.749 8  82081226.78246  20045061.734                    20045070.207
 114204782.551 8  88990784.26745  21732439.336                    21732446.313
 108863407.984 8  84828642.331 7  20716020.266                    20716028.570
 115102961.055 8  89690630.03145  21903358.227                    21903365.410
 11  8 23 18 58 30.0000000  0  8G17G26G24G01G08G11G07G28
 115101032.717 8  89689181.841 7  21902994.648                    21903003.359
 120230141.269 7  93685906.12944  22879040.484                    22879050.852
 115424800.098 7  89941502.86145  21964600.102                    21964610.934
 114951205.506 7  89572507.743 7  21874484.328                    21874495.840
 105323237.176 8  82070141.12046  20042354.438                    20042362.848
 114240028.301 7  89018248.47145  21739145.656                    21739153.539
 108909270.548 8  84864379.333 7  20724747.594                    20724755.922
 115080268.875 8  89672947.81545  21899040.063                    21899047.703
 11  8 23 18 59  0.0000000  0  8G17G26G24G01G08G11G07G28
 115037126.619 8  89639384.924 7  21890833.320                    21890842.188
 120209924.054 7  93670152.43844  22875193.281                    22875203.668
 115414160.575 7  89933212.32745  21962575.797                    21962586.098
 114932540.184 7  89557963.362 7  21870932.086                    21870944.355
 105309523.284 8  82059454.94946  20039745.055                    20039753.492
 114275833.126 7  89046148.30845  21745959.336                    21745967.363
 108955619.820 8  84900495.581 7  20733567.664                    20733576.574
 115057597.784 8  89655282.03845  21894725.969                    21894733.566
 11  8 23 18 59 30.0000000  0  8G17G26G24G01G08G11G07G28
 114973576.396 7  89589865.299 7  21878740.336                    21878749.598
 120190306.976 6  93654866.41544  22871460.133                    22871470.762
 115404060.996 7  89925342.55845  21960653.547                    21960663.844
 114914407.161 7  89543833.742 7  21867481.664                    21867493.816
 105296323.945 8  82049169.72846  20037233.031                    20037241.168
 114312196.139 7  89074483.11745  21752878.523                    21752887.000
 109002455.130 8  84936990.593 7  20742479.844                    20742488.547
 115034948.135 8  89637632.96245  21890415.563                    21890422.941
 11  8 23 19  0  0.0000000  0  8G17G26G24G01G08G11G07G28
 114910383.293 7  89540623.947 7  21866714.844                    21866723.977
 120171290.119 7  93640048.07844  22867840.875                    22867851.930
 115394502.903 7  89917894.69845  21958835.125                    21958845.281
 114896808.169 7  89530120.259 7  21864132.703                    21864144.336
 105283641.305 8  82039287.11646  20034819.391                    20034827.504
 114349116.408 8  89103252.13245  21759904.781                    21759912.488
 109049776.062 8  84973863.968 7  20751485.516                    20751493.840
 115012319.554 8  89620000.29445  21886109.648                    21886116.891
 11  8 23 19  0 30.0000000  0  8G17G26G24G01G08G11G07G28
 114847547.492 8  89491661.027 7  21854757.688                    21854766.352
 120152873.818 7  93625697.69144  22864336.430                    22864347.551
 115385487.175 7  89910869.46245  21957119.359                    21957129.453
 114879744.355 7  89516823.807 7  21860885.492                    21860897.434
 105271476.828 8  82029808.27846  20032505.367                    20032513.660
 114386592.615 8  89132454.35745  21767036.281                    21767044.375
 109097582.346 8  85011115.562 7  20760582.578                    20760590.613
 114989712.015 8  89602384.02745  21881807.594                    21881814.898
 11  8 23 19  1  0.0000000  0  8G17G26G24G01G08G11G07G28
 114785069.248 7  89442976.714 7  21842868.258                    21842877.348
 120135057.668 7  93611814.97144  22860946.781                    22860957.102
 115377014.570 7  89904267.44445  21955507.227                    21955517.328
 114863217.028 7  89503945.366 7  21857740.578                    21857752.543
 105259831.590 8  82020734.04346  20030288.891                    20030296.969
 114424623.589 8  89162088.87045  21774273.211                    21774281.316
 109145873.214 8  85048744.741 7  20769772.063                    20769780.559
 114967124.992 8  89584783.75445  21877509.469                    21877517.129
 11  8 23 19  1 30.0000000  0  8G17G26G24G01G08G11G07G28
 114722949.743 7  89394571.945 7  21831047.430                    21831057.145
 120117842.222 7  93598400.33144  22857670.336                    22857680.828
 115369086.816 7  89898089.98145  21953998.422                    21954008.691
 114847227.681 7  89491486.157 7  21854697.453                    21854709.395
 105248708.204 8  82012066.43646  20028172.234                    20028180.688
 114463208.646 7  89192155.14145  21781615.773                    21781623.242
 109194648.807 8  85086751.646 7  20779053.109                    20779062.031
 114944558.949 7  89567199.82645  21873215.000                    21873222.645
 11  8 23 19  2  0.0000000  0  8G17G26G24G01G08G11G07G28
 114661189.829 7  89346447.360 7  21819295.070                    21819304.375
 120101227.270 7  93585453.59544  22854509.289                    22854519.629
 115361704.790 7  89892337.77645  21952593.266                    21952604.453
 114831777.181 7  89479446.834 7  21851757.586                    21851769.469
 105238108.034 8  82003806.54046  20026155.078                    20026163.527
 114502346.384 8  89222652.06245  21789063.258                    21789070.863
 109243908.059 8  85125135.432 7  20788427.289                    20788436.086
 114922013.837 8  89549632.20345  21868924.906                    21868932.559
 11  8 23 19  2 30.0000000  0  8G17G26G24G01G08G11G07G28
 114599789.057 7  89298602.629 7  21807610.656                    21807619.816
 120085212.593 7  93572974.60444  22851461.102                    22851471.629
 115354869.178 7  89887011.32645  21951293.031                    21951303.191
 114816866.558 7  89467828.172 7  21848919.984                    21848932.238
 105228032.146 8  81995955.16746  20024237.625                    20024245.922
 114542035.452 7  89253578.58845  21796615.867                    21796623.867
 109293650.094 8  85163895.398 7  20797892.672                    20797901.598
 114899488.652 7  89532080.11245  21864638.398                    21864646.227
 11  8 23 19  3  0.0000000  0  8G17G26G24G01G08G11G07G28
 114538748.944 8  89251038.932 7  21795994.859                    21796004.145
 120069798.599 7  93560963.70244  22848527.930                    22848538.715
 115348581.390 7  89882111.76345  21950096.594                    21950106.676
 114802497.398 7  89456631.435 7  21846185.930                    21846197.789
 105218483.073 8  81988514.31246  20022420.570                    20022428.895
 114582275.135 7  89284934.17045  21804272.938                    21804281.293
 109343875.081 8  85203031.690 7  20807450.609                    20807458.684
 114876984.086 8  89514544.07845  21860356.203                    21860363.426
 11  8 23 19  3 30.0000000  0  8G17G26G24G01G08G11G07G28
 114478070.000 7  89203756.664 7  21784448.016                    21784456.809
 120054985.062 7  93549420.65544  22845709.570                    22845719.414
 115342841.987 7  89877639.51345  21949004.164                    21949014.801
 114788670.775 7  89445857.464 7  21843554.766                    21843566.484
 105209462.091 8  81981484.93646  20020703.727                    20020712.324
 114623064.183 7  89316717.82745  21812035.352                    21812043.305
 109394582.382 8  85242543.803 7  20817100.086                    20817108.168
 114854499.877 8  89497023.90345  21856077.328                    21856085.375
 11  8 23 19  4  0.0000000  0  8G17G26G24G01G08G11G07G28
 114417752.142 7  89156755.754 7  21772969.797                    21772979.352
 120040771.780 7  93538345.33444  22843004.984                    22843014.535
 115337651.640 7  89873595.09345  21948016.578                    21948026.988
 114775387.530 7  89435506.910 7  21841026.477                    21841038.711
 105200970.311 8  81974867.93146  20019088.094                    20019096.621
 114664401.020 7  89348928.32945  21819901.016                    21819909.605
 109445770.850 8  85282430.875 7  20826840.820                    20826849.551
 114832035.447 8  89479519.15145  21851802.719                    21851810.219
 11  8 23 19  4 30.0000000  0  8G17G26G24G01G08G11G07G28
 114357796.634 7  89110037.204 7  21761560.695                    21761570.281
 120027158.915 7  93527737.91144  22840414.555                    22840424.445
 115333012.040 7  89869979.82245  21947133.758                    21947143.840
 114762649.405 7  89425581.110 7  21838602.891                    21838614.465
 105193010.186 8  81968665.19446  20017573.867                    20017581.707
 114706284.920 8  89381565.11045  21827871.625                    21827879.254
 109497440.457 8  85322692.846 7  20836673.078                    20836681.793
 114809591.590 8  89462030.42045  21847531.773                    21847539.418
 11  8 23 19  5  0.0000000  0  8G17G26G24G01G08G11G07G28
 114298204.161 8  89063601.544 7  21750220.773                    21750230.184
 120014146.548 7  93517598.37544  22837938.109                    22837948.203
 115328924.117 7  89866794.42145  21946355.508                    21946365.418
 114750457.647 7  89416081.055 7  21836283.078                    21836295.051
 105185583.416 8  81962878.06746  20016160.008                    20016168.230
 114748714.671 7  89414627.24045  21835945.703                    21835953.668
 109549590.798 8  85363329.420 7  20846597.477                    20846605.953
 114787168.417 8  89444557.80845  21843264.805                    21843272.516
 11  8 23 19  5 30.0000000  0  8G17G26G24G01G08G11G07G28
 114238974.894 8  89017448.898 7  21738949.852                    21738958.789
 120001734.015 7  93507926.23944  22835576.625                    22835586.691
 115325388.159 7  89864039.13745  21945682.375                    21945692.863
 114738812.733 7  89407007.111 7  21834066.781                    21834079.047
 105178690.749 8  81957507.12646  20014848.531                    20014856.746
 114791688.490 7  89448113.30845  21844123.227                    21844131.242
 109602220.616 8  85404339.606 7  20856612.234                    20856620.414
 114764765.304 8  89427100.82845  21839001.586                    21839009.504
 11  8 23 19  6  0.0000000  0  8G17G26G24G01G08G11G07G28
 114180108.936 7  88971579.348 7  21727747.961                    21727757.063
 119989920.748 7  93498721.07444  22833327.820                    22833338.672
 115322404.796 7  89861714.45345  21945115.031                    21945125.355
 114727715.256 7  89398359.727 7  21831955.328                    21831966.918
 105172333.181 8  81952553.13646  20013638.766                    20013647.055
 114835204.852 7  89482022.12545  21852404.109                    21852412.250
 109655328.748 8  85445722.515 7  20866718.547                    20866726.926
 114742381.743 8  89409659.09445  21834742.078                    21834750.090
 11  8 23 19  6 30.0000000  0  8G17G26G24G01G08G11G07G28
 114121606.504 7  88925993.058 7  21716615.234                    21716624.402
 119978706.982 7  93489983.03644  22831194.391                    22831204.523
 115319975.070 7  89859821.16245  21944652.914                    21944662.961
 114717166.947 7  89390140.283 7  21829947.953                    21829960.086
 105166512.702 8  81948017.67746  20012531.391                    20012539.969
 114879262.767 7  89516352.93745  21860788.211                    21860796.207
 109708915.168 8  85487478.098 7  20876915.938                    20876923.699
 114720017.842 8  89392232.66845  21830486.547                    21830494.152
 11  8 23 19  7  0.0000000  0  8G17G26G24G01G08G11G07G28
 114063469.155 7  88880691.253 7  21705552.164                    21705561.328
 119968092.476 7  93481711.97944  22829174.313                    22829184.289
 115318100.184 7  89858360.21945  21944296.203                    21944306.051
 114707168.921 8  89382349.620 7  21828045.281                    21828057.441
 105161231.190 8  81943902.16546  20011526.297                    20011534.488
 114923860.956 7  89551104.73845  21869275.172                    21869283.035
 109762979.121 8  85529605.800 7  20887203.953                    20887212.254
 114697674.266 8  89374822.07545  21826234.219                    21826242.289
 11  8 23 19  7 30.0000000  0  8G17G26G24G01G08G11G07G28
 114005696.543 8  88835673.654 7  21694558.516                    21694567.668
 119958076.960 7  93473907.65944  22827268.602                    22827278.355
 115316780.768 7  89857332.10545  21944044.602                    21944054.766
 114697721.763 7  89374988.225 7  21826247.422                    21826259.313
 105156489.952 8  81940207.66346  20010623.938                    20010632.328
 114968998.246 8  89586276.64145  21877864.633                    21877871.984
 109817519.561 8  85572104.781 7  20897582.297                    20897591.246
 114675350.596 8  89357427.00545  21821986.367                    21821994.445
 11  8 23 19  8  0.0000000  0  8G17G26G24G01G08G11G07G28
 113948289.442 7  88790940.881 7  21683634.125                    21683643.355
 119948660.104 7  93466569.80044  22825476.164                    22825486.805
 115316017.548 7  89856737.39245  21943900.484                    21943909.820
 114688826.438 7  89368056.801 7  21824554.641                    21824566.539
 105152290.318 8  81936935.18646  20009824.914                    20009833.070
 115014672.863 7  89621867.22045  21886556.273                    21886563.508
 109872536.183 8  85614974.793 7  20908051.297                    20908060.387
 114653046.893 8  89340047.48745  21817742.477                    21817750.715
 11  8 23 19  8 30.0000000  0  8G17G26G24G01G08G11G07G28
 113891248.408 7  88746493.356 7  21672779.867                    21672788.973
 119939841.989 7  93459698.50544  22823798.297                    22823808.914
 115315811.477 7  89856576.81545  21943861.023                    21943870.691
 114680484.556 7  89361556.640 7  21822967.281                    21822979.090
 105148634.413 8  81934086.39346  20009129.367                    20009137.590
 115060884.042 7  89657875.91445  21895349.461                    21895357.586
 109928028.304 8  85658215.337 7  20918611.445                    20918619.895
 114630763.628 8  89322683.88846  21813502.250                    21813509.953
 11  8 23 19  9  0.0000000  0  8G17G26G24G01G08G11G07G28
 113834573.573 7  88702331.180 7  21661994.641                    21662003.922
 119931621.737 7  93453293.08444  22822234.461                    22822244.813
 115316162.621 7  89856850.43845  21943927.477                    21943936.805
 114672696.339 7  89355487.914 7  21821485.547                    21821497.418
 105145522.630 7  81931661.58246  20008536.883                    20008545.430
 115107629.763 7  89694301.13645  21904245.102                    21904253.594
 109983994.763 8  85701825.503 7  20929261.766                    20929270.184
 114608500.205 8  89305335.75545  21809265.313                    21809273.402
 11  8 23 19  9 30.0000000  0  8G17G26G24G01G08G11G07G28
 113778265.409 7  88658454.724 7  21651279.227                    21651288.648
 119923999.172 7  93447353.40944  22820784.023                    22820793.965
 115317071.955 7  89857559.01845  21944100.406                    21944110.777
 114665462.838 7  89349851.427 7  21820108.672                    21820120.688
 105142956.722 8  81929662.14546  20008048.859                    20008057.082
 115154908.705 7  89731141.84945  21913242.164                    21913250.305
 110040434.730 7  85745804.634 7  20940002.289                    20940010.773
 114586256.887 8  89288003.28845  21805032.586                    21805040.355
 11  8 23 19 10  0.0000000  0  8G17G26G24G01G08G11G07G28
 113722324.790 7  88614864.665 7  21640634.258                    21640643.105
 119916974.040 7  93441879.25844  22819447.242                    22819456.793
 115318540.568 7  89858703.40545  21944380.109                    21944389.594
 114658785.479 7  89344648.300 7  21818838.453                    21818849.953
 105140938.588 8  81928089.54646  20007665.063                    20007673.254
 115202719.755 7  89768397.19945  21922340.156                    21922348.207
 110097348.120 7  85790152.653 7  20950831.859                    20950840.754
 114564034.328 8  89270686.99245  21800803.750                    21800811.441
 11  8 23 19 10 30.0000000  0  8G17G26G24G01G08G11G07G28
 113666751.012 7  88571560.443 7  21630059.391                    21630068.383
 119910545.438 7  93436869.92044  22818224.383                    22818233.371
 115320568.141 7  89860283.34045  21944765.750                    21944775.477
 114652663.659 7  89339878.056 7  21817673.430                    21817685.680
 105139468.356 8  81926943.88446  20007385.141                    20007393.500
 115251060.536 7  89806065.32545  21931539.063                    21931547.773
 110154733.087 8  85834868.145 7  20961751.969                    20961761.219
 114541831.360 7  89253385.96545  21796578.844                    21796586.773
 11  8 23 19 11  0.0000000  0  8G17G26G24G01G08G11G07G28
 113611545.168 7  88528542.940 7  21619553.867                    21619562.824
 119904713.051 7  93432325.18344  22817114.172                    22817124.199
 115323155.851 7  89862299.75845  21945257.859                    21945268.219
 114647099.270 7  89335542.177 7  21816614.398                    21816626.320
 105138548.057 8  81926226.74946  20007210.039                    20007218.254
 115299930.411 7  89844145.71845  21940838.609                    21940847.000
 110212589.080 7  85879950.672 7  20972761.875                    20972770.801
 114519648.645 8  89236100.72745  21792357.977                    21792365.531
 11  8 23 19 11 30.0000000  0  8G17G26G24G01G08G11G07G28
 113556707.641 7  88485812.433 7  21609118.320                    21609127.215
 119899476.607 7  93428244.80944  22816117.578                    22816127.484
 115326304.260 7  89864753.07245  21945856.797                    21945867.504
 114642092.650 7  89331640.930 7  21815661.398                    21815673.379
 105138179.137 8  81925939.25146  20007139.492                    20007148.465
 115349327.666 8  89882637.04645  21950239.039                    21950247.531
 110270915.155 7  85925399.492 7  20983860.891                    20983870.078
 114497486.335 7  89218831.38545  21788140.320                    21788147.613
